<?xml version="1.0" encoding="UTF-8" standalone="no" ?><gpx xmlns="http://www.topografix.com/GPX/1/1" xmlns:gpxx="http://www.garmin.com/xmlschemas/GpxExtensions/v3" xmlns:wptx1="http://www.garmin.com/xmlschemas/WaypointExtension/v1" xmlns:gpxtpx="http://www.garmin.com/xmlschemas/TrackPointExtension/v1" creator="GuideVTT.com" version="1.1" xmlns:xsi="http://www.w3.org/2001/XMLSchema-instance" xsi:schemaLocation="http://www.topografix.com/GPX/1/1 http://www.topografix.com/GPX/1/1/gpx.xsd http://www.garmin.com/xmlschemas/GpxExtensions/v3 http://www8.garmin.com/xmlschemas/GpxExtensionsv3.xsd http://www.garmin.com/xmlschemas/WaypointExtension/v1 http://www8.garmin.com/xmlschemas/WaypointExtensionv1.xsd http://www.garmin.com/xmlschemas/TrackPointExtension/v1 http://www.garmin.com/xmlschemas/TrackPointExtensionv1.xsd">
<metadata><link href="http://www.garmin.com"><text>Garmin International</text></link><time>2013-06-22T15:13:50Z</time></metadata>
<trk><name>runtastic_20170725_1114_vtt.gpx</name><extensions><gpxx:TrackExtension><gpxx:DisplayColor>Cyan</gpxx:DisplayColor></gpxx:TrackExtension></extensions><trkseg>
<trkpt lat="46.3086584860071824" lon="7.4667683243751526"><ele></ele><time>2017-7-27T9:34:3Z</time></trkpt>
<trkpt lat="46.3087474202373812" lon="7.4666932225227356"><ele></ele><time>2017-7-27T9:34:6Z</time></trkpt>
<trkpt lat="46.3088363543230770" lon="7.4664142727851868"><ele></ele><time>2017-7-27T9:34:9Z</time></trkpt>
<trkpt lat="46.3089604912427504" lon="7.4660843610763550"><ele></ele><time>2017-7-27T9:34:12Z</time></trkpt>
<trkpt lat="46.3090346027023827" lon="7.4660253524780273"><ele></ele><time>2017-7-27T9:34:15Z</time></trkpt>
<trkpt lat="46.3091216835391890" lon="7.4660897254943848"><ele></ele><time>2017-7-27T9:34:18Z</time></trkpt>
<trkpt lat="46.3091846781007774" lon="7.4663364887237549"><ele></ele><time>2017-7-27T9:34:21Z</time></trkpt>
<trkpt lat="46.3093884835385268" lon="7.4667334556579590"><ele></ele><time>2017-7-27T9:34:24Z</time></trkpt>
<trkpt lat="46.3095255885878743" lon="7.4668139219284058"><ele></ele><time>2017-7-27T9:34:27Z</time></trkpt>
<trkpt lat="46.3097275399945048" lon="7.4667736887931824"><ele></ele><time>2017-7-27T9:34:30Z</time></trkpt>
<trkpt lat="46.3099220796357116" lon="7.4665778875350952"><ele></ele><time>2017-7-27T9:34:33Z</time></trkpt>
<trkpt lat="46.3102277833892231" lon="7.4661380052566528"><ele></ele><time>2017-7-27T9:34:36Z</time></trkpt>
<trkpt lat="46.3104241739906612" lon="7.4656578898429871"><ele></ele><time>2017-7-27T9:34:39Z</time></trkpt>
<trkpt lat="46.3105927729071212" lon="7.4651911854743958"><ele></ele><time>2017-7-27T9:34:42Z</time></trkpt>
<trkpt lat="46.3107613713042383" lon="7.4649015069007874"><ele></ele><time>2017-7-27T9:34:45Z</time></trkpt>
<trkpt lat="46.3108503021176574" lon="7.4648907780647278"><ele></ele><time>2017-7-27T9:34:48Z</time></trkpt>
<trkpt lat="46.3110522486365355" lon="7.4649578332901001"><ele></ele><time>2017-7-27T9:34:51Z</time></trkpt>
<trkpt lat="46.3113357135940618" lon="7.4653145670890808"><ele></ele><time>2017-7-27T9:34:54Z</time></trkpt>
<trkpt lat="46.3117229280589981" lon="7.4654808640480042"><ele></ele><time>2017-7-27T9:34:57Z</time></trkpt>
<trkpt lat="46.3123046709571682" lon="7.4656471610069275"><ele></ele><time>2017-7-27T9:35:0Z</time></trkpt>
<trkpt lat="46.3125658974442516" lon="7.4656149744987488"><ele></ele><time>2017-7-27T9:35:3Z</time></trkpt>
<trkpt lat="46.3127548690193649" lon="7.4652582406997681"><ele></ele><time>2017-7-27T9:35:6Z</time></trkpt>
<trkpt lat="46.3128864076717761" lon="7.4648746848106384"><ele></ele><time>2017-7-27T9:35:9Z</time></trkpt>
<trkpt lat="46.3129308713701064" lon="7.4648022651672363"><ele></ele><time>2017-7-27T9:35:12Z</time></trkpt>
<trkpt lat="46.3129790403358896" lon="7.4648934602737427"><ele></ele><time>2017-7-27T9:35:15Z</time></trkpt>
<trkpt lat="46.3130753781402120" lon="7.4651268124580383"><ele></ele><time>2017-7-27T9:35:18Z</time></trkpt>
<trkpt lat="46.3130957572694300" lon="7.4654272198677063"><ele></ele><time>2017-7-27T9:35:21Z</time></trkpt>
<trkpt lat="46.3131179890380622" lon="7.4656069278717041"><ele></ele><time>2017-7-27T9:35:24Z</time></trkpt>
<trkpt lat="46.3132587900297068" lon="7.4659100174903870"><ele></ele><time>2017-7-27T9:35:27Z</time></trkpt>
<trkpt lat="46.3133106639879628" lon="7.4661058187484741"><ele></ele><time>2017-7-27T9:35:30Z</time></trkpt>
<trkpt lat="46.3132828743735843" lon="7.4667361378669739"><ele></ele><time>2017-7-27T9:35:33Z</time></trkpt>
<trkpt lat="46.3132532321027099" lon="7.4674549698829651"><ele></ele><time>2017-7-27T9:35:36Z</time></trkpt>
<trkpt lat="46.3132013580900264" lon="7.4677366018295288"><ele></ele><time>2017-7-27T9:35:39Z</time></trkpt>
<trkpt lat="46.3131883895791745" lon="7.4680557847023010"><ele></ele><time>2017-7-27T9:35:42Z</time></trkpt>
<trkpt lat="46.3131253996255836" lon="7.4683508276939392"><ele></ele><time>2017-7-27T9:35:45Z</time></trkpt>
<trkpt lat="46.3129864509422404" lon="7.4686539173126221"><ele></ele><time>2017-7-27T9:35:48Z</time></trkpt>
<trkpt lat="46.3127493110411734" lon="7.4686780571937561"><ele></ele><time>2017-7-27T9:35:51Z</time></trkpt>
<trkpt lat="46.3124306526810443" lon="7.4685332179069519"><ele></ele><time>2017-7-27T9:35:54Z</time></trkpt>
<trkpt lat="46.3122694701295288" lon="7.4683105945587158"><ele></ele><time>2017-7-27T9:35:57Z</time></trkpt>
<trkpt lat="46.3118804068424623" lon="7.4679565429687500"><ele></ele><time>2017-7-27T9:36:0Z</time></trkpt>
<trkpt lat="46.3117951830864882" lon="7.4679967761039734"><ele></ele><time>2017-7-27T9:36:3Z</time></trkpt>
<trkpt lat="46.3117303388354458" lon="7.4681818485260010"><ele></ele><time>2017-7-27T9:36:6Z</time></trkpt>
<trkpt lat="46.3118025938531446" lon="7.4684822559356689"><ele></ele><time>2017-7-27T9:36:9Z</time></trkpt>
<trkpt lat="46.3120712334669591" lon="7.4693834781646729"><ele></ele><time>2017-7-27T9:36:12Z</time></trkpt>
<trkpt lat="46.3123973046059021" lon="7.4700808525085449"><ele></ele><time>2017-7-27T9:36:15Z</time></trkpt>
<trkpt lat="46.3128789970518895" lon="7.4708318710327148"><ele></ele><time>2017-7-27T9:36:18Z</time></trkpt>
<trkpt lat="46.3132347056752494" lon="7.4714380502700806"><ele></ele><time>2017-7-27T9:36:21Z</time></trkpt>
<trkpt lat="46.3134792540126980" lon="7.4717974662780762"><ele></ele><time>2017-7-27T9:36:24Z</time></trkpt>
<trkpt lat="46.3136793382032792" lon="7.4718725681304932"><ele></ele><time>2017-7-27T9:36:27Z</time></trkpt>
<trkpt lat="46.3139572316988435" lon="7.4718725681304932"><ele></ele><time>2017-7-27T9:36:30Z</time></trkpt>
<trkpt lat="46.3140572730118478" lon="7.4721086025238037"><ele></ele><time>2017-7-27T9:36:33Z</time></trkpt>
<trkpt lat="46.3142721759546561" lon="7.4726611375808716"><ele></ele><time>2017-7-27T9:36:36Z</time></trkpt>
<trkpt lat="46.3144685520438131" lon="7.4733638763427734"><ele></ele><time>2017-7-27T9:36:39Z</time></trkpt>
<trkpt lat="46.3145167196561900" lon="7.4735462665557861"><ele></ele><time>2017-7-27T9:36:42Z</time></trkpt>
<trkpt lat="46.3145315404514548" lon="7.4739110469818115"><ele></ele><time>2017-7-27T9:36:45Z</time></trkpt>
<trkpt lat="46.3146797481834298" lon="7.4744367599487305"><ele></ele><time>2017-7-27T9:36:48Z</time></trkpt>
<trkpt lat="46.3149502262596258" lon="7.4747800827026367"><ele></ele><time>2017-7-27T9:36:51Z</time></trkpt>
<trkpt lat="46.3152132926951410" lon="7.4750536680221558"><ele></ele><time>2017-7-27T9:36:54Z</time></trkpt>
<trkpt lat="46.3155912169103061" lon="7.4751126766204834"><ele></ele><time>2017-7-27T9:36:57Z</time></trkpt>
<trkpt lat="46.3157468320049830" lon="7.4751019477844238"><ele></ele><time>2017-7-27T9:37:0Z</time></trkpt>
<trkpt lat="46.3160988168962149" lon="7.4745923280715942"><ele></ele><time>2017-7-27T9:37:3Z</time></trkpt>
<trkpt lat="46.3162322000529301" lon="7.4740988016128540"><ele></ele><time>2017-7-27T9:37:6Z</time></trkpt>
<trkpt lat="46.3161914441228788" lon="7.4734497070312500"><ele></ele><time>2017-7-27T9:37:9Z</time></trkpt>
<trkpt lat="46.3161951492086814" lon="7.4731063842773438"><ele></ele><time>2017-7-27T9:37:12Z</time></trkpt>
<trkpt lat="46.3162877762722758" lon="7.4729830026626587"><ele></ele><time>2017-7-27T9:37:15Z</time></trkpt>
<trkpt lat="46.3164100437561572" lon="7.4731761217117310"><ele></ele><time>2017-7-27T9:37:18Z</time></trkpt>
<trkpt lat="46.3166693981206450" lon="7.4739485979080200"><ele></ele><time>2017-7-27T9:37:21Z</time></trkpt>
<trkpt lat="46.3170658374165356" lon="7.4745494127273560"><ele></ele><time>2017-7-27T9:37:24Z</time></trkpt>
<trkpt lat="46.3173733537708188" lon="7.4749141931533813"><ele></ele><time>2017-7-27T9:37:27Z</time></trkpt>
<trkpt lat="46.3176401135458065" lon="7.4754828214645386"><ele></ele><time>2017-7-27T9:37:30Z</time></trkpt>
<trkpt lat="46.3181588093855297" lon="7.4773550033569336"><ele></ele><time>2017-7-27T9:37:33Z</time></trkpt>
<trkpt lat="46.3182069737497173" lon="7.4774891138076782"><ele></ele><time>2017-7-27T9:37:36Z</time></trkpt>
<trkpt lat="46.3185922871371432" lon="7.4782562255859375"><ele></ele><time>2017-7-27T9:37:39Z</time></trkpt>
<trkpt lat="46.3188034673618674" lon="7.4784868955612183"><ele></ele><time>2017-7-27T9:37:42Z</time></trkpt>
<trkpt lat="46.3188071722708088" lon="7.4787712097167969"><ele></ele><time>2017-7-27T9:37:45Z</time></trkpt>
<trkpt lat="46.3187404838713661" lon="7.4791896343231201"><ele></ele><time>2017-7-27T9:37:48Z</time></trkpt>
<trkpt lat="46.3187478936975268" lon="7.4795812368392944"><ele></ele><time>2017-7-27T9:37:51Z</time></trkpt>
<trkpt lat="46.3188256968117997" lon="7.4799299240112305"><ele></ele><time>2017-7-27T9:37:54Z</time></trkpt>
<trkpt lat="46.3191554325918631" lon="7.4808740615844727"><ele></ele><time>2017-7-27T9:37:57Z</time></trkpt>
<trkpt lat="46.3196370655535574" lon="7.4818396568298340"><ele></ele><time>2017-7-27T9:38:0Z</time></trkpt>
<trkpt lat="46.3199927302500782" lon="7.4822473526000977"><ele></ele><time>2017-7-27T9:38:3Z</time></trkpt>
<trkpt lat="46.3205114037882879" lon="7.4827677011489868"><ele></ele><time>2017-7-27T9:38:6Z</time></trkpt>
<trkpt lat="46.3208596532621470" lon="7.4836099147796631"><ele></ele><time>2017-7-27T9:38:9Z</time></trkpt>
<trkpt lat="46.3207781482648286" lon="7.4837708473205566"><ele></ele><time>2017-7-27T9:38:12Z</time></trkpt>
<trkpt lat="46.3205780900293576" lon="7.4844574928283691"><ele></ele><time>2017-7-27T9:38:15Z</time></trkpt>
<trkpt lat="46.3208596532621470" lon="7.4851334095001221"><ele></ele><time>2017-7-27T9:38:18Z</time></trkpt>
<trkpt lat="46.3209633867195123" lon="7.4853801727294922"><ele></ele><time>2017-7-27T9:38:21Z</time></trkpt>
<trkpt lat="46.3209041104822461" lon="7.4857556819915771"><ele></ele><time>2017-7-27T9:38:24Z</time></trkpt>
<trkpt lat="46.3208967009480688" lon="7.4861741065979004"><ele></ele><time>2017-7-27T9:38:27Z</time></trkpt>
<trkpt lat="46.3208892914128967" lon="7.4864959716796875"><ele></ele><time>2017-7-27T9:38:30Z</time></trkpt>
<trkpt lat="46.3209337486089012" lon="7.4867963790893555"><ele></ele><time>2017-7-27T9:38:33Z</time></trkpt>
<trkpt lat="46.3208892914128967" lon="7.4870431423187256"><ele></ele><time>2017-7-27T9:38:36Z</time></trkpt>
<trkpt lat="46.3208596532621470" lon="7.4875259399414062"><ele></ele><time>2017-7-27T9:38:39Z</time></trkpt>
<trkpt lat="46.3208374246385475" lon="7.4879336357116699"><ele></ele><time>2017-7-27T9:38:42Z</time></trkpt>
<trkpt lat="46.3208744723395327" lon="7.4884164333343506"><ele></ele><time>2017-7-27T9:38:45Z</time></trkpt>
<trkpt lat="46.3210374819257851" lon="7.4887490272521973"><ele></ele><time>2017-7-27T9:38:48Z</time></trkpt>
<trkpt lat="46.3212153100114250" lon="7.4891138076782227"><ele></ele><time>2017-7-27T9:38:51Z</time></trkpt>
<trkpt lat="46.3213338617474477" lon="7.4897468090057373"><ele></ele><time>2017-7-27T9:38:54Z</time></trkpt>
<trkpt lat="46.3215857833335178" lon="7.4902832508087158"><ele></ele><time>2017-7-27T9:38:57Z</time></trkpt>
<trkpt lat="46.3219562541470253" lon="7.4910235404968262"><ele></ele><time>2017-7-27T9:39:0Z</time></trkpt>
<trkpt lat="46.3220377573893174" lon="7.4913883209228516"><ele></ele><time>2017-7-27T9:39:3Z</time></trkpt>
<trkpt lat="46.3221266698788341" lon="7.4919998645782471"><ele></ele><time>2017-7-27T9:39:6Z</time></trkpt>
<trkpt lat="46.3224156344718097" lon="7.4919140338897705"><ele></ele><time>2017-7-27T9:39:9Z</time></trkpt>
<trkpt lat="46.3228676016721295" lon="7.4918603897094727"><ele></ele><time>2017-7-27T9:39:12Z</time></trkpt>
<trkpt lat="46.3232010177054150" lon="7.4920964241027832"><ele></ele><time>2017-7-27T9:39:15Z</time></trkpt>
<trkpt lat="46.3233269743447522" lon="7.4925041198730469"><ele></ele><time>2017-7-27T9:39:18Z</time></trkpt>
<trkpt lat="46.3234529306940459" lon="7.4928903579711914"><ele></ele><time>2017-7-27T9:39:21Z</time></trkpt>
<trkpt lat="46.3237715248714395" lon="7.4931693077087402"><ele></ele><time>2017-7-27T9:39:24Z</time></trkpt>
<trkpt lat="46.3239567531914247" lon="7.4932873249053955"><ele></ele><time>2017-7-27T9:39:27Z</time></trkpt>
<trkpt lat="46.3242308899540660" lon="7.4934160709381104"><ele></ele><time>2017-7-27T9:39:30Z</time></trkpt>
<trkpt lat="46.3250236561047473" lon="7.4933409690856934"><ele></ele><time>2017-7-27T9:39:33Z</time></trkpt>
<trkpt lat="46.3255126463195808" lon="7.4936735630035400"><ele></ele><time>2017-7-27T9:39:36Z</time></trkpt>
<trkpt lat="46.3257423220330224" lon="7.4939525127410889"><ele></ele><time>2017-7-27T9:39:39Z</time></trkpt>
<trkpt lat="46.3262090793827710" lon="7.4939846992492676"><ele></ele><time>2017-7-27T9:39:42Z</time></trkpt>
<trkpt lat="46.3264683873006149" lon="7.4941563606262207"><ele></ele><time>2017-7-27T9:39:45Z</time></trkpt>
<trkpt lat="46.3265795188891332" lon="7.4945855140686035"><ele></ele><time>2017-7-27T9:39:48Z</time></trkpt>
<trkpt lat="46.3265054311885578" lon="7.4950039386749268"><ele></ele><time>2017-7-27T9:39:51Z</time></trkpt>
<trkpt lat="46.3262387146355792" lon="7.4951434135437012"><ele></ele><time>2017-7-27T9:39:54Z</time></trkpt>
<trkpt lat="46.3257719575387270" lon="7.4951112270355225"><ele></ele><time>2017-7-27T9:39:57Z</time></trkpt>
<trkpt lat="46.3254311482539904" lon="7.4954438209533691"><ele></ele><time>2017-7-27T9:40:0Z</time></trkpt>
<trkpt lat="46.3253348322017402" lon="7.4958407878875732"><ele></ele><time>2017-7-27T9:40:3Z</time></trkpt>
<trkpt lat="46.3251644264630968" lon="7.4963343143463135"><ele></ele><time>2017-7-27T9:40:6Z</time></trkpt>
<trkpt lat="46.3249569752822552" lon="7.4966132640838623"><ele></ele><time>2017-7-27T9:40:9Z</time></trkpt>
<trkpt lat="46.3247717503488587" lon="7.4973106384277344"><ele></ele><time>2017-7-27T9:40:12Z</time></trkpt>
<trkpt lat="46.3248310223957773" lon="7.4977076053619385"><ele></ele><time>2017-7-27T9:40:15Z</time></trkpt>
<trkpt lat="46.3248532493968028" lon="7.4980401992797852"><ele></ele><time>2017-7-27T9:40:18Z</time></trkpt>
<trkpt lat="46.3248606583951812" lon="7.4984049797058105"><ele></ele><time>2017-7-27T9:40:21Z</time></trkpt>
<trkpt lat="46.3251125637416408" lon="7.4985337257385254"><ele></ele><time>2017-7-27T9:40:24Z</time></trkpt>
<trkpt lat="46.3255200552286155" lon="7.4984478950500488"><ele></ele><time>2017-7-27T9:40:27Z</time></trkpt>
<trkpt lat="46.3258534550965706" lon="7.4985444545745850"><ele></ele><time>2017-7-27T9:40:30Z</time></trkpt>
<trkpt lat="46.3260979470416885" lon="7.4988770484924316"><ele></ele><time>2017-7-27T9:40:33Z</time></trkpt>
<trkpt lat="46.3264165258153966" lon="7.4989950656890869"><ele></ele><time>2017-7-27T9:40:36Z</time></trkpt>
<trkpt lat="46.3265943364172017" lon="7.4991023540496826"><ele></ele><time>2017-7-27T9:40:39Z</time></trkpt>
<trkpt lat="46.3266461977338508" lon="7.4995100498199463"><ele></ele><time>2017-7-27T9:40:42Z</time></trkpt>
<trkpt lat="46.3268165988567233" lon="7.4999070167541504"><ele></ele><time>2017-7-27T9:40:45Z</time></trkpt>
<trkpt lat="46.3269055035796384" lon="7.4999284744262695"><ele></ele><time>2017-7-27T9:40:48Z</time></trkpt>
<trkpt lat="46.3270166342801346" lon="7.4996173381805420"><ele></ele><time>2017-7-27T9:40:51Z</time></trkpt>
<trkpt lat="46.3270833125920518" lon="7.4993276596069336"><ele></ele><time>2017-7-27T9:40:54Z</time></trkpt>
<trkpt lat="46.3271351734451287" lon="7.4990487098693848"><ele></ele><time>2017-7-27T9:40:57Z</time></trkpt>
<trkpt lat="46.3272018516125144" lon="7.4988663196563721"><ele></ele><time>2017-7-27T9:41:0Z</time></trkpt>
<trkpt lat="46.3273500250269237" lon="7.4988770484924316"><ele></ele><time>2017-7-27T9:41:3Z</time></trkpt>
<trkpt lat="46.3275352412304855" lon="7.4992096424102783"><ele></ele><time>2017-7-27T9:41:6Z</time></trkpt>
<trkpt lat="46.3276834137417595" lon="7.4995422363281250"><ele></ele><time>2017-7-27T9:41:9Z</time></trkpt>
<trkpt lat="46.3277130481958750" lon="7.5002503395080566"><ele></ele><time>2017-7-27T9:41:12Z</time></trkpt>
<trkpt lat="46.3278464030406312" lon="7.5008618831634521"><ele></ele><time>2017-7-27T9:41:15Z</time></trkpt>
<trkpt lat="46.3281427459760948" lon="7.5015163421630859"><ele></ele><time>2017-7-27T9:41:18Z</time></trkpt>
<trkpt lat="46.3282612827007441" lon="7.5022351741790771"><ele></ele><time>2017-7-27T9:41:21Z</time></trkpt>
<trkpt lat="46.3285205808903697" lon="7.5032114982604980"><ele></ele><time>2017-7-27T9:41:24Z</time></trkpt>
<trkpt lat="46.3286909761742720" lon="7.5039303302764893"><ele></ele><time>2017-7-27T9:41:27Z</time></trkpt>
<trkpt lat="46.3290836241553876" lon="7.5043916702270508"><ele></ele><time>2017-7-27T9:41:30Z</time></trkpt>
<trkpt lat="46.3293355100554436" lon="7.5052821636199951"><ele></ele><time>2017-7-27T9:41:33Z</time></trkpt>
<trkpt lat="46.3292169756587313" lon="7.5054001808166504"><ele></ele><time>2017-7-27T9:41:36Z</time></trkpt>
<trkpt lat="46.3289428638825029" lon="7.5050890445709229"><ele></ele><time>2017-7-27T9:41:39Z</time></trkpt>
<trkpt lat="46.3287391312669783" lon="7.5047296285629272"><ele></ele><time>2017-7-27T9:41:42Z</time></trkpt>
<trkpt lat="46.3285205808903697" lon="7.5044479966163635"><ele></ele><time>2017-7-27T9:41:45Z</time></trkpt>
<trkpt lat="46.3283520372069333" lon="7.5042790174484253"><ele></ele><time>2017-7-27T9:41:48Z</time></trkpt>
<trkpt lat="46.3281668237691022" lon="7.5039383769035339"><ele></ele><time>2017-7-27T9:41:51Z</time></trkpt>
<trkpt lat="46.3279667925518055" lon="7.5037103891372681"><ele></ele><time>2017-7-27T9:41:54Z</time></trkpt>
<trkpt lat="46.3277371261780004" lon="7.5034877657890320"><ele></ele><time>2017-7-27T9:41:57Z</time></trkpt>
<trkpt lat="46.3276852658956457" lon="7.5035199522972107"><ele></ele><time>2017-7-27T9:42:0Z</time></trkpt>
<trkpt lat="46.3276685965087154" lon="7.5035762786865234"><ele></ele><time>2017-7-27T9:42:3Z</time></trkpt>
<trkpt lat="46.3277297175692340" lon="7.5037935376167297"><ele></ele><time>2017-7-27T9:42:6Z</time></trkpt>
<trkpt lat="46.3278371422980300" lon="7.5040537118911743"><ele></ele><time>2017-7-27T9:42:9Z</time></trkpt>
<trkpt lat="46.3277815778094819" lon="7.5041288137435913"><ele></ele><time>2017-7-27T9:42:12Z</time></trkpt>
<trkpt lat="46.3276185883174634" lon="7.5040858983993530"><ele></ele><time>2017-7-27T9:42:15Z</time></trkpt>
<trkpt lat="46.3274259637462293" lon="7.5039893388748169"><ele></ele><time>2017-7-27T9:42:18Z</time></trkpt>
<trkpt lat="46.3273148338773524" lon="7.5037854909896851"><ele></ele><time>2017-7-27T9:42:21Z</time></trkpt>
<trkpt lat="46.3272240776502713" lon="7.5035923719406128"><ele></ele><time>2017-7-27T9:42:24Z</time></trkpt>
<trkpt lat="46.3271499908226687" lon="7.5033885240554810"><ele></ele><time>2017-7-27T9:42:27Z</time></trkpt>
<trkpt lat="46.3270870169403253" lon="7.5033938884735107"><ele></ele><time>2017-7-27T9:42:30Z</time></trkpt>
<trkpt lat="46.3271759212237626" lon="7.5038364529609680"><ele></ele><time>2017-7-27T9:42:33Z</time></trkpt>
<trkpt lat="46.3272092602927827" lon="7.5040617585182190"><ele></ele><time>2017-7-27T9:42:36Z</time></trkpt>
<trkpt lat="46.3273555815221556" lon="7.5042682886123657"><ele></ele><time>2017-7-27T9:42:39Z</time></trkpt>
<trkpt lat="46.3275352412304855" lon="7.5042897462844849"><ele></ele><time>2017-7-27T9:42:42Z</time></trkpt>
<trkpt lat="46.3276574835812696" lon="7.5043380260467529"><ele></ele><time>2017-7-27T9:42:45Z</time></trkpt>
<trkpt lat="46.3277223089594798" lon="7.5044775009155273"><ele></ele><time>2017-7-27T9:42:48Z</time></trkpt>
<trkpt lat="46.3277519433925207" lon="7.5046759843826294"><ele></ele><time>2017-7-27T9:42:51Z</time></trkpt>
<trkpt lat="46.3278426987437797" lon="7.5049442052841187"><ele></ele><time>2017-7-27T9:42:54Z</time></trkpt>
<trkpt lat="46.3280112439966274" lon="7.5052124261856079"><ele></ele><time>2017-7-27T9:42:57Z</time></trkpt>
<trkpt lat="46.3281205203116428" lon="7.5054350495338440"><ele></ele><time>2017-7-27T9:43:0Z</time></trkpt>
<trkpt lat="46.3282890647084287" lon="7.5059339404106140"><ele></ele><time>2017-7-27T9:43:3Z</time></trkpt>
<trkpt lat="46.3286798634545534" lon="7.5071302056312561"><ele></ele><time>2017-7-27T9:43:6Z</time></trkpt>
<trkpt lat="46.3289224906550956" lon="7.5076371431350708"><ele></ele><time>2017-7-27T9:43:9Z</time></trkpt>
<trkpt lat="46.3291651167794143" lon="7.5078329443931580"><ele></ele><time>2017-7-27T9:43:12Z</time></trkpt>
<trkpt lat="46.3295762822579107" lon="7.5079321861267090"><ele></ele><time>2017-7-27T9:43:15Z</time></trkpt>
<trkpt lat="46.3299096574039524" lon="7.5081199407577515"><ele></ele><time>2017-7-27T9:43:18Z</time></trkpt>
<trkpt lat="46.3305115796044689" lon="7.5079885125160217"><ele></ele><time>2017-7-27T9:43:21Z</time></trkpt>
<trkpt lat="46.3307301220258339" lon="7.5080636143684387"><ele></ele><time>2017-7-27T9:43:24Z</time></trkpt>
<trkpt lat="46.3309505156172321" lon="7.5082996487617493"><ele></ele><time>2017-7-27T9:43:27Z</time></trkpt>
<trkpt lat="46.3310449697416828" lon="7.5083747506141663"><ele></ele><time>2017-7-27T9:43:30Z</time></trkpt>
<trkpt lat="46.3312912905145424" lon="7.5084820389747620"><ele></ele><time>2017-7-27T9:43:33Z</time></trkpt>
<trkpt lat="46.3316339153087711" lon="7.5087261199951172"><ele></ele><time>2017-7-27T9:43:36Z</time></trkpt>
<trkpt lat="46.3317783726868626" lon="7.5087770819664001"><ele></ele><time>2017-7-27T9:43:39Z</time></trkpt>
<trkpt lat="46.3326228851078881" lon="7.5087851285934448"><ele></ele><time>2017-7-27T9:43:42Z</time></trkpt>
<trkpt lat="46.3328136393975356" lon="7.5086081027984619"><ele></ele><time>2017-7-27T9:43:45Z</time></trkpt>
<trkpt lat="46.3332636687260404" lon="7.5086054205894470"><ele></ele><time>2017-7-27T9:43:48Z</time></trkpt>
<trkpt lat="46.3333970100381549" lon="7.5085383653640747"><ele></ele><time>2017-7-27T9:43:51Z</time></trkpt>
<trkpt lat="46.3336377643615620" lon="7.5082567334175110"><ele></ele><time>2017-7-27T9:43:54Z</time></trkpt>
<trkpt lat="46.3340729714103716" lon="7.5082218647003174"><ele></ele><time>2017-7-27T9:43:57Z</time></trkpt>
<trkpt lat="46.3344896557648624" lon="7.5083640217781067"><ele></ele><time>2017-7-27T9:44:0Z</time></trkpt>
<trkpt lat="46.3346785516263893" lon="7.5083103775978088"><ele></ele><time>2017-7-27T9:44:3Z</time></trkpt>
<trkpt lat="46.3348600391924279" lon="7.5084203481674194"><ele></ele><time>2017-7-27T9:44:6Z</time></trkpt>
<trkpt lat="46.3349063369445062" lon="7.5085276365280151"><ele></ele><time>2017-7-27T9:44:9Z</time></trkpt>
<trkpt lat="46.3348841140284051" lon="7.5087341666221619"><ele></ele><time>2017-7-27T9:44:12Z</time></trkpt>
<trkpt lat="46.3347378129386769" lon="7.5093725323677063"><ele></ele><time>2017-7-27T9:44:15Z</time></trkpt>
<trkpt lat="46.3347507763421689" lon="7.5095254182815552"><ele></ele><time>2017-7-27T9:44:18Z</time></trkpt>
<trkpt lat="46.3348396681691170" lon="7.5100055336952209"><ele></ele><time>2017-7-27T9:44:21Z</time></trkpt>
<trkpt lat="46.3347989260997011" lon="7.5103729963302612"><ele></ele><time>2017-7-27T9:44:24Z</time></trkpt>
<trkpt lat="46.3346007710565431" lon="7.5105902552604675"><ele></ele><time>2017-7-27T9:44:27Z</time></trkpt>
<trkpt lat="46.3343655767556797" lon="7.5108638405799866"><ele></ele><time>2017-7-27T9:44:30Z</time></trkpt>
<trkpt lat="46.3342211262112755" lon="7.5111481547355652"><ele></ele><time>2017-7-27T9:44:33Z</time></trkpt>
<trkpt lat="46.3341303814433516" lon="7.5113010406494141"><ele></ele><time>2017-7-27T9:44:36Z</time></trkpt>
<trkpt lat="46.3339211123229120" lon="7.5113895535469055"><ele></ele><time>2017-7-27T9:44:39Z</time></trkpt>
<trkpt lat="46.3337081385020397" lon="7.5114405155181885"><ele></ele><time>2017-7-27T9:44:42Z</time></trkpt>
<trkpt lat="46.3334970158088595" lon="7.5116872787475586"><ele></ele><time>2017-7-27T9:44:45Z</time></trkpt>
<trkpt lat="46.3331229192106022" lon="7.5122129917144775"><ele></ele><time>2017-7-27T9:44:48Z</time></trkpt>
<trkpt lat="46.3330784719199187" lon="7.5123578310012817"><ele></ele><time>2017-7-27T9:44:51Z</time></trkpt>
<trkpt lat="46.3331173633012270" lon="7.5125321745872498"><ele></ele><time>2017-7-27T9:44:54Z</time></trkpt>
<trkpt lat="46.3332933001568463" lon="7.5129371881484985"><ele></ele><time>2017-7-27T9:44:57Z</time></trkpt>
<trkpt lat="46.3334229374777422" lon="7.5136452913284302"><ele></ele><time>2017-7-27T9:45:0Z</time></trkpt>
<trkpt lat="46.3333840463137250" lon="7.5138303637504578"><ele></ele><time>2017-7-27T9:45:3Z</time></trkpt>
<trkpt lat="46.3333377472729069" lon="7.5142514705657959"><ele></ele><time>2017-7-27T9:45:6Z</time></trkpt>
<trkpt lat="46.3333414511976045" lon="7.5145760178565979"><ele></ele><time>2017-7-27T9:45:9Z</time></trkpt>
<trkpt lat="46.3333858982745568" lon="7.5148308277130127"><ele></ele><time>2017-7-27T9:45:12Z</time></trkpt>
<trkpt lat="46.3337359177430983" lon="7.5150668621063232"><ele></ele><time>2017-7-27T9:45:15Z</time></trkpt>
<trkpt lat="46.3340081535587416" lon="7.5153592228889465"><ele></ele><time>2017-7-27T9:45:18Z</time></trkpt>
<trkpt lat="46.3343266862620524" lon="7.5159573554992676"><ele></ele><time>2017-7-27T9:45:21Z</time></trkpt>
<trkpt lat="46.3347581839999307" lon="7.5168102979660034"><ele></ele><time>2017-7-27T9:45:24Z</time></trkpt>
<trkpt lat="46.3348711506565110" lon="7.5169980525970459"><ele></ele><time>2017-7-27T9:45:27Z</time></trkpt>
<trkpt lat="46.3351304175105412" lon="7.5171965360641479"><ele></ele><time>2017-7-27T9:45:30Z</time></trkpt>
<trkpt lat="46.3352396796022958" lon="7.5175023078918457"><ele></ele><time>2017-7-27T9:45:33Z</time></trkpt>
<trkpt lat="46.3353711642029680" lon="7.5177222490310669"><ele></ele><time>2017-7-27T9:45:36Z</time></trkpt>
<trkpt lat="46.3354174615223116" lon="7.5180682539939880"><ele></ele><time>2017-7-27T9:45:39Z</time></trkpt>
<trkpt lat="46.3355100560434110" lon="7.5182747840881348"><ele></ele><time>2017-7-27T9:45:42Z</time></trkpt>
<trkpt lat="46.3356841333186225" lon="7.5184437632560730"><ele></ele><time>2017-7-27T9:45:45Z</time></trkpt>
<trkpt lat="46.3358582100396887" lon="7.5186046957969666"><ele></ele><time>2017-7-27T9:45:48Z</time></trkpt>
<trkpt lat="46.3360341380777925" lon="7.5189024209976196"><ele></ele><time>2017-7-27T9:45:51Z</time></trkpt>
<trkpt lat="46.3361711763679338" lon="7.5192403793334961"><ele></ele><time>2017-7-27T9:45:54Z</time></trkpt>
<trkpt lat="46.3362471028402965" lon="7.5195112824440002"><ele></ele><time>2017-7-27T9:45:57Z</time></trkpt>
<trkpt lat="46.3363582145610522" lon="7.5200369954109192"><ele></ele><time>2017-7-27T9:46:0Z</time></trkpt>
<trkpt lat="46.3364452519179792" lon="7.5201120972633362"><ele></ele><time>2017-7-27T9:46:3Z</time></trkpt>
<trkpt lat="46.3366785854253251" lon="7.5202488899230957"><ele></ele><time>2017-7-27T9:46:6Z</time></trkpt>
<trkpt lat="46.3368489552938456" lon="7.5206324458122253"><ele></ele><time>2017-7-27T9:46:9Z</time></trkpt>
<trkpt lat="46.3369415473910777" lon="7.5207021832466125"><ele></ele><time>2017-7-27T9:46:12Z</time></trkpt>
<trkpt lat="46.3371471012865328" lon="7.5206726789474487"><ele></ele><time>2017-7-27T9:46:15Z</time></trkpt>
<trkpt lat="46.3373322843145203" lon="7.5206753611564636"><ele></ele><time>2017-7-27T9:46:18Z</time></trkpt>
<trkpt lat="46.3375230221776988" lon="7.5209301710128784"><ele></ele><time>2017-7-27T9:46:21Z</time></trkpt>
<trkpt lat="46.3378878296356618" lon="7.5214451551437378"><ele></ele><time>2017-7-27T9:46:24Z</time></trkpt>
<trkpt lat="46.3380137524571296" lon="7.5215309858322144"><ele></ele><time>2017-7-27T9:46:27Z</time></trkpt>
<trkpt lat="46.3382304131035667" lon="7.5216543674468994"><ele></ele><time>2017-7-27T9:46:30Z</time></trkpt>
<trkpt lat="46.3383026331282863" lon="7.5217723846435547"><ele></ele><time>2017-7-27T9:46:33Z</time></trkpt>
<trkpt lat="46.3383230028616069" lon="7.5219091773033142"><ele></ele><time>2017-7-27T9:46:36Z</time></trkpt>
<trkpt lat="46.3382804115923932" lon="7.5220352411270142"><ele></ele><time>2017-7-27T9:46:39Z</time></trkpt>
<trkpt lat="46.3382248577131008" lon="7.5222390890121460"><ele></ele><time>2017-7-27T9:46:42Z</time></trkpt>
<trkpt lat="46.3382526346598169" lon="7.5224053859710693"><ele></ele><time>2017-7-27T9:46:45Z</time></trkpt>
<trkpt lat="46.3383137438928543" lon="7.5225287675857544"><ele></ele><time>2017-7-27T9:46:48Z</time></trkpt>
<trkpt lat="46.3384526282594464" lon="7.5226441025733948"><ele></ele><time>2017-7-27T9:46:51Z</time></trkpt>
<trkpt lat="46.3387266923746068" lon="7.5226977467536926"><ele></ele><time>2017-7-27T9:46:54Z</time></trkpt>
<trkpt lat="46.3390526046694333" lon="7.5227406620979309"><ele></ele><time>2017-7-27T9:46:57Z</time></trkpt>
<trkpt lat="46.3391711177495509" lon="7.5227057933807373"><ele></ele><time>2017-7-27T9:47:0Z</time></trkpt>
<trkpt lat="46.3392451882941643" lon="7.5227540731430054"><ele></ele><time>2017-7-27T9:47:3Z</time></trkpt>
<trkpt lat="46.3393044446576425" lon="7.5229096412658691"><ele></ele><time>2017-7-27T9:47:6Z</time></trkpt>
<trkpt lat="46.3393451833702485" lon="7.5231456756591797"><ele></ele><time>2017-7-27T9:47:9Z</time></trkpt>
<trkpt lat="46.3395322107068566" lon="7.5233656167984009"><ele></ele><time>2017-7-27T9:47:12Z</time></trkpt>
<trkpt lat="46.3395766527521786" lon="7.5234916806221008"><ele></ele><time>2017-7-27T9:47:15Z</time></trkpt>
<trkpt lat="46.3396192430117253" lon="7.5236740708351135"><ele></ele><time>2017-7-27T9:47:18Z</time></trkpt>
<trkpt lat="46.3396210947613696" lon="7.5238484144210815"><ele></ele><time>2017-7-27T9:47:21Z</time></trkpt>
<trkpt lat="46.3395655422442232" lon="7.5239396095275879"><ele></ele><time>2017-7-27T9:47:24Z</time></trkpt>
<trkpt lat="46.3394322159727992" lon="7.5240361690521240"><ele></ele><time>2017-7-27T9:47:27Z</time></trkpt>
<trkpt lat="46.3393414798521803" lon="7.5241219997406006"><ele></ele><time>2017-7-27T9:47:30Z</time></trkpt>
<trkpt lat="46.3392433365317729" lon="7.5242426991462708"><ele></ele><time>2017-7-27T9:47:33Z</time></trkpt>
<trkpt lat="46.3392470400564846" lon="7.5244063138961792"><ele></ele><time>2017-7-27T9:47:36Z</time></trkpt>
<trkpt lat="46.3393396280930432" lon="7.5244921445846558"><ele></ele><time>2017-7-27T9:47:39Z</time></trkpt>
<trkpt lat="46.3395470247259667" lon="7.5245243310928345"><ele></ele><time>2017-7-27T9:47:42Z</time></trkpt>
<trkpt lat="46.3397507170818699" lon="7.5246128439903259"><ele></ele><time>2017-7-27T9:47:45Z</time></trkpt>
<trkpt lat="46.3398673769076126" lon="7.5247308611869812"><ele></ele><time>2017-7-27T9:47:48Z</time></trkpt>
<trkpt lat="46.3398970047602106" lon="7.5249025225639343"><ele></ele><time>2017-7-27T9:47:51Z</time></trkpt>
<trkpt lat="46.3398284903266813" lon="7.5251224637031555"><ele></ele><time>2017-7-27T9:47:54Z</time></trkpt>
<trkpt lat="46.3397340513721758" lon="7.5252968072891235"><ele></ele><time>2017-7-27T9:47:57Z</time></trkpt>
<trkpt lat="46.3396285017593996" lon="7.5255221128463745"><ele></ele><time>2017-7-27T9:48:0Z</time></trkpt>
<trkpt lat="46.3395562834858836" lon="7.5256857275962830"><ele></ele><time>2017-7-27T9:48:3Z</time></trkpt>
<trkpt lat="46.3395433212215622" lon="7.5258278846740723"><ele></ele><time>2017-7-27T9:48:6Z</time></trkpt>
<trkpt lat="46.3395636904926889" lon="7.5259727239608765"><ele></ele><time>2017-7-27T9:48:9Z</time></trkpt>
<trkpt lat="46.3396470192500587" lon="7.5261846184730530"><ele></ele><time>2017-7-27T9:48:12Z</time></trkpt>
<trkpt lat="46.3397896037181027" lon="7.5263535976409912"><ele></ele><time>2017-7-27T9:48:15Z</time></trkpt>
<trkpt lat="46.3399729260592466" lon="7.5265252590179443"><ele></ele><time>2017-7-27T9:48:18Z</time></trkpt>
<trkpt lat="46.3400858819432031" lon="7.5266540050506592"><ele></ele><time>2017-7-27T9:48:21Z</time></trkpt>
<trkpt lat="46.3401488408592144" lon="7.5268203020095825"><ele></ele><time>2017-7-27T9:48:24Z</time></trkpt>
<trkpt lat="46.3401506925909246" lon="7.5270241498947144"><ele></ele><time>2017-7-27T9:48:27Z</time></trkpt>
<trkpt lat="46.3401247683410489" lon="7.5272628664970398"><ele></ele><time>2017-7-27T9:48:30Z</time></trkpt>
<trkpt lat="46.3400729198044203" lon="7.5276732444763184"><ele></ele><time>2017-7-27T9:48:33Z</time></trkpt>
<trkpt lat="46.3401025475456763" lon="7.5279280543327332"><ele></ele><time>2017-7-27T9:48:36Z</time></trkpt>
<trkpt lat="46.3401562477857425" lon="7.5282043218612671"><ele></ele><time>2017-7-27T9:48:39Z</time></trkpt>
<trkpt lat="46.3401266200735975" lon="7.5284779071807861"><ele></ele><time>2017-7-27T9:48:42Z</time></trkpt>
<trkpt lat="46.3402729067462218" lon="7.5290626287460327"><ele></ele><time>2017-7-27T9:48:45Z</time></trkpt>
<trkpt lat="46.3402914240186519" lon="7.5294971466064453"><ele></ele><time>2017-7-27T9:48:48Z</time></trkpt>
<trkpt lat="46.3402900000000031" lon="7.5295000000000005"><ele></ele><time>2017-7-27T9:48:51Z</time></trkpt>
<trkpt lat="46.3402800000000070" lon="7.5296300000000009"><ele></ele><time>2017-7-27T9:48:54Z</time></trkpt>
<trkpt lat="46.3402700000000038" lon="7.5297700000000010"><ele></ele><time>2017-7-27T9:48:57Z</time></trkpt>
<trkpt lat="46.3402800000000070" lon="7.5301200000000010"><ele></ele><time>2017-7-27T9:49:0Z</time></trkpt>
<trkpt lat="46.3403000000000063" lon="7.5301700000000009"><ele></ele><time>2017-7-27T9:49:3Z</time></trkpt>
<trkpt lat="46.3403100000000023" lon="7.5302200000000008"><ele></ele><time>2017-7-27T9:49:6Z</time></trkpt>
<trkpt lat="46.3404000000000025" lon="7.5303500000000003"><ele></ele><time>2017-7-27T9:49:9Z</time></trkpt>
<trkpt lat="46.3405100000000019" lon="7.5304900000000004"><ele></ele><time>2017-7-27T9:49:12Z</time></trkpt>
<trkpt lat="46.3406400000000005" lon="7.5306300000000004"><ele></ele><time>2017-7-27T9:49:15Z</time></trkpt>
<trkpt lat="46.3407800000000023" lon="7.5308400000000004"><ele></ele><time>2017-7-27T9:49:18Z</time></trkpt>
<trkpt lat="46.3408000000000015" lon="7.5309000000000008"><ele></ele><time>2017-7-27T9:49:21Z</time></trkpt>
<trkpt lat="46.3408300000000040" lon="7.5309900000000010"><ele></ele><time>2017-7-27T9:49:24Z</time></trkpt>
<trkpt lat="46.3408500000000032" lon="7.5311000000000003"><ele></ele><time>2017-7-27T9:49:27Z</time></trkpt>
<trkpt lat="46.3408800000000056" lon="7.5312300000000008"><ele></ele><time>2017-7-27T9:49:30Z</time></trkpt>
<trkpt lat="46.3409900000000050" lon="7.5314000000000005"><ele></ele><time>2017-7-27T9:49:33Z</time></trkpt>
<trkpt lat="46.3411500000000061" lon="7.5315100000000008"><ele></ele><time>2017-7-27T9:49:36Z</time></trkpt>
<trkpt lat="46.3412900000000008" lon="7.5316600000000005"><ele></ele><time>2017-7-27T9:49:39Z</time></trkpt>
<trkpt lat="46.3414200000000065" lon="7.5318400000000008"><ele></ele><time>2017-7-27T9:49:42Z</time></trkpt>
<trkpt lat="46.3415100000000066" lon="7.5320400000000003"><ele></ele><time>2017-7-27T9:49:45Z</time></trkpt>
<trkpt lat="46.3416200000000060" lon="7.5322800000000010"><ele></ele><time>2017-7-27T9:49:48Z</time></trkpt>
<trkpt lat="46.3416300000000021" lon="7.5322900000000006"><ele></ele><time>2017-7-27T9:49:51Z</time></trkpt>
<trkpt lat="46.3418000000000063" lon="7.5326600000000008"><ele></ele><time>2017-7-27T9:49:54Z</time></trkpt>
<trkpt lat="46.3418700000000072" lon="7.5327900000000003"><ele></ele><time>2017-7-27T9:49:57Z</time></trkpt>
<trkpt lat="46.3420900000000060" lon="7.5330600000000008"><ele></ele><time>2017-7-27T9:50:0Z</time></trkpt>
<trkpt lat="46.3422100000000015" lon="7.5333200000000007"><ele></ele><time>2017-7-27T9:50:3Z</time></trkpt>
<trkpt lat="46.3423300000000040" lon="7.5335000000000010"><ele></ele><time>2017-7-27T9:50:6Z</time></trkpt>
<trkpt lat="46.3425400000000067" lon="7.5337100000000010"><ele></ele><time>2017-7-27T9:50:9Z</time></trkpt>
<trkpt lat="46.3427900000000008" lon="7.5339300000000007"><ele></ele><time>2017-7-27T9:50:12Z</time></trkpt>
<trkpt lat="46.3430800000000005" lon="7.5341100000000010"><ele></ele><time>2017-7-27T9:50:15Z</time></trkpt>
<trkpt lat="46.3433100000000024" lon="7.5342900000000004"><ele></ele><time>2017-7-27T9:50:18Z</time></trkpt>
<trkpt lat="46.3435200000000052" lon="7.5344300000000004"><ele></ele><time>2017-7-27T9:50:21Z</time></trkpt>
<trkpt lat="46.3437800000000024" lon="7.5346500000000010"><ele></ele><time>2017-7-27T9:50:24Z</time></trkpt>
<trkpt lat="46.3439400000000035" lon="7.5348300000000004"><ele></ele><time>2017-7-27T9:50:27Z</time></trkpt>
<trkpt lat="46.3439500000000066" lon="7.5348400000000009"><ele></ele><time>2017-7-27T9:50:30Z</time></trkpt>
<trkpt lat="46.3440000000000012" lon="7.5348600000000010"><ele></ele><time>2017-7-27T9:50:33Z</time></trkpt>
<trkpt lat="46.3440500000000029" lon="7.5348700000000006"><ele></ele><time>2017-7-27T9:50:36Z</time></trkpt>
<trkpt lat="46.3441600000000022" lon="7.5348800000000002"><ele></ele><time>2017-7-27T9:50:39Z</time></trkpt>
<trkpt lat="46.3442900000000009" lon="7.5349200000000005"><ele></ele><time>2017-7-27T9:50:42Z</time></trkpt>
<trkpt lat="46.3444200000000066" lon="7.5349700000000004"><ele></ele><time>2017-7-27T9:50:45Z</time></trkpt>
<trkpt lat="46.3446300000000022" lon="7.5349200000000005"><ele></ele><time>2017-7-27T9:50:48Z</time></trkpt>
<trkpt lat="46.3448100000000025" lon="7.5348900000000008"><ele></ele><time>2017-7-27T9:50:51Z</time></trkpt>
<trkpt lat="46.3448900000000066" lon="7.5349300000000010"><ele></ele><time>2017-7-27T9:50:54Z</time></trkpt>
<trkpt lat="46.3449300000000051" lon="7.5349500000000003"><ele></ele><time>2017-7-27T9:50:57Z</time></trkpt>
<trkpt lat="46.3449700000000036" lon="7.5349800000000009"><ele></ele><time>2017-7-27T9:51:0Z</time></trkpt>
<trkpt lat="46.3450300000000013" lon="7.5350900000000003"><ele></ele><time>2017-7-27T9:51:3Z</time></trkpt>
<trkpt lat="46.3450900000000061" lon="7.5351800000000004"><ele></ele><time>2017-7-27T9:51:6Z</time></trkpt>
<trkpt lat="46.3452000000000055" lon="7.5352600000000010"><ele></ele><time>2017-7-27T9:51:9Z</time></trkpt>
<trkpt lat="46.3453600000000066" lon="7.5353500000000002"><ele></ele><time>2017-7-27T9:51:12Z</time></trkpt>
<trkpt lat="46.3455700000000022" lon="7.5354800000000006"><ele></ele><time>2017-7-27T9:51:15Z</time></trkpt>
<trkpt lat="46.3457600000000056" lon="7.5355900000000009"><ele></ele><time>2017-7-27T9:51:18Z</time></trkpt>
<trkpt lat="46.3458600000000018" lon="7.5356500000000004"><ele></ele><time>2017-7-27T9:51:21Z</time></trkpt>
<trkpt lat="46.3459200000000067" lon="7.5356700000000005"><ele></ele><time>2017-7-27T9:51:24Z</time></trkpt>
<trkpt lat="46.3461300000000023" lon="7.5356500000000004"><ele></ele><time>2017-7-27T9:51:27Z</time></trkpt>
<trkpt lat="46.3463300000000018" lon="7.5356600000000009"><ele></ele><time>2017-7-27T9:51:30Z</time></trkpt>
<trkpt lat="46.3464000000000027" lon="7.5356900000000007"><ele></ele><time>2017-7-27T9:51:33Z</time></trkpt>
<trkpt lat="46.3464500000000044" lon="7.5357300000000009"><ele></ele><time>2017-7-27T9:51:36Z</time></trkpt>
<trkpt lat="46.3465000000000060" lon="7.5357700000000003"><ele></ele><time>2017-7-27T9:51:39Z</time></trkpt>
<trkpt lat="46.3465900000000062" lon="7.5358400000000003"><ele></ele><time>2017-7-27T9:51:42Z</time></trkpt>
<trkpt lat="46.3467500000000072" lon="7.5360000000000005"><ele></ele><time>2017-7-27T9:51:45Z</time></trkpt>
<trkpt lat="46.3468600000000066" lon="7.5361400000000005"><ele></ele><time>2017-7-27T9:51:48Z</time></trkpt>
<trkpt lat="46.3470200000000006" lon="7.5362600000000004"><ele></ele><time>2017-7-27T9:51:51Z</time></trkpt>
<trkpt lat="46.3471700000000055" lon="7.5363300000000004"><ele></ele><time>2017-7-27T9:51:54Z</time></trkpt>
<trkpt lat="46.3472300000000033" lon="7.5363500000000005"><ele></ele><time>2017-7-27T9:51:57Z</time></trkpt>
<trkpt lat="46.3472800000000049" lon="7.5363400000000009"><ele></ele><time>2017-7-27T9:52:0Z</time></trkpt>
<trkpt lat="46.3472900000000010" lon="7.5363300000000004"><ele></ele><time>2017-7-27T9:52:3Z</time></trkpt>
<trkpt lat="46.3473100000000073" lon="7.5362700000000009"><ele></ele><time>2017-7-27T9:52:6Z</time></trkpt>
<trkpt lat="46.3473400000000026" lon="7.5361700000000003"><ele></ele><time>2017-7-27T9:52:9Z</time></trkpt>
<trkpt lat="46.3473900000000043" lon="7.5359700000000007"><ele></ele><time>2017-7-27T9:52:12Z</time></trkpt>
<trkpt lat="46.3474300000000028" lon="7.5358300000000007"><ele></ele><time>2017-7-27T9:52:15Z</time></trkpt>
<trkpt lat="46.3474500000000020" lon="7.5357500000000011"><ele></ele><time>2017-7-27T9:52:18Z</time></trkpt>
<trkpt lat="46.3474400000000060" lon="7.5355900000000009"><ele></ele><time>2017-7-27T9:52:21Z</time></trkpt>
<trkpt lat="46.3474200000000067" lon="7.5355400000000010"><ele></ele><time>2017-7-27T9:52:24Z</time></trkpt>
<trkpt lat="46.3473900000000043" lon="7.5354900000000002"><ele></ele><time>2017-7-27T9:52:27Z</time></trkpt>
<trkpt lat="46.3473600000000019" lon="7.5354200000000002"><ele></ele><time>2017-7-27T9:52:30Z</time></trkpt>
<trkpt lat="46.3473400000000026" lon="7.5353700000000003"><ele></ele><time>2017-7-27T9:52:33Z</time></trkpt>
<trkpt lat="46.3473300000000066" lon="7.5353200000000005"><ele></ele><time>2017-7-27T9:52:36Z</time></trkpt>
<trkpt lat="46.3473400000000026" lon="7.5352500000000004"><ele></ele><time>2017-7-27T9:52:39Z</time></trkpt>
<trkpt lat="46.3473500000000058" lon="7.5352200000000007"><ele></ele><time>2017-7-27T9:52:42Z</time></trkpt>
<trkpt lat="46.3473700000000051" lon="7.5351900000000009"><ele></ele><time>2017-7-27T9:52:45Z</time></trkpt>
<trkpt lat="46.3474100000000035" lon="7.5351700000000008"><ele></ele><time>2017-7-27T9:52:48Z</time></trkpt>
<trkpt lat="46.3474500000000020" lon="7.5351400000000011"><ele></ele><time>2017-7-27T9:52:51Z</time></trkpt>
<trkpt lat="46.3477600000000010" lon="7.5351800000000004"><ele></ele><time>2017-7-27T9:52:54Z</time></trkpt>
<trkpt lat="46.3478600000000043" lon="7.5352300000000003"><ele></ele><time>2017-7-27T9:52:57Z</time></trkpt>
<trkpt lat="46.3479000000000028" lon="7.5352600000000010"><ele></ele><time>2017-7-27T9:53:0Z</time></trkpt>
<trkpt lat="46.3479200000000020" lon="7.5352700000000006"><ele></ele><time>2017-7-27T9:53:3Z</time></trkpt>
<trkpt lat="46.3479400000000012" lon="7.5352800000000002"><ele></ele><time>2017-7-27T9:53:6Z</time></trkpt>
<trkpt lat="46.3479500000000044" lon="7.5353500000000002"><ele></ele><time>2017-7-27T9:53:9Z</time></trkpt>
<trkpt lat="46.3479700000000037" lon="7.5354500000000009"><ele></ele><time>2017-7-27T9:53:12Z</time></trkpt>
<trkpt lat="46.3480000000000061" lon="7.5355600000000003"><ele></ele><time>2017-7-27T9:53:15Z</time></trkpt>
<trkpt lat="46.3480300000000014" lon="7.5356300000000003"><ele></ele><time>2017-7-27T9:53:18Z</time></trkpt>
<trkpt lat="46.3480600000000038" lon="7.5356900000000007"><ele></ele><time>2017-7-27T9:53:21Z</time></trkpt>
<trkpt lat="46.3480800000000031" lon="7.5357400000000005"><ele></ele><time>2017-7-27T9:53:24Z</time></trkpt>
<trkpt lat="46.3480900000000062" lon="7.5357800000000008"><ele></ele><time>2017-7-27T9:53:27Z</time></trkpt>
<trkpt lat="46.3481000000000023" lon="7.5358300000000007"><ele></ele><time>2017-7-27T9:53:30Z</time></trkpt>
<trkpt lat="46.3480900000000062" lon="7.5361300000000009"><ele></ele><time>2017-7-27T9:53:33Z</time></trkpt>
<trkpt lat="46.3480700000000070" lon="7.5362200000000010"><ele></ele><time>2017-7-27T9:53:36Z</time></trkpt>
<trkpt lat="46.3480600000000038" lon="7.5362700000000009"><ele></ele><time>2017-7-27T9:53:39Z</time></trkpt>
<trkpt lat="46.3480500000000006" lon="7.5363100000000003"><ele></ele><time>2017-7-27T9:53:42Z</time></trkpt>
<trkpt lat="46.3480600000000038" lon="7.5363900000000008"><ele></ele><time>2017-7-27T9:53:45Z</time></trkpt>
<trkpt lat="46.3480800000000031" lon="7.5364200000000006"><ele></ele><time>2017-7-27T9:53:48Z</time></trkpt>
<trkpt lat="46.3481000000000023" lon="7.5364400000000007"><ele></ele><time>2017-7-27T9:53:51Z</time></trkpt>
<trkpt lat="46.3481600000000071" lon="7.5364300000000002"><ele></ele><time>2017-7-27T9:53:54Z</time></trkpt>
<trkpt lat="46.3482000000000056" lon="7.5364100000000009"><ele></ele><time>2017-7-27T9:53:57Z</time></trkpt>
<trkpt lat="46.3482400000000041" lon="7.5363800000000003"><ele></ele><time>2017-7-27T9:54:0Z</time></trkpt>
<trkpt lat="46.3482700000000065" lon="7.5363400000000009"><ele></ele><time>2017-7-27T9:54:3Z</time></trkpt>
<trkpt lat="46.3483200000000011" lon="7.5362900000000010"><ele></ele><time>2017-7-27T9:54:6Z</time></trkpt>
<trkpt lat="46.3483500000000035" lon="7.5362600000000004"><ele></ele><time>2017-7-27T9:54:9Z</time></trkpt>
<trkpt lat="46.3484200000000044" lon="7.5362200000000010"><ele></ele><time>2017-7-27T9:54:12Z</time></trkpt>
<trkpt lat="46.3484900000000053" lon="7.5362100000000005"><ele></ele><time>2017-7-27T9:54:15Z</time></trkpt>
<trkpt lat="46.3485700000000023" lon="7.5361700000000003"><ele></ele><time>2017-7-27T9:54:18Z</time></trkpt>
<trkpt lat="46.3486600000000024" lon="7.5361000000000002"><ele></ele><time>2017-7-27T9:54:21Z</time></trkpt>
<trkpt lat="46.3487300000000033" lon="7.5360500000000004"><ele></ele><time>2017-7-27T9:54:24Z</time></trkpt>
<trkpt lat="46.3488100000000003" lon="7.5360400000000007"><ele></ele><time>2017-7-27T9:54:27Z</time></trkpt>
<trkpt lat="46.3488900000000044" lon="7.5360500000000004"><ele></ele><time>2017-7-27T9:54:30Z</time></trkpt>
<trkpt lat="46.3489500000000021" lon="7.5360400000000007"><ele></ele><time>2017-7-27T9:54:33Z</time></trkpt>
<trkpt lat="46.3490200000000030" lon="7.5360100000000010"><ele></ele><time>2017-7-27T9:54:36Z</time></trkpt>
<trkpt lat="46.3490700000000047" lon="7.5359600000000002"><ele></ele><time>2017-7-27T9:54:39Z</time></trkpt>
<trkpt lat="46.3490800000000007" lon="7.5359500000000006"><ele></ele><time>2017-7-27T9:54:42Z</time></trkpt>
<trkpt lat="46.3491600000000048" lon="7.5358400000000003"><ele></ele><time>2017-7-27T9:54:45Z</time></trkpt>
<trkpt lat="46.3492600000000010" lon="7.5356800000000010"><ele></ele><time>2017-7-27T9:54:48Z</time></trkpt>
<trkpt lat="46.3493500000000012" lon="7.5355200000000009"><ele></ele><time>2017-7-27T9:54:51Z</time></trkpt>
<trkpt lat="46.3494500000000045" lon="7.5353600000000007"><ele></ele><time>2017-7-27T9:54:54Z</time></trkpt>
<trkpt lat="46.3496000000000024" lon="7.5351000000000008"><ele></ele><time>2017-7-27T9:54:57Z</time></trkpt>
<trkpt lat="46.3496600000000072" lon="7.5350000000000010"><ele></ele><time>2017-7-27T9:55:0Z</time></trkpt>
<trkpt lat="46.3497000000000057" lon="7.5349000000000004"><ele></ele><time>2017-7-27T9:55:3Z</time></trkpt>
<trkpt lat="46.3497400000000042" lon="7.5347700000000009"><ele></ele><time>2017-7-27T9:55:6Z</time></trkpt>
<trkpt lat="46.3497900000000058" lon="7.5346300000000008"><ele></ele><time>2017-7-27T9:55:9Z</time></trkpt>
<trkpt lat="46.3498300000000043" lon="7.5345900000000006"><ele></ele><time>2017-7-27T9:55:12Z</time></trkpt>
<trkpt lat="46.3498800000000060" lon="7.5345500000000003"><ele></ele><time>2017-7-27T9:55:15Z</time></trkpt>
<trkpt lat="46.3499300000000005" lon="7.5345400000000007"><ele></ele><time>2017-7-27T9:55:18Z</time></trkpt>
<trkpt lat="46.3499700000000061" lon="7.5345200000000006"><ele></ele><time>2017-7-27T9:55:21Z</time></trkpt>
<trkpt lat="46.3500200000000007" lon="7.5344800000000003"><ele></ele><time>2017-7-27T9:55:24Z</time></trkpt>
<trkpt lat="46.3500800000000055" lon="7.5344000000000007"><ele></ele><time>2017-7-27T9:55:27Z</time></trkpt>
<trkpt lat="46.3501200000000040" lon="7.5343600000000004"><ele></ele><time>2017-7-27T9:55:30Z</time></trkpt>
<trkpt lat="46.3501800000000017" lon="7.5343300000000006"><ele></ele><time>2017-7-27T9:55:33Z</time></trkpt>
<trkpt lat="46.3502900000000011" lon="7.5343400000000003"><ele></ele><time>2017-7-27T9:55:36Z</time></trkpt>
<trkpt lat="46.3503400000000028" lon="7.5343500000000008"><ele></ele><time>2017-7-27T9:55:39Z</time></trkpt>
<trkpt lat="46.3503900000000044" lon="7.5343300000000006"><ele></ele><time>2017-7-27T9:55:42Z</time></trkpt>
<trkpt lat="46.3504400000000061" lon="7.5343000000000009"><ele></ele><time>2017-7-27T9:55:45Z</time></trkpt>
<trkpt lat="46.3505500000000055" lon="7.5342000000000002"><ele></ele><time>2017-7-27T9:55:48Z</time></trkpt>
<trkpt lat="46.3505900000000040" lon="7.5341600000000009"><ele></ele><time>2017-7-27T9:55:51Z</time></trkpt>
<trkpt lat="46.3506400000000056" lon="7.5341500000000003"><ele></ele><time>2017-7-27T9:55:54Z</time></trkpt>
<trkpt lat="46.3508200000000059" lon="7.5341400000000007"><ele></ele><time>2017-7-27T9:55:57Z</time></trkpt>
<trkpt lat="46.3508600000000044" lon="7.5341100000000010"><ele></ele><time>2017-7-27T9:56:0Z</time></trkpt>
<trkpt lat="46.3508800000000036" lon="7.5340700000000007"><ele></ele><time>2017-7-27T9:56:3Z</time></trkpt>
<trkpt lat="46.3509700000000038" lon="7.5339200000000002"><ele></ele><time>2017-7-27T9:56:6Z</time></trkpt>
<trkpt lat="46.3510600000000039" lon="7.5338100000000008"><ele></ele><time>2017-7-27T9:56:9Z</time></trkpt>
<trkpt lat="46.3511500000000041" lon="7.5336900000000009"><ele></ele><time>2017-7-27T9:56:12Z</time></trkpt>
<trkpt lat="46.3512000000000057" lon="7.5335900000000002"><ele></ele><time>2017-7-27T9:56:15Z</time></trkpt>
<trkpt lat="46.3512400000000042" lon="7.5334400000000006"><ele></ele><time>2017-7-27T9:56:18Z</time></trkpt>
<trkpt lat="46.3512600000000035" lon="7.5333300000000003"><ele></ele><time>2017-7-27T9:56:21Z</time></trkpt>
<trkpt lat="46.3512700000000066" lon="7.5331700000000010"><ele></ele><time>2017-7-27T9:56:24Z</time></trkpt>
<trkpt lat="46.3513000000000019" lon="7.5330100000000009"><ele></ele><time>2017-7-27T9:56:27Z</time></trkpt>
<trkpt lat="46.3513400000000004" lon="7.5328800000000005"><ele></ele><time>2017-7-27T9:56:30Z</time></trkpt>
<trkpt lat="46.3513800000000060" lon="7.5327800000000007"><ele></ele><time>2017-7-27T9:56:33Z</time></trkpt>
<trkpt lat="46.3514400000000037" lon="7.5326900000000006"><ele></ele><time>2017-7-27T9:56:36Z</time></trkpt>
<trkpt lat="46.3515400000000071" lon="7.5325700000000007"><ele></ele><time>2017-7-27T9:56:39Z</time></trkpt>
<trkpt lat="46.3516100000000009" lon="7.5324800000000005"><ele></ele><time>2017-7-27T9:56:42Z</time></trkpt>
<trkpt lat="46.3518200000000036" lon="7.5322100000000010"><ele></ele><time>2017-7-27T9:56:45Z</time></trkpt>
<trkpt lat="46.3518900000000045" lon="7.5321400000000009"><ele></ele><time>2017-7-27T9:56:48Z</time></trkpt>
<trkpt lat="46.3519600000000054" lon="7.5320700000000009"><ele></ele><time>2017-7-27T9:56:51Z</time></trkpt>
<trkpt lat="46.3520900000000040" lon="7.5319800000000008"><ele></ele><time>2017-7-27T9:56:54Z</time></trkpt>
<trkpt lat="46.3521500000000017" lon="7.5319300000000009"><ele></ele><time>2017-7-27T9:56:57Z</time></trkpt>
<trkpt lat="46.3522000000000034" lon="7.5318700000000005"><ele></ele><time>2017-7-27T9:57:0Z</time></trkpt>
<trkpt lat="46.3522700000000043" lon="7.5317900000000009"><ele></ele><time>2017-7-27T9:57:3Z</time></trkpt>
<trkpt lat="46.3523100000000028" lon="7.5317200000000009"><ele></ele><time>2017-7-27T9:57:6Z</time></trkpt>
<trkpt lat="46.3523700000000005" lon="7.5316600000000005"><ele></ele><time>2017-7-27T9:57:9Z</time></trkpt>
<trkpt lat="46.3524400000000014" lon="7.5316000000000010"><ele></ele><time>2017-7-27T9:57:12Z</time></trkpt>
<trkpt lat="46.3525200000000055" lon="7.5315400000000006"><ele></ele><time>2017-7-27T9:57:15Z</time></trkpt>
<trkpt lat="46.3525800000000032" lon="7.5315100000000008"><ele></ele><time>2017-7-27T9:57:18Z</time></trkpt>
<trkpt lat="46.3526700000000034" lon="7.5315300000000009"><ele></ele><time>2017-7-27T9:57:21Z</time></trkpt>
<trkpt lat="46.3527400000000043" lon="7.5316200000000002"><ele></ele><time>2017-7-27T9:57:24Z</time></trkpt>
<trkpt lat="46.3527700000000067" lon="7.5316700000000010"><ele></ele><time>2017-7-27T9:57:27Z</time></trkpt>
<trkpt lat="46.3528200000000012" lon="7.5316800000000006"><ele></ele><time>2017-7-27T9:57:30Z</time></trkpt>
<trkpt lat="46.3528800000000061" lon="7.5316700000000010"><ele></ele><time>2017-7-27T9:57:33Z</time></trkpt>
<trkpt lat="46.3529300000000006" lon="7.5316200000000002"><ele></ele><time>2017-7-27T9:57:36Z</time></trkpt>
<trkpt lat="46.3530100000000047" lon="7.5315300000000009"><ele></ele><time>2017-7-27T9:57:39Z</time></trkpt>
<trkpt lat="46.3530600000000064" lon="7.5314400000000008"><ele></ele><time>2017-7-27T9:57:42Z</time></trkpt>
<trkpt lat="46.3530900000000017" lon="7.5313500000000007"><ele></ele><time>2017-7-27T9:57:45Z</time></trkpt>
<trkpt lat="46.3531100000000009" lon="7.5312500000000009"><ele></ele><time>2017-7-27T9:57:48Z</time></trkpt>
<trkpt lat="46.3531400000000033" lon="7.5311700000000004"><ele></ele><time>2017-7-27T9:57:51Z</time></trkpt>
<trkpt lat="46.3532100000000042" lon="7.5311300000000010"><ele></ele><time>2017-7-27T9:57:54Z</time></trkpt>
<trkpt lat="46.3533300000000068" lon="7.5310800000000002"><ele></ele><time>2017-7-27T9:57:57Z</time></trkpt>
<trkpt lat="46.3534300000000030" lon="7.5310500000000005"><ele></ele><time>2017-7-27T9:58:0Z</time></trkpt>
<trkpt lat="46.3535200000000032" lon="7.5309900000000010"><ele></ele><time>2017-7-27T9:58:3Z</time></trkpt>
<trkpt lat="46.3535800000000009" lon="7.5309200000000009"><ele></ele><time>2017-7-27T9:58:6Z</time></trkpt>
<trkpt lat="46.3536600000000050" lon="7.5308000000000010"><ele></ele><time>2017-7-27T9:58:9Z</time></trkpt>
<trkpt lat="46.3537300000000059" lon="7.5306700000000006"><ele></ele><time>2017-7-27T9:58:12Z</time></trkpt>
<trkpt lat="46.3537900000000036" lon="7.5305100000000005"><ele></ele><time>2017-7-27T9:58:15Z</time></trkpt>
<trkpt lat="46.3538400000000053" lon="7.5304200000000003"><ele></ele><time>2017-7-27T9:58:18Z</time></trkpt>
<trkpt lat="46.3539000000000030" lon="7.5303500000000003"><ele></ele><time>2017-7-27T9:58:21Z</time></trkpt>
<trkpt lat="46.3539700000000039" lon="7.5303000000000004"><ele></ele><time>2017-7-27T9:58:24Z</time></trkpt>
<trkpt lat="46.3540700000000072" lon="7.5302900000000008"><ele></ele><time>2017-7-27T9:58:27Z</time></trkpt>
<trkpt lat="46.3541900000000027" lon="7.5303200000000006"><ele></ele><time>2017-7-27T9:58:30Z</time></trkpt>
<trkpt lat="46.3543800000000061" lon="7.5303900000000006"><ele></ele><time>2017-7-27T9:58:33Z</time></trkpt>
<trkpt lat="46.3545000000000016" lon="7.5304500000000010"><ele></ele><time>2017-7-27T9:58:36Z</time></trkpt>
<trkpt lat="46.3546000000000049" lon="7.5305100000000005"><ele></ele><time>2017-7-27T9:58:39Z</time></trkpt>
<trkpt lat="46.3547600000000060" lon="7.5306400000000009"><ele></ele><time>2017-7-27T9:58:42Z</time></trkpt>
<trkpt lat="46.3549500000000023" lon="7.5308200000000003"><ele></ele><time>2017-7-27T9:58:45Z</time></trkpt>
<trkpt lat="46.3550900000000041" lon="7.5309500000000007"><ele></ele><time>2017-7-27T9:58:48Z</time></trkpt>
<trkpt lat="46.3551800000000043" lon="7.5309900000000010"><ele></ele><time>2017-7-27T9:58:51Z</time></trkpt>
<trkpt lat="46.3552600000000012" lon="7.5310000000000006"><ele></ele><time>2017-7-27T9:58:54Z</time></trkpt>
<trkpt lat="46.3553500000000014" lon="7.5310200000000007"><ele></ele><time>2017-7-27T9:58:57Z</time></trkpt>
<trkpt lat="46.3554400000000015" lon="7.5311200000000005"><ele></ele><time>2017-7-27T9:59:0Z</time></trkpt>
<trkpt lat="46.3555800000000033" lon="7.5312200000000002"><ele></ele><time>2017-7-27T9:59:3Z</time></trkpt>
<trkpt lat="46.3556500000000042" lon="7.5312700000000010"><ele></ele><time>2017-7-27T9:59:6Z</time></trkpt>
<trkpt lat="46.3557200000000051" lon="7.5313600000000003"><ele></ele><time>2017-7-27T9:59:9Z</time></trkpt>
<trkpt lat="46.3558200000000014" lon="7.5315300000000009"><ele></ele><time>2017-7-27T9:59:12Z</time></trkpt>
<trkpt lat="46.3559300000000007" lon="7.5317200000000009"><ele></ele><time>2017-7-27T9:59:15Z</time></trkpt>
<trkpt lat="46.3559700000000063" lon="7.5318300000000002"><ele></ele><time>2017-7-27T9:59:18Z</time></trkpt>
<trkpt lat="46.3560100000000048" lon="7.5319500000000010"><ele></ele><time>2017-7-27T9:59:21Z</time></trkpt>
<trkpt lat="46.3560300000000041" lon="7.5320500000000008"><ele></ele><time>2017-7-27T9:59:24Z</time></trkpt>
<trkpt lat="46.3560100000000048" lon="7.5322800000000010"><ele></ele><time>2017-7-27T9:59:27Z</time></trkpt>
<trkpt lat="46.3559700000000063" lon="7.5324000000000009"><ele></ele><time>2017-7-27T9:59:30Z</time></trkpt>
<trkpt lat="46.3558900000000023" lon="7.5326000000000004"><ele></ele><time>2017-7-27T9:59:33Z</time></trkpt>
<trkpt lat="46.3558800000000062" lon="7.5326300000000010"><ele></ele><time>2017-7-27T9:59:36Z</time></trkpt>
<trkpt lat="46.3558100000000053" lon="7.5327700000000002"><ele></ele><time>2017-7-27T9:59:39Z</time></trkpt>
<trkpt lat="46.3557500000000005" lon="7.5329100000000002"><ele></ele><time>2017-7-27T9:59:42Z</time></trkpt>
<trkpt lat="46.3557100000000020" lon="7.5330500000000002"><ele></ele><time>2017-7-27T9:59:45Z</time></trkpt>
<trkpt lat="46.3556848271062734" lon="7.5331021865081311"><ele></ele><time>2017-7-27T9:59:48Z</time></trkpt>
<trkpt lat="46.3552726194962261" lon="7.5331784784793854"><ele></ele><time>2017-7-27T9:59:51Z</time></trkpt>
<trkpt lat="46.3549893821797525" lon="7.5332120060920715"><ele></ele><time>2017-7-27T9:59:54Z</time></trkpt>
<trkpt lat="46.3547348375873298" lon="7.5333286821842194"><ele></ele><time>2017-7-27T9:59:57Z</time></trkpt>
<trkpt lat="46.3546644905090446" lon="7.5334239006042480"><ele></ele><time>2017-7-27T10:0:0Z</time></trkpt>
<trkpt lat="46.3545950689614443" lon="7.5336438417434692"><ele></ele><time>2017-7-27T10:0:3Z</time></trkpt>
<trkpt lat="46.3546135813827647" lon="7.5338356196880341"><ele></ele><time>2017-7-27T10:0:6Z</time></trkpt>
<trkpt lat="46.3546783748079818" lon="7.5341548025608063"><ele></ele><time>2017-7-27T10:0:9Z</time></trkpt>
<trkpt lat="46.3546968872010794" lon="7.5345021486282349"><ele></ele><time>2017-7-27T10:0:12Z</time></trkpt>
<trkpt lat="46.3546626392689234" lon="7.5345799326896667"><ele></ele><time>2017-7-27T10:0:15Z</time></trkpt>
<trkpt lat="46.3545349035488314" lon="7.5347167253494263"><ele></ele><time>2017-7-27T10:0:18Z</time></trkpt>
<trkpt lat="46.3543664400411686" lon="7.5349420309066772"><ele></ele><time>2017-7-27T10:0:21Z</time></trkpt>
<trkpt lat="46.3543812500406602" lon="7.5353175401687622"><ele></ele><time>2017-7-27T10:0:24Z</time></trkpt>
<trkpt lat="46.3544034650324051" lon="7.5360095500946045"><ele></ele><time>2017-7-27T10:0:27Z</time></trkpt>
<trkpt lat="46.3544515974835605" lon="7.5362938642501831"><ele></ele><time>2017-7-27T10:0:30Z</time></trkpt>
<trkpt lat="46.3543886550389175" lon="7.5370824337005615"><ele></ele><time>2017-7-27T10:0:33Z</time></trkpt>
<trkpt lat="46.3543849525399168" lon="7.5372165441513062"><ele></ele><time>2017-7-27T10:0:36Z</time></trkpt>
<trkpt lat="46.3542627699321699" lon="7.5377154350280762"><ele></ele><time>2017-7-27T10:0:39Z</time></trkpt>
<trkpt lat="46.3542738774532523" lon="7.5379300117492676"><ele></ele><time>2017-7-27T10:0:42Z</time></trkpt>
<trkpt lat="46.3544238287669259" lon="7.5383913516998291"><ele></ele><time>2017-7-27T10:0:45Z</time></trkpt>
<trkpt lat="46.3544256800151473" lon="7.5385093688964844"><ele></ele><time>2017-7-27T10:0:48Z</time></trkpt>
<trkpt lat="46.3544719612001259" lon="7.5386112928390503"><ele></ele><time>2017-7-27T10:0:51Z</time></trkpt>
<trkpt lat="46.3545219448359092" lon="7.5386944413185120"><ele></ele><time>2017-7-27T10:0:54Z</time></trkpt>
<trkpt lat="46.3544978786466118" lon="7.5388365983963013"><ele></ele><time>2017-7-27T10:0:57Z</time></trkpt>
<trkpt lat="46.3544441924938369" lon="7.5392335653305054"><ele></ele><time>2017-7-27T10:1:0Z</time></trkpt>
<trkpt lat="46.3543608862902943" lon="7.5393623113632202"><ele></ele><time>2017-7-27T10:1:3Z</time></trkpt>
<trkpt lat="46.3542738774532523" lon="7.5394159555435181"><ele></ele><time>2017-7-27T10:1:6Z</time></trkpt>
<trkpt lat="46.3541998272700368" lon="7.5396439433097839"><ele></ele><time>2017-7-27T10:1:9Z</time></trkpt>
<trkpt lat="46.3540831980280075" lon="7.5397673249244690"><ele></ele><time>2017-7-27T10:1:12Z</time></trkpt>
<trkpt lat="46.3538221697749222" lon="7.5401052832603455"><ele></ele><time>2017-7-27T10:1:15Z</time></trkpt>
<trkpt lat="46.3536574066187015" lon="7.5401616096496582"><ele></ele><time>2017-7-27T10:1:18Z</time></trkpt>
<trkpt lat="46.3535592889975376" lon="7.5402501225471497"><ele></ele><time>2017-7-27T10:1:21Z</time></trkpt>
<trkpt lat="46.3535555864423259" lon="7.5403600931167603"><ele></ele><time>2017-7-27T10:1:24Z</time></trkpt>
<trkpt lat="46.3534389558254318" lon="7.5407329201698303"><ele></ele><time>2017-7-27T10:1:27Z</time></trkpt>
<trkpt lat="46.3532945556691729" lon="7.5411137938499451"><ele></ele><time>2017-7-27T10:1:30Z</time></trkpt>
<trkpt lat="46.3531112779983232" lon="7.5413927435874939"><ele></ele><time>2017-7-27T10:1:33Z</time></trkpt>
<trkpt lat="46.3529816873550402" lon="7.5416824221611023"><ele></ele><time>2017-7-27T10:1:36Z</time></trkpt>
<trkpt lat="46.3529724308687889" lon="7.5420901179313660"><ele></ele><time>2017-7-27T10:1:39Z</time></trkpt>
<trkpt lat="46.3528372859906028" lon="7.5422751903533936"><ele></ele><time>2017-7-27T10:1:42Z</time></trkpt>
<trkpt lat="46.3524966453628267" lon="7.5420230627059937"><ele></ele><time>2017-7-27T10:1:45Z</time></trkpt>
<trkpt lat="46.3522115423357022" lon="7.5424575805664062"><ele></ele><time>2017-7-27T10:1:48Z</time></trkpt>
<trkpt lat="46.3519190324894410" lon="7.5433695316314697"><ele></ele><time>2017-7-27T10:1:51Z</time></trkpt>
<trkpt lat="46.3517079801090901" lon="7.5440829992294312"><ele></ele><time>2017-7-27T10:1:54Z</time></trkpt>
<trkpt lat="46.3514228729678308" lon="7.5445282459259033"><ele></ele><time>2017-7-27T10:1:57Z</time></trkpt>
<trkpt lat="46.3511451697770340" lon="7.5453704595565796"><ele></ele><time>2017-7-27T10:2:0Z</time></trkpt>
<trkpt lat="46.3506564087341673" lon="7.5464379787445068"><ele></ele><time>2017-7-27T10:2:3Z</time></trkpt>
<trkpt lat="46.3499676925733510" lon="7.5475966930389404"><ele></ele><time>2017-7-27T10:2:6Z</time></trkpt>
<trkpt lat="46.3495085436448946" lon="7.5484442710876465"><ele></ele><time>2017-7-27T10:2:9Z</time></trkpt>
<trkpt lat="46.3492160193322533" lon="7.5488734245300293"><ele></ele><time>2017-7-27T10:2:12Z</time></trkpt>
<trkpt lat="46.3488198130201923" lon="7.5493669509887695"><ele></ele><time>2017-7-27T10:2:15Z</time></trkpt>
<trkpt lat="46.3486383717877075" lon="7.5493294000625610"><ele></ele><time>2017-7-27T10:2:18Z</time></trkpt>
<trkpt lat="46.3488642475159338" lon="7.5484764575958252"><ele></ele><time>2017-7-27T10:2:21Z</time></trkpt>
<trkpt lat="46.3483643573562460" lon="7.5487017631530762"><ele></ele><time>2017-7-27T10:2:24Z</time></trkpt>
<trkpt lat="46.3483791689822269" lon="7.5482243299484253"><ele></ele><time>2017-7-27T10:2:27Z</time></trkpt>
<trkpt lat="46.3483754660761207" lon="7.5477790832519531"><ele></ele><time>2017-7-27T10:2:30Z</time></trkpt>
<trkpt lat="46.3477089388870809" lon="7.5477683544158936"><ele></ele><time>2017-7-27T10:2:33Z</time></trkpt>
<trkpt lat="46.3474497316742244" lon="7.5477039813995361"><ele></ele><time>2017-7-27T10:2:36Z</time></trkpt>
<trkpt lat="46.3474500000000020" lon="7.5477100000000004"><ele></ele><time>2017-7-27T10:2:39Z</time></trkpt>
<trkpt lat="46.3470400000000069" lon="7.5476600000000005"><ele></ele><time>2017-7-27T10:2:42Z</time></trkpt>
<trkpt lat="46.3468300000000042" lon="7.5477000000000007"><ele></ele><time>2017-7-27T10:2:45Z</time></trkpt>
<trkpt lat="46.3466900000000024" lon="7.5478100000000010"><ele></ele><time>2017-7-27T10:2:48Z</time></trkpt>
<trkpt lat="46.3466500000000039" lon="7.5479500000000010"><ele></ele><time>2017-7-27T10:2:51Z</time></trkpt>
<trkpt lat="46.3466200000000015" lon="7.5481500000000006"><ele></ele><time>2017-7-27T10:2:54Z</time></trkpt>
<trkpt lat="46.3465800000000030" lon="7.5483300000000009"><ele></ele><time>2017-7-27T10:2:57Z</time></trkpt>
<trkpt lat="46.3465000000000060" lon="7.5485000000000007"><ele></ele><time>2017-7-27T10:3:0Z</time></trkpt>
<trkpt lat="46.3464000000000027" lon="7.5484600000000004"><ele></ele><time>2017-7-27T10:3:3Z</time></trkpt>
<trkpt lat="46.3463100000000026" lon="7.5484300000000006"><ele></ele><time>2017-7-27T10:3:6Z</time></trkpt>
<trkpt lat="46.3461700000000008" lon="7.5485100000000003"><ele></ele><time>2017-7-27T10:3:9Z</time></trkpt>
<trkpt lat="46.3460800000000006" lon="7.5487000000000002"><ele></ele><time>2017-7-27T10:3:12Z</time></trkpt>
<trkpt lat="46.3459600000000052" lon="7.5489600000000010"><ele></ele><time>2017-7-27T10:3:15Z</time></trkpt>
<trkpt lat="46.3458800000000011" lon="7.5490800000000009"><ele></ele><time>2017-7-27T10:3:18Z</time></trkpt>
<trkpt lat="46.3458100000000073" lon="7.5491400000000004"><ele></ele><time>2017-7-27T10:3:21Z</time></trkpt>
<trkpt lat="46.3456400000000031" lon="7.5491900000000003"><ele></ele><time>2017-7-27T10:3:24Z</time></trkpt>
<trkpt lat="46.3454100000000011" lon="7.5490600000000008"><ele></ele><time>2017-7-27T10:3:27Z</time></trkpt>
<trkpt lat="46.3451900000000023" lon="7.5489000000000006"><ele></ele><time>2017-7-27T10:3:30Z</time></trkpt>
<trkpt lat="46.3450700000000069" lon="7.5487800000000007"><ele></ele><time>2017-7-27T10:3:33Z</time></trkpt>
<trkpt lat="46.3449300000000051" lon="7.5487500000000010"><ele></ele><time>2017-7-27T10:3:36Z</time></trkpt>
<trkpt lat="46.3448000000000064" lon="7.5487800000000007"><ele></ele><time>2017-7-27T10:3:39Z</time></trkpt>
<trkpt lat="46.3446700000000007" lon="7.5488600000000003"><ele></ele><time>2017-7-27T10:3:42Z</time></trkpt>
<trkpt lat="46.3445400000000021" lon="7.5489400000000009"><ele></ele><time>2017-7-27T10:3:45Z</time></trkpt>
<trkpt lat="46.3443300000000065" lon="7.5491300000000008"><ele></ele><time>2017-7-27T10:3:48Z</time></trkpt>
<trkpt lat="46.3441300000000069" lon="7.5492900000000009"><ele></ele><time>2017-7-27T10:3:51Z</time></trkpt>
<trkpt lat="46.3440500000000029" lon="7.5493600000000010"><ele></ele><time>2017-7-27T10:3:54Z</time></trkpt>
<trkpt lat="46.3439700000000059" lon="7.5493900000000007"><ele></ele><time>2017-7-27T10:3:57Z</time></trkpt>
<trkpt lat="46.3438400000000073" lon="7.5494600000000007"><ele></ele><time>2017-7-27T10:4:0Z</time></trkpt>
<trkpt lat="46.3436400000000006" lon="7.5495500000000009"><ele></ele><time>2017-7-27T10:4:3Z</time></trkpt>
<trkpt lat="46.3434900000000027" lon="7.5497500000000004"><ele></ele><time>2017-7-27T10:4:6Z</time></trkpt>
<trkpt lat="46.3433000000000064" lon="7.5499800000000006"><ele></ele><time>2017-7-27T10:4:9Z</time></trkpt>
<trkpt lat="46.3431500000000014" lon="7.5501500000000004"><ele></ele><time>2017-7-27T10:4:12Z</time></trkpt>
<trkpt lat="46.3430600000000013" lon="7.5502800000000008"><ele></ele><time>2017-7-27T10:4:15Z</time></trkpt>
<trkpt lat="46.3430000000000035" lon="7.5504200000000008"><ele></ele><time>2017-7-27T10:4:18Z</time></trkpt>
<trkpt lat="46.3429600000000050" lon="7.5507400000000002"><ele></ele><time>2017-7-27T10:4:21Z</time></trkpt>
<trkpt lat="46.3428900000000041" lon="7.5510400000000004"><ele></ele><time>2017-7-27T10:4:24Z</time></trkpt>
<trkpt lat="46.3428200000000032" lon="7.5513100000000009"><ele></ele><time>2017-7-27T10:4:27Z</time></trkpt>
<trkpt lat="46.3427600000000055" lon="7.5515400000000010"><ele></ele><time>2017-7-27T10:4:30Z</time></trkpt>
<trkpt lat="46.3426900000000046" lon="7.5517700000000003"><ele></ele><time>2017-7-27T10:4:33Z</time></trkpt>
<trkpt lat="46.3426400000000029" lon="7.5520200000000006"><ele></ele><time>2017-7-27T10:4:36Z</time></trkpt>
<trkpt lat="46.3426000000000045" lon="7.5521400000000005"><ele></ele><time>2017-7-27T10:4:39Z</time></trkpt>
<trkpt lat="46.3425100000000043" lon="7.5521900000000004"><ele></ele><time>2017-7-27T10:4:42Z</time></trkpt>
<trkpt lat="46.3424300000000073" lon="7.5522200000000010"><ele></ele><time>2017-7-27T10:4:45Z</time></trkpt>
<trkpt lat="46.3421100000000052" lon="7.5522500000000008"><ele></ele><time>2017-7-27T10:4:48Z</time></trkpt>
<trkpt lat="46.3419900000000027" lon="7.5523100000000003"><ele></ele><time>2017-7-27T10:4:51Z</time></trkpt>
<trkpt lat="46.3418500000000009" lon="7.5525600000000006"><ele></ele><time>2017-7-27T10:4:54Z</time></trkpt>
<trkpt lat="46.3417100000000062" lon="7.5527300000000004"><ele></ele><time>2017-7-27T10:4:57Z</time></trkpt>
<trkpt lat="46.3415900000000036" lon="7.5529900000000003"><ele></ele><time>2017-7-27T10:5:0Z</time></trkpt>
<trkpt lat="46.3415100000000066" lon="7.5532200000000005"><ele></ele><time>2017-7-27T10:5:3Z</time></trkpt>
<trkpt lat="46.3415000000000035" lon="7.5533700000000010"><ele></ele><time>2017-7-27T10:5:6Z</time></trkpt>
<trkpt lat="46.3414900000000003" lon="7.5534900000000009"><ele></ele><time>2017-7-27T10:5:9Z</time></trkpt>
<trkpt lat="46.3414800000000042" lon="7.5535300000000003"><ele></ele><time>2017-7-27T10:5:12Z</time></trkpt>
<trkpt lat="46.3414100000000033" lon="7.5535100000000011"><ele></ele><time>2017-7-27T10:5:15Z</time></trkpt>
<trkpt lat="46.3413700000000048" lon="7.5535000000000005"><ele></ele><time>2017-7-27T10:5:18Z</time></trkpt>
<trkpt lat="46.3410400000000067" lon="7.5535300000000003"><ele></ele><time>2017-7-27T10:5:21Z</time></trkpt>
<trkpt lat="46.3409200000000041" lon="7.5536000000000003"><ele></ele><time>2017-7-27T10:5:24Z</time></trkpt>
<trkpt lat="46.3408400000000071" lon="7.5536800000000008"><ele></ele><time>2017-7-27T10:5:27Z</time></trkpt>
<trkpt lat="46.3407500000000070" lon="7.5537800000000006"><ele></ele><time>2017-7-27T10:5:30Z</time></trkpt>
<trkpt lat="46.3405800000000028" lon="7.5540700000000003"><ele></ele><time>2017-7-27T10:5:33Z</time></trkpt>
<trkpt lat="46.3403600000000040" lon="7.5545200000000010"><ele></ele><time>2017-7-27T10:5:36Z</time></trkpt>
<trkpt lat="46.3402700000000038" lon="7.5548500000000010"><ele></ele><time>2017-7-27T10:5:39Z</time></trkpt>
<trkpt lat="46.3401800000000037" lon="7.5551500000000003"><ele></ele><time>2017-7-27T10:5:42Z</time></trkpt>
<trkpt lat="46.3400400000000019" lon="7.5555400000000006"><ele></ele><time>2017-7-27T10:5:45Z</time></trkpt>
<trkpt lat="46.3399800000000042" lon="7.5556400000000004"><ele></ele><time>2017-7-27T10:5:48Z</time></trkpt>
<trkpt lat="46.3398900000000040" lon="7.5557000000000007"><ele></ele><time>2017-7-27T10:5:51Z</time></trkpt>
<trkpt lat="46.3397300000000030" lon="7.5558000000000005"><ele></ele><time>2017-7-27T10:5:54Z</time></trkpt>
<trkpt lat="46.3395700000000019" lon="7.5559100000000008"><ele></ele><time>2017-7-27T10:5:57Z</time></trkpt>
<trkpt lat="46.3394400000000033" lon="7.5560700000000010"><ele></ele><time>2017-7-27T10:6:0Z</time></trkpt>
<trkpt lat="46.3393900000000016" lon="7.5562100000000010"><ele></ele><time>2017-7-27T10:6:3Z</time></trkpt>
<trkpt lat="46.3393600000000063" lon="7.5563100000000007"><ele></ele><time>2017-7-27T10:6:6Z</time></trkpt>
<trkpt lat="46.3394000000000048" lon="7.5567200000000003"><ele></ele><time>2017-7-27T10:6:9Z</time></trkpt>
<trkpt lat="46.3394500000000065" lon="7.5568800000000005"><ele></ele><time>2017-7-27T10:6:12Z</time></trkpt>
<trkpt lat="46.3395300000000034" lon="7.5570900000000005"><ele></ele><time>2017-7-27T10:6:15Z</time></trkpt>
<trkpt lat="46.3395100000000042" lon="7.5571400000000004"><ele></ele><time>2017-7-27T10:6:18Z</time></trkpt>
<trkpt lat="46.3393900000000016" lon="7.5572400000000002"><ele></ele><time>2017-7-27T10:6:21Z</time></trkpt>
<trkpt lat="46.3393700000000024" lon="7.5572500000000007"><ele></ele><time>2017-7-27T10:6:24Z</time></trkpt>
<trkpt lat="46.3393600000000063" lon="7.5572700000000008"><ele></ele><time>2017-7-27T10:6:27Z</time></trkpt>
<trkpt lat="46.3393000000000015" lon="7.5575300000000007"><ele></ele><time>2017-7-27T10:6:30Z</time></trkpt>
<trkpt lat="46.3392400000000038" lon="7.5579600000000005"><ele></ele><time>2017-7-27T10:6:33Z</time></trkpt>
<trkpt lat="46.3391900000000021" lon="7.5581900000000006"><ele></ele><time>2017-7-27T10:6:36Z</time></trkpt>
<trkpt lat="46.3390200000000050" lon="7.5585300000000002"><ele></ele><time>2017-7-27T10:6:39Z</time></trkpt>
<trkpt lat="46.3388600000000039" lon="7.5588000000000006"><ele></ele><time>2017-7-27T10:6:42Z</time></trkpt>
<trkpt lat="46.3387600000000006" lon="7.5590300000000008"><ele></ele><time>2017-7-27T10:6:45Z</time></trkpt>
<trkpt lat="46.3386600000000044" lon="7.5595300000000005"><ele></ele><time>2017-7-27T10:6:48Z</time></trkpt>
<trkpt lat="46.3385700000000043" lon="7.5599300000000005"><ele></ele><time>2017-7-27T10:6:51Z</time></trkpt>
<trkpt lat="46.3384600000000049" lon="7.5603800000000003"><ele></ele><time>2017-7-27T10:6:54Z</time></trkpt>
<trkpt lat="46.3383400000000023" lon="7.5608200000000005"><ele></ele><time>2017-7-27T10:6:57Z</time></trkpt>
<trkpt lat="46.3381900000000044" lon="7.5617900000000002"><ele></ele><time>2017-7-27T10:7:0Z</time></trkpt>
<trkpt lat="46.3380800000000050" lon="7.5622500000000006"><ele></ele><time>2017-7-27T10:7:3Z</time></trkpt>
<trkpt lat="46.3380400000000066" lon="7.5625500000000008"><ele></ele><time>2017-7-27T10:7:6Z</time></trkpt>
<trkpt lat="46.3380100000000041" lon="7.5629600000000003"><ele></ele><time>2017-7-27T10:7:9Z</time></trkpt>
<trkpt lat="46.3378600000000063" lon="7.5640600000000004"><ele></ele><time>2017-7-27T10:7:12Z</time></trkpt>
<trkpt lat="46.3377700000000061" lon="7.5645700000000007"><ele></ele><time>2017-7-27T10:7:15Z</time></trkpt>
<trkpt lat="46.3377100000000013" lon="7.5650600000000008"><ele></ele><time>2017-7-27T10:7:18Z</time></trkpt>
<trkpt lat="46.3376600000000067" lon="7.5656500000000007"><ele></ele><time>2017-7-27T10:7:21Z</time></trkpt>
<trkpt lat="46.3376000000000019" lon="7.5660500000000006"><ele></ele><time>2017-7-27T10:7:24Z</time></trkpt>
<trkpt lat="46.3376100000000051" lon="7.5665200000000006"><ele></ele><time>2017-7-27T10:7:27Z</time></trkpt>
<trkpt lat="46.3376200000000011" lon="7.5672600000000010"><ele></ele><time>2017-7-27T10:7:30Z</time></trkpt>
<trkpt lat="46.3375600000000034" lon="7.5675100000000004"><ele></ele><time>2017-7-27T10:7:33Z</time></trkpt>
<trkpt lat="46.3374200000000016" lon="7.5677200000000004"><ele></ele><time>2017-7-27T10:7:36Z</time></trkpt>
<trkpt lat="46.3372500000000045" lon="7.5679500000000006"><ele></ele><time>2017-7-27T10:7:39Z</time></trkpt>
<trkpt lat="46.3371200000000059" lon="7.5681400000000005"><ele></ele><time>2017-7-27T10:7:42Z</time></trkpt>
<trkpt lat="46.3370400000000018" lon="7.5682700000000009"><ele></ele><time>2017-7-27T10:7:45Z</time></trkpt>
<trkpt lat="46.3369700000000009" lon="7.5683800000000003"><ele></ele><time>2017-7-27T10:7:48Z</time></trkpt>
<trkpt lat="46.3369200000000063" lon="7.5684800000000010"><ele></ele><time>2017-7-27T10:7:51Z</time></trkpt>
<trkpt lat="46.3368300000000062" lon="7.5685800000000008"><ele></ele><time>2017-7-27T10:7:54Z</time></trkpt>
<trkpt lat="46.3367300000000029" lon="7.5687600000000010"><ele></ele><time>2017-7-27T10:7:57Z</time></trkpt>
<trkpt lat="46.3366300000000066" lon="7.5689800000000007"><ele></ele><time>2017-7-27T10:8:0Z</time></trkpt>
<trkpt lat="46.3365300000000033" lon="7.5692900000000005"><ele></ele><time>2017-7-27T10:8:3Z</time></trkpt>
<trkpt lat="46.3364000000000047" lon="7.5696200000000005"><ele></ele><time>2017-7-27T10:8:6Z</time></trkpt>
<trkpt lat="46.3363300000000038" lon="7.5698600000000003"><ele></ele><time>2017-7-27T10:8:9Z</time></trkpt>
<trkpt lat="46.3362700000000061" lon="7.5700400000000005"><ele></ele><time>2017-7-27T10:8:12Z</time></trkpt>
<trkpt lat="46.3362000000000052" lon="7.5702300000000005"><ele></ele><time>2017-7-27T10:8:15Z</time></trkpt>
<trkpt lat="46.3361200000000011" lon="7.5703600000000009"><ele></ele><time>2017-7-27T10:8:18Z</time></trkpt>
<trkpt lat="46.3360400000000041" lon="7.5704900000000004"><ele></ele><time>2017-7-27T10:8:21Z</time></trkpt>
<trkpt lat="46.3360000000000056" lon="7.5706500000000005"><ele></ele><time>2017-7-27T10:8:24Z</time></trkpt>
<trkpt lat="46.3359700000000032" lon="7.5708100000000007"><ele></ele><time>2017-7-27T10:8:27Z</time></trkpt>
<trkpt lat="46.3358900000000062" lon="7.5710600000000010"><ele></ele><time>2017-7-27T10:8:30Z</time></trkpt>
<trkpt lat="46.3358400000000046" lon="7.5711500000000003"><ele></ele><time>2017-7-27T10:8:33Z</time></trkpt>
<trkpt lat="46.3356800000000035" lon="7.5711100000000009"><ele></ele><time>2017-7-27T10:8:36Z</time></trkpt>
<trkpt lat="46.3356700000000004" lon="7.5709700000000009"><ele></ele><time>2017-7-27T10:8:39Z</time></trkpt>
<trkpt lat="46.3357100000000059" lon="7.5708500000000010"><ele></ele><time>2017-7-27T10:8:42Z</time></trkpt>
<trkpt lat="46.3357700000000037" lon="7.5707100000000009"><ele></ele><time>2017-7-27T10:8:45Z</time></trkpt>
<trkpt lat="46.3358700000000070" lon="7.5704600000000006"><ele></ele><time>2017-7-27T10:8:48Z</time></trkpt>
<trkpt lat="46.3359000000000023" lon="7.5702800000000003"><ele></ele><time>2017-7-27T10:8:51Z</time></trkpt>
<trkpt lat="46.3359100000000055" lon="7.5701000000000009"><ele></ele><time>2017-7-27T10:8:54Z</time></trkpt>
<trkpt lat="46.3359200000000016" lon="7.5698400000000010"><ele></ele><time>2017-7-27T10:8:57Z</time></trkpt>
<trkpt lat="46.3359400000000008" lon="7.5696000000000003"><ele></ele><time>2017-7-27T10:9:0Z</time></trkpt>
<trkpt lat="46.3360300000000009" lon="7.5689000000000002"><ele></ele><time>2017-7-27T10:9:3Z</time></trkpt>
<trkpt lat="46.3360900000000058" lon="7.5685900000000004"><ele></ele><time>2017-7-27T10:9:6Z</time></trkpt>
<trkpt lat="46.3361300000000043" lon="7.5684100000000010"><ele></ele><time>2017-7-27T10:9:9Z</time></trkpt>
<trkpt lat="46.3361700000000027" lon="7.5682600000000004"><ele></ele><time>2017-7-27T10:9:12Z</time></trkpt>
<trkpt lat="46.3362100000000012" lon="7.5680700000000005"><ele></ele><time>2017-7-27T10:9:15Z</time></trkpt>
<trkpt lat="46.3363400000000070" lon="7.5678300000000007"><ele></ele><time>2017-7-27T10:9:18Z</time></trkpt>
<trkpt lat="46.3364700000000056" lon="7.5675800000000004"><ele></ele><time>2017-7-27T10:9:21Z</time></trkpt>
<trkpt lat="46.3365500000000026" lon="7.5674200000000003"><ele></ele><time>2017-7-27T10:9:24Z</time></trkpt>
<trkpt lat="46.3365200000000073" lon="7.5672200000000007"><ele></ele><time>2017-7-27T10:9:27Z</time></trkpt>
<trkpt lat="46.3364500000000064" lon="7.5670500000000009"><ele></ele><time>2017-7-27T10:9:30Z</time></trkpt>
<trkpt lat="46.3364400000000032" lon="7.5668800000000003"><ele></ele><time>2017-7-27T10:9:33Z</time></trkpt>
<trkpt lat="46.3365000000000009" lon="7.5666000000000002"><ele></ele><time>2017-7-27T10:9:36Z</time></trkpt>
<trkpt lat="46.3365700000000018" lon="7.5664800000000003"><ele></ele><time>2017-7-27T10:9:39Z</time></trkpt>
<trkpt lat="46.3366600000000020" lon="7.5661000000000005"><ele></ele><time>2017-7-27T10:9:42Z</time></trkpt>
<trkpt lat="46.3367000000000004" lon="7.5659000000000010"><ele></ele><time>2017-7-27T10:9:45Z</time></trkpt>
<trkpt lat="46.3367300000000029" lon="7.5656500000000007"><ele></ele><time>2017-7-27T10:9:48Z</time></trkpt>
<trkpt lat="46.3367700000000013" lon="7.5654000000000003"><ele></ele><time>2017-7-27T10:9:51Z</time></trkpt>
<trkpt lat="46.3367600000000053" lon="7.5646900000000006"><ele></ele><time>2017-7-27T10:9:54Z</time></trkpt>
<trkpt lat="46.3367100000000036" lon="7.5642800000000010"><ele></ele><time>2017-7-27T10:9:57Z</time></trkpt>
<trkpt lat="46.3366500000000059" lon="7.5639700000000003"><ele></ele><time>2017-7-27T10:10:0Z</time></trkpt>
<trkpt lat="46.3365700000000018" lon="7.5636600000000005"><ele></ele><time>2017-7-27T10:10:3Z</time></trkpt>
<trkpt lat="46.3365300000000033" lon="7.5634400000000008"><ele></ele><time>2017-7-27T10:10:6Z</time></trkpt>
<trkpt lat="46.3364800000000017" lon="7.5632000000000010"><ele></ele><time>2017-7-27T10:10:9Z</time></trkpt>
<trkpt lat="46.3364500000000064" lon="7.5624500000000010"><ele></ele><time>2017-7-27T10:10:12Z</time></trkpt>
<trkpt lat="46.3364000000000047" lon="7.5622600000000002"><ele></ele><time>2017-7-27T10:10:15Z</time></trkpt>
<trkpt lat="46.3364200000000039" lon="7.5618700000000008"><ele></ele><time>2017-7-27T10:10:18Z</time></trkpt>
<trkpt lat="46.3364000000000047" lon="7.5614500000000007"><ele></ele><time>2017-7-27T10:10:21Z</time></trkpt>
<trkpt lat="46.3363600000000062" lon="7.5611600000000010"><ele></ele><time>2017-7-27T10:10:24Z</time></trkpt>
<trkpt lat="46.3363200000000006" lon="7.5609000000000002"><ele></ele><time>2017-7-27T10:10:27Z</time></trkpt>
<trkpt lat="46.3363400000000070" lon="7.5605400000000005"><ele></ele><time>2017-7-27T10:10:30Z</time></trkpt>
<trkpt lat="46.3363700000000023" lon="7.5602100000000005"><ele></ele><time>2017-7-27T10:10:33Z</time></trkpt>
<trkpt lat="46.3364000000000047" lon="7.5600100000000010"><ele></ele><time>2017-7-27T10:10:36Z</time></trkpt>
<trkpt lat="46.3364300000000071" lon="7.5598400000000003"><ele></ele><time>2017-7-27T10:10:39Z</time></trkpt>
<trkpt lat="46.3364500000000064" lon="7.5596700000000006"><ele></ele><time>2017-7-27T10:10:42Z</time></trkpt>
<trkpt lat="46.3364600000000024" lon="7.5594400000000004"><ele></ele><time>2017-7-27T10:10:45Z</time></trkpt>
<trkpt lat="46.3364800000000017" lon="7.5592100000000002"><ele></ele><time>2017-7-27T10:10:48Z</time></trkpt>
<trkpt lat="46.3364700000000056" lon="7.5590600000000006"><ele></ele><time>2017-7-27T10:10:51Z</time></trkpt>
<trkpt lat="46.3364500000000064" lon="7.5589500000000003"><ele></ele><time>2017-7-27T10:10:54Z</time></trkpt>
<trkpt lat="46.3364200000000039" lon="7.5588400000000009"><ele></ele><time>2017-7-27T10:10:57Z</time></trkpt>
<trkpt lat="46.3364100000000008" lon="7.5586900000000004"><ele></ele><time>2017-7-27T10:11:0Z</time></trkpt>
<trkpt lat="46.3364400000000032" lon="7.5585500000000003"><ele></ele><time>2017-7-27T10:11:3Z</time></trkpt>
<trkpt lat="46.3365300000000033" lon="7.5583800000000005"><ele></ele><time>2017-7-27T10:11:6Z</time></trkpt>
<trkpt lat="46.3366000000000042" lon="7.5582700000000003"><ele></ele><time>2017-7-27T10:11:9Z</time></trkpt>
<trkpt lat="46.3366900000000044" lon="7.5581400000000007"><ele></ele><time>2017-7-27T10:11:12Z</time></trkpt>
<trkpt lat="46.3367600000000053" lon="7.5580100000000003"><ele></ele><time>2017-7-27T10:11:15Z</time></trkpt>
<trkpt lat="46.3368200000000030" lon="7.5578000000000003"><ele></ele><time>2017-7-27T10:11:18Z</time></trkpt>
<trkpt lat="46.3368400000000022" lon="7.5571600000000005"><ele></ele><time>2017-7-27T10:11:21Z</time></trkpt>
<trkpt lat="46.3368600000000015" lon="7.5565400000000009"><ele></ele><time>2017-7-27T10:11:24Z</time></trkpt>
<trkpt lat="46.3368900000000039" lon="7.5561900000000009"><ele></ele><time>2017-7-27T10:11:27Z</time></trkpt>
<trkpt lat="46.3369100000000032" lon="7.5559600000000007"><ele></ele><time>2017-7-27T10:11:30Z</time></trkpt>
<trkpt lat="46.3369300000000024" lon="7.5557900000000009"><ele></ele><time>2017-7-27T10:11:33Z</time></trkpt>
<trkpt lat="46.3370100000000065" lon="7.5555600000000007"><ele></ele><time>2017-7-27T10:11:36Z</time></trkpt>
<trkpt lat="46.3370700000000042" lon="7.5553700000000008"><ele></ele><time>2017-7-27T10:11:39Z</time></trkpt>
<trkpt lat="46.3371300000000019" lon="7.5552400000000004"><ele></ele><time>2017-7-27T10:11:42Z</time></trkpt>
<trkpt lat="46.3372000000000028" lon="7.5551000000000004"><ele></ele><time>2017-7-27T10:11:45Z</time></trkpt>
<trkpt lat="46.3372600000000006" lon="7.5550500000000005"><ele></ele><time>2017-7-27T10:11:48Z</time></trkpt>
<trkpt lat="46.3373300000000015" lon="7.5549700000000009"><ele></ele><time>2017-7-27T10:11:51Z</time></trkpt>
<trkpt lat="46.3372900000000030" lon="7.5548000000000002"><ele></ele><time>2017-7-27T10:11:54Z</time></trkpt>
<trkpt lat="46.3372300000000052" lon="7.5548100000000007"><ele></ele><time>2017-7-27T10:11:57Z</time></trkpt>
<trkpt lat="46.3371700000000004" lon="7.5548600000000006"><ele></ele><time>2017-7-27T10:12:0Z</time></trkpt>
<trkpt lat="46.3370800000000003" lon="7.5550600000000010"><ele></ele><time>2017-7-27T10:12:3Z</time></trkpt>
<trkpt lat="46.3370300000000057" lon="7.5552300000000008"><ele></ele><time>2017-7-27T10:12:6Z</time></trkpt>
<trkpt lat="46.3369400000000056" lon="7.5553400000000011"><ele></ele><time>2017-7-27T10:12:9Z</time></trkpt>
<trkpt lat="46.3368900000000039" lon="7.5554800000000002"><ele></ele><time>2017-7-27T10:12:12Z</time></trkpt>
<trkpt lat="46.3368400000000022" lon="7.5556500000000009"><ele></ele><time>2017-7-27T10:12:15Z</time></trkpt>
<trkpt lat="46.3367900000000006" lon="7.5557900000000009"><ele></ele><time>2017-7-27T10:12:18Z</time></trkpt>
<trkpt lat="46.3367200000000068" lon="7.5559400000000005"><ele></ele><time>2017-7-27T10:12:21Z</time></trkpt>
<trkpt lat="46.3366600000000020" lon="7.5561500000000006"><ele></ele><time>2017-7-27T10:12:24Z</time></trkpt>
<trkpt lat="46.3366300000000066" lon="7.5563500000000010"><ele></ele><time>2017-7-27T10:12:27Z</time></trkpt>
<trkpt lat="46.3365800000000050" lon="7.5565600000000011"><ele></ele><time>2017-7-27T10:12:30Z</time></trkpt>
<trkpt lat="46.3364900000000048" lon="7.5567400000000005"><ele></ele><time>2017-7-27T10:12:33Z</time></trkpt>
<trkpt lat="46.3364400000000032" lon="7.5568500000000007"><ele></ele><time>2017-7-27T10:12:36Z</time></trkpt>
<trkpt lat="46.3364500000000064" lon="7.5569700000000006"><ele></ele><time>2017-7-27T10:12:39Z</time></trkpt>
<trkpt lat="46.3364800000000017" lon="7.5571700000000011"><ele></ele><time>2017-7-27T10:12:42Z</time></trkpt>
<trkpt lat="46.3364700000000056" lon="7.5573400000000008"><ele></ele><time>2017-7-27T10:12:45Z</time></trkpt>
<trkpt lat="46.3364200000000039" lon="7.5574500000000002"><ele></ele><time>2017-7-27T10:12:48Z</time></trkpt>
<trkpt lat="46.3363200000000006" lon="7.5575500000000009"><ele></ele><time>2017-7-27T10:12:51Z</time></trkpt>
<trkpt lat="46.3361400000000003" lon="7.5577200000000007"><ele></ele><time>2017-7-27T10:12:54Z</time></trkpt>
<trkpt lat="46.3360000000000056" lon="7.5578400000000006"><ele></ele><time>2017-7-27T10:12:57Z</time></trkpt>
<trkpt lat="46.3359400000000008" lon="7.5579200000000002"><ele></ele><time>2017-7-27T10:13:0Z</time></trkpt>
<trkpt lat="46.3359100000000055" lon="7.5580400000000010"><ele></ele><time>2017-7-27T10:13:3Z</time></trkpt>
<trkpt lat="46.3358600000000038" lon="7.5581600000000009"><ele></ele><time>2017-7-27T10:13:6Z</time></trkpt>
<trkpt lat="46.3358200000000053" lon="7.5583500000000008"><ele></ele><time>2017-7-27T10:13:9Z</time></trkpt>
<trkpt lat="46.3356900000000067" lon="7.5587000000000009"><ele></ele><time>2017-7-27T10:13:12Z</time></trkpt>
<trkpt lat="46.3356300000000019" lon="7.5589100000000009"><ele></ele><time>2017-7-27T10:13:15Z</time></trkpt>
<trkpt lat="46.3355800000000073" lon="7.5590300000000008"><ele></ele><time>2017-7-27T10:13:18Z</time></trkpt>
<trkpt lat="46.3355500000000049" lon="7.5592000000000006"><ele></ele><time>2017-7-27T10:13:21Z</time></trkpt>
<trkpt lat="46.3355200000000025" lon="7.5596800000000002"><ele></ele><time>2017-7-27T10:13:24Z</time></trkpt>
<trkpt lat="46.3355000000000032" lon="7.5598800000000006"><ele></ele><time>2017-7-27T10:13:27Z</time></trkpt>
<trkpt lat="46.3354400000000055" lon="7.5602400000000003"><ele></ele><time>2017-7-27T10:13:30Z</time></trkpt>
<trkpt lat="46.3354000000000070" lon="7.5605700000000002"><ele></ele><time>2017-7-27T10:13:33Z</time></trkpt>
<trkpt lat="46.3353700000000046" lon="7.5609200000000003"><ele></ele><time>2017-7-27T10:13:36Z</time></trkpt>
<trkpt lat="46.3353200000000029" lon="7.5612800000000009"><ele></ele><time>2017-7-27T10:13:39Z</time></trkpt>
<trkpt lat="46.3352800000000045" lon="7.5616000000000003"><ele></ele><time>2017-7-27T10:13:42Z</time></trkpt>
<trkpt lat="46.3352600000000052" lon="7.5617800000000006"><ele></ele><time>2017-7-27T10:13:45Z</time></trkpt>
<trkpt lat="46.3352400000000060" lon="7.5620700000000003"><ele></ele><time>2017-7-27T10:13:48Z</time></trkpt>
<trkpt lat="46.3351500000000058" lon="7.5622900000000008"><ele></ele><time>2017-7-27T10:13:51Z</time></trkpt>
<trkpt lat="46.3350100000000040" lon="7.5624100000000007"><ele></ele><time>2017-7-27T10:13:54Z</time></trkpt>
<trkpt lat="46.3348700000000022" lon="7.5624700000000002"><ele></ele><time>2017-7-27T10:13:57Z</time></trkpt>
<trkpt lat="46.3347100000000012" lon="7.5625500000000008"><ele></ele><time>2017-7-27T10:14:0Z</time></trkpt>
<trkpt lat="46.3345100000000016" lon="7.5626300000000004"><ele></ele><time>2017-7-27T10:14:3Z</time></trkpt>
<trkpt lat="46.3344100000000054" lon="7.5627400000000007"><ele></ele><time>2017-7-27T10:14:6Z</time></trkpt>
<trkpt lat="46.3343700000000069" lon="7.5628500000000010"><ele></ele><time>2017-7-27T10:14:9Z</time></trkpt>
<trkpt lat="46.3342700000000036" lon="7.5629300000000006"><ele></ele><time>2017-7-27T10:14:12Z</time></trkpt>
<trkpt lat="46.3341900000000066" lon="7.5629700000000009"><ele></ele><time>2017-7-27T10:14:15Z</time></trkpt>
<trkpt lat="46.3339200000000062" lon="7.5630200000000007"><ele></ele><time>2017-7-27T10:14:18Z</time></trkpt>
<trkpt lat="46.3336600000000018" lon="7.5631000000000004"><ele></ele><time>2017-7-27T10:14:21Z</time></trkpt>
<trkpt lat="46.3335400000000064" lon="7.5631600000000008"><ele></ele><time>2017-7-27T10:14:24Z</time></trkpt>
<trkpt lat="46.3333700000000022" lon="7.5631400000000006"><ele></ele><time>2017-7-27T10:14:27Z</time></trkpt>
<trkpt lat="46.3328400000000045" lon="7.5632600000000005"><ele></ele><time>2017-7-27T10:14:30Z</time></trkpt>
<trkpt lat="46.3326400000000049" lon="7.5633600000000003"><ele></ele><time>2017-7-27T10:14:33Z</time></trkpt>
<trkpt lat="46.3324600000000046" lon="7.5634700000000006"><ele></ele><time>2017-7-27T10:14:36Z</time></trkpt>
<trkpt lat="46.3323200000000028" lon="7.5635100000000008"><ele></ele><time>2017-7-27T10:14:39Z</time></trkpt>
<trkpt lat="46.3321800000000010" lon="7.5635300000000010"><ele></ele><time>2017-7-27T10:14:42Z</time></trkpt>
<trkpt lat="46.3320800000000048" lon="7.5636000000000010"><ele></ele><time>2017-7-27T10:14:45Z</time></trkpt>
<trkpt lat="46.3319900000000047" lon="7.5637200000000009"><ele></ele><time>2017-7-27T10:14:48Z</time></trkpt>
<trkpt lat="46.3319000000000045" lon="7.5638400000000008"><ele></ele><time>2017-7-27T10:14:51Z</time></trkpt>
<trkpt lat="46.3318200000000004" lon="7.5639700000000003"><ele></ele><time>2017-7-27T10:14:54Z</time></trkpt>
<trkpt lat="46.3317000000000050" lon="7.5641700000000007"><ele></ele><time>2017-7-27T10:14:57Z</time></trkpt>
<trkpt lat="46.3315600000000032" lon="7.5642900000000006"><ele></ele><time>2017-7-27T10:15:0Z</time></trkpt>
<trkpt lat="46.3314500000000038" lon="7.5644500000000008"><ele></ele><time>2017-7-27T10:15:3Z</time></trkpt>
<trkpt lat="46.3313900000000061" lon="7.5645700000000007"><ele></ele><time>2017-7-27T10:15:6Z</time></trkpt>
<trkpt lat="46.3313400000000044" lon="7.5647500000000010"><ele></ele><time>2017-7-27T10:15:9Z</time></trkpt>
<trkpt lat="46.3312700000000035" lon="7.5649500000000005"><ele></ele><time>2017-7-27T10:15:12Z</time></trkpt>
<trkpt lat="46.3311600000000041" lon="7.5651800000000007"><ele></ele><time>2017-7-27T10:15:15Z</time></trkpt>
<trkpt lat="46.3310400000000016" lon="7.5654200000000005"><ele></ele><time>2017-7-27T10:15:18Z</time></trkpt>
<trkpt lat="46.3309600000000046" lon="7.5657000000000005"><ele></ele><time>2017-7-27T10:15:21Z</time></trkpt>
<trkpt lat="46.3308900000000037" lon="7.5659100000000006"><ele></ele><time>2017-7-27T10:15:24Z</time></trkpt>
<trkpt lat="46.3308500000000052" lon="7.5661500000000004"><ele></ele><time>2017-7-27T10:15:27Z</time></trkpt>
<trkpt lat="46.3307800000000043" lon="7.5664800000000003"><ele></ele><time>2017-7-27T10:15:30Z</time></trkpt>
<trkpt lat="46.3307400000000058" lon="7.5668100000000003"><ele></ele><time>2017-7-27T10:15:33Z</time></trkpt>
<trkpt lat="46.3306800000000010" lon="7.5669900000000005"><ele></ele><time>2017-7-27T10:15:36Z</time></trkpt>
<trkpt lat="46.3306100000000072" lon="7.5671500000000007"><ele></ele><time>2017-7-27T10:15:39Z</time></trkpt>
<trkpt lat="46.3306000000000040" lon="7.5672600000000010"><ele></ele><time>2017-7-27T10:15:42Z</time></trkpt>
<trkpt lat="46.3305800000000048" lon="7.5674600000000005"><ele></ele><time>2017-7-27T10:15:45Z</time></trkpt>
<trkpt lat="46.3305400000000063" lon="7.5677400000000006"><ele></ele><time>2017-7-27T10:15:48Z</time></trkpt>
<trkpt lat="46.3305600000000055" lon="7.5680900000000007"><ele></ele><time>2017-7-27T10:15:51Z</time></trkpt>
<trkpt lat="46.3305900000000008" lon="7.5681900000000004"><ele></ele><time>2017-7-27T10:15:54Z</time></trkpt>
<trkpt lat="46.3306100000000072" lon="7.5683100000000003"><ele></ele><time>2017-7-27T10:15:57Z</time></trkpt>
<trkpt lat="46.3306200000000032" lon="7.5684100000000010"><ele></ele><time>2017-7-27T10:16:0Z</time></trkpt>
<trkpt lat="46.3306000000000040" lon="7.5685700000000002"><ele></ele><time>2017-7-27T10:16:3Z</time></trkpt>
<trkpt lat="46.3305700000000016" lon="7.5686800000000005"><ele></ele><time>2017-7-27T10:16:6Z</time></trkpt>
<trkpt lat="46.3305600000000055" lon="7.5688600000000008"><ele></ele><time>2017-7-27T10:16:9Z</time></trkpt>
<trkpt lat="46.3305500000000023" lon="7.5689900000000003"><ele></ele><time>2017-7-27T10:16:12Z</time></trkpt>
<trkpt lat="46.3305400000000063" lon="7.5690800000000005"><ele></ele><time>2017-7-27T10:16:15Z</time></trkpt>
<trkpt lat="46.3305300000000031" lon="7.5692500000000003"><ele></ele><time>2017-7-27T10:16:18Z</time></trkpt>
<trkpt lat="46.3305400000000063" lon="7.5694500000000007"><ele></ele><time>2017-7-27T10:16:21Z</time></trkpt>
<trkpt lat="46.3305500000000023" lon="7.5695400000000008"><ele></ele><time>2017-7-27T10:16:24Z</time></trkpt>
<trkpt lat="46.3305400000000063" lon="7.5696700000000003"><ele></ele><time>2017-7-27T10:16:27Z</time></trkpt>
<trkpt lat="46.3305700000000016" lon="7.5697800000000006"><ele></ele><time>2017-7-27T10:16:30Z</time></trkpt>
<trkpt lat="46.3305600000000055" lon="7.5701000000000009"><ele></ele><time>2017-7-27T10:16:33Z</time></trkpt>
<trkpt lat="46.3305900000000008" lon="7.5703700000000005"><ele></ele><time>2017-7-27T10:16:36Z</time></trkpt>
<trkpt lat="46.3306100000000072" lon="7.5705700000000009"><ele></ele><time>2017-7-27T10:16:39Z</time></trkpt>
<trkpt lat="46.3306300000000064" lon="7.5707200000000006"><ele></ele><time>2017-7-27T10:16:42Z</time></trkpt>
<trkpt lat="46.3306200000000032" lon="7.5708400000000005"><ele></ele><time>2017-7-27T10:16:45Z</time></trkpt>
<trkpt lat="46.3305900000000008" lon="7.5709500000000007"><ele></ele><time>2017-7-27T10:16:48Z</time></trkpt>
<trkpt lat="46.3305700000000016" lon="7.5711400000000006"><ele></ele><time>2017-7-27T10:16:51Z</time></trkpt>
<trkpt lat="46.3305800000000048" lon="7.5712700000000011"><ele></ele><time>2017-7-27T10:16:54Z</time></trkpt>
<trkpt lat="46.3306200000000032" lon="7.5714300000000003"><ele></ele><time>2017-7-27T10:16:57Z</time></trkpt>
<trkpt lat="46.3305700000000016" lon="7.5715200000000005"><ele></ele><time>2017-7-27T10:17:0Z</time></trkpt>
<trkpt lat="46.3304400000000030" lon="7.5714700000000006"><ele></ele><time>2017-7-27T10:17:3Z</time></trkpt>
<trkpt lat="46.3304100000000005" lon="7.5713400000000002"><ele></ele><time>2017-7-27T10:17:6Z</time></trkpt>
<trkpt lat="46.3304300000000069" lon="7.5711500000000003"><ele></ele><time>2017-7-27T10:17:9Z</time></trkpt>
<trkpt lat="46.3304600000000022" lon="7.5709100000000005"><ele></ele><time>2017-7-27T10:17:12Z</time></trkpt>
<trkpt lat="46.3304300000000069" lon="7.5704800000000008"><ele></ele><time>2017-7-27T10:17:15Z</time></trkpt>
<trkpt lat="46.3303300000000036" lon="7.5703500000000004"><ele></ele><time>2017-7-27T10:17:18Z</time></trkpt>
<trkpt lat="46.3302700000000058" lon="7.5702800000000003"><ele></ele><time>2017-7-27T10:17:21Z</time></trkpt>
<trkpt lat="46.3302500000000066" lon="7.5701800000000006"><ele></ele><time>2017-7-27T10:17:24Z</time></trkpt>
<trkpt lat="46.3302100000000010" lon="7.5699700000000005"><ele></ele><time>2017-7-27T10:17:27Z</time></trkpt>
<trkpt lat="46.3301600000000064" lon="7.5698400000000010"><ele></ele><time>2017-7-27T10:17:30Z</time></trkpt>
<trkpt lat="46.3300800000000024" lon="7.5696700000000003"><ele></ele><time>2017-7-27T10:17:33Z</time></trkpt>
<trkpt lat="46.3300300000000007" lon="7.5695000000000006"><ele></ele><time>2017-7-27T10:17:36Z</time></trkpt>
<trkpt lat="46.3300200000000046" lon="7.5693300000000008"><ele></ele><time>2017-7-27T10:17:39Z</time></trkpt>
<trkpt lat="46.3299600000000069" lon="7.5688500000000003"><ele></ele><time>2017-7-27T10:17:42Z</time></trkpt>
<trkpt lat="46.3298800000000028" lon="7.5687200000000008"><ele></ele><time>2017-7-27T10:17:45Z</time></trkpt>
<trkpt lat="46.3298900000000060" lon="7.5689200000000003"><ele></ele><time>2017-7-27T10:17:48Z</time></trkpt>
<trkpt lat="46.3299100000000053" lon="7.5689800000000007"><ele></ele><time>2017-7-27T10:17:51Z</time></trkpt>
<trkpt lat="46.3299200000000013" lon="7.5690400000000002"><ele></ele><time>2017-7-27T10:17:54Z</time></trkpt>
<trkpt lat="46.3299300000000045" lon="7.5691000000000006"><ele></ele><time>2017-7-27T10:17:57Z</time></trkpt>
<trkpt lat="46.3299000000000021" lon="7.5692800000000009"><ele></ele><time>2017-7-27T10:18:0Z</time></trkpt>
<trkpt lat="46.3298700000000068" lon="7.5694100000000004"><ele></ele><time>2017-7-27T10:18:3Z</time></trkpt>
<trkpt lat="46.3298600000000036" lon="7.5694900000000009"><ele></ele><time>2017-7-27T10:18:6Z</time></trkpt>
<trkpt lat="46.3298500000000004" lon="7.5695900000000007"><ele></ele><time>2017-7-27T10:18:9Z</time></trkpt>
<trkpt lat="46.3298600000000036" lon="7.5701900000000002"><ele></ele><time>2017-7-27T10:18:12Z</time></trkpt>
<trkpt lat="46.3298500000000004" lon="7.5705200000000010"><ele></ele><time>2017-7-27T10:18:15Z</time></trkpt>
<trkpt lat="46.3298300000000012" lon="7.5707600000000008"><ele></ele><time>2017-7-27T10:18:18Z</time></trkpt>
<trkpt lat="46.3298100000000019" lon="7.5708900000000003"><ele></ele><time>2017-7-27T10:18:21Z</time></trkpt>
<trkpt lat="46.3298000000000059" lon="7.5709000000000009"><ele></ele><time>2017-7-27T10:18:24Z</time></trkpt>
<trkpt lat="46.3297700000000034" lon="7.5710100000000002"><ele></ele><time>2017-7-27T10:18:27Z</time></trkpt>
<trkpt lat="46.3297500000000042" lon="7.5711200000000005"><ele></ele><time>2017-7-27T10:18:30Z</time></trkpt>
<trkpt lat="46.3297600000000003" lon="7.5711900000000005"><ele></ele><time>2017-7-27T10:18:33Z</time></trkpt>
<trkpt lat="46.3297800000000066" lon="7.5712500000000009"><ele></ele><time>2017-7-27T10:18:36Z</time></trkpt>
<trkpt lat="46.3298200000000051" lon="7.5713800000000004"><ele></ele><time>2017-7-27T10:18:39Z</time></trkpt>
<trkpt lat="46.3298300000000012" lon="7.5714500000000005"><ele></ele><time>2017-7-27T10:18:42Z</time></trkpt>
<trkpt lat="46.3298400000000044" lon="7.5715500000000002"><ele></ele><time>2017-7-27T10:18:45Z</time></trkpt>
<trkpt lat="46.3298300000000012" lon="7.5716500000000009"><ele></ele><time>2017-7-27T10:18:48Z</time></trkpt>
<trkpt lat="46.3298100000000019" lon="7.5717100000000004"><ele></ele><time>2017-7-27T10:18:51Z</time></trkpt>
<trkpt lat="46.3298000000000059" lon="7.5717600000000003"><ele></ele><time>2017-7-27T10:18:54Z</time></trkpt>
<trkpt lat="46.3297900000000027" lon="7.5718300000000003"><ele></ele><time>2017-7-27T10:18:57Z</time></trkpt>
<trkpt lat="46.3298100000000019" lon="7.5719400000000006"><ele></ele><time>2017-7-27T10:19:0Z</time></trkpt>
<trkpt lat="46.3297800000000066" lon="7.5721300000000005"><ele></ele><time>2017-7-27T10:19:3Z</time></trkpt>
<trkpt lat="46.3297600000000003" lon="7.5721800000000004"><ele></ele><time>2017-7-27T10:19:6Z</time></trkpt>
<trkpt lat="46.3297200000000018" lon="7.5722500000000004"><ele></ele><time>2017-7-27T10:19:9Z</time></trkpt>
<trkpt lat="46.3296500000000009" lon="7.5723800000000008"><ele></ele><time>2017-7-27T10:19:12Z</time></trkpt>
<trkpt lat="46.3296100000000024" lon="7.5725100000000003"><ele></ele><time>2017-7-27T10:19:15Z</time></trkpt>
<trkpt lat="46.3295900000000032" lon="7.5725800000000003"><ele></ele><time>2017-7-27T10:19:18Z</time></trkpt>
<trkpt lat="46.3295700000000039" lon="7.5726900000000006"><ele></ele><time>2017-7-27T10:19:21Z</time></trkpt>
<trkpt lat="46.3295600000000007" lon="7.5727700000000002"><ele></ele><time>2017-7-27T10:19:24Z</time></trkpt>
<trkpt lat="46.3295700000000039" lon="7.5729800000000003"><ele></ele><time>2017-7-27T10:19:27Z</time></trkpt>
<trkpt lat="46.3295800000000071" lon="7.5731500000000009"><ele></ele><time>2017-7-27T10:19:30Z</time></trkpt>
<trkpt lat="46.3295700000000039" lon="7.5732600000000003"><ele></ele><time>2017-7-27T10:19:33Z</time></trkpt>
<trkpt lat="46.3295800000000071" lon="7.5734500000000002"><ele></ele><time>2017-7-27T10:19:36Z</time></trkpt>
<trkpt lat="46.3296100000000024" lon="7.5735700000000010"><ele></ele><time>2017-7-27T10:19:39Z</time></trkpt>
<trkpt lat="46.3296400000000048" lon="7.5736700000000008"><ele></ele><time>2017-7-27T10:19:42Z</time></trkpt>
<trkpt lat="46.3296700000000072" lon="7.5737500000000004"><ele></ele><time>2017-7-27T10:19:45Z</time></trkpt>
<trkpt lat="46.3296800000000033" lon="7.5737900000000007"><ele></ele><time>2017-7-27T10:19:48Z</time></trkpt>
<trkpt lat="46.3296600000000041" lon="7.5739300000000007"><ele></ele><time>2017-7-27T10:19:51Z</time></trkpt>
<trkpt lat="46.3296500000000009" lon="7.5740200000000009"><ele></ele><time>2017-7-27T10:19:54Z</time></trkpt>
<trkpt lat="46.3296700000000072" lon="7.5741300000000003"><ele></ele><time>2017-7-27T10:19:57Z</time></trkpt>
<trkpt lat="46.3297100000000057" lon="7.5742300000000009"><ele></ele><time>2017-7-27T10:20:0Z</time></trkpt>
<trkpt lat="46.3297600000000003" lon="7.5743300000000007"><ele></ele><time>2017-7-27T10:20:3Z</time></trkpt>
<trkpt lat="46.3297900000000027" lon="7.5744100000000003"><ele></ele><time>2017-7-27T10:20:6Z</time></trkpt>
<trkpt lat="46.3298100000000019" lon="7.5744400000000009"><ele></ele><time>2017-7-27T10:20:9Z</time></trkpt>
<trkpt lat="46.3298300000000012" lon="7.5744900000000008"><ele></ele><time>2017-7-27T10:20:12Z</time></trkpt>
<trkpt lat="46.3298500000000004" lon="7.5745700000000005"><ele></ele><time>2017-7-27T10:20:15Z</time></trkpt>
<trkpt lat="46.3298700000000068" lon="7.5746300000000009"><ele></ele><time>2017-7-27T10:20:18Z</time></trkpt>
<trkpt lat="46.3298800000000028" lon="7.5746800000000007"><ele></ele><time>2017-7-27T10:20:21Z</time></trkpt>
<trkpt lat="46.3298700000000068" lon="7.5748300000000004"><ele></ele><time>2017-7-27T10:20:24Z</time></trkpt>
<trkpt lat="46.3298600000000036" lon="7.5749300000000011"><ele></ele><time>2017-7-27T10:20:27Z</time></trkpt>
<trkpt lat="46.3298800000000028" lon="7.5750200000000003"><ele></ele><time>2017-7-27T10:20:30Z</time></trkpt>
<trkpt lat="46.3298900000000060" lon="7.5750600000000006"><ele></ele><time>2017-7-27T10:20:33Z</time></trkpt>
<trkpt lat="46.3299000000000021" lon="7.5751000000000008"><ele></ele><time>2017-7-27T10:20:36Z</time></trkpt>
<trkpt lat="46.3298800000000028" lon="7.5754200000000003"><ele></ele><time>2017-7-27T10:20:39Z</time></trkpt>
<trkpt lat="46.3298700000000068" lon="7.5757100000000008"><ele></ele><time>2017-7-27T10:20:42Z</time></trkpt>
<trkpt lat="46.3298500000000004" lon="7.5760600000000009"><ele></ele><time>2017-7-27T10:20:45Z</time></trkpt>
<trkpt lat="46.3298200000000051" lon="7.5764700000000005"><ele></ele><time>2017-7-27T10:20:48Z</time></trkpt>
<trkpt lat="46.3298100000000019" lon="7.5768400000000007"><ele></ele><time>2017-7-27T10:20:51Z</time></trkpt>
<trkpt lat="46.3297700000000034" lon="7.5774200000000009"><ele></ele><time>2017-7-27T10:20:54Z</time></trkpt>
<trkpt lat="46.3297400000000010" lon="7.5780300000000009"><ele></ele><time>2017-7-27T10:20:57Z</time></trkpt>
<trkpt lat="46.3296900000000065" lon="7.5793800000000005"><ele></ele><time>2017-7-27T10:21:0Z</time></trkpt>
<trkpt lat="46.3296200000000056" lon="7.5802800000000010"><ele></ele><time>2017-7-27T10:21:3Z</time></trkpt>
<trkpt lat="46.3295600000000007" lon="7.5809300000000004"><ele></ele><time>2017-7-27T10:21:6Z</time></trkpt>
<trkpt lat="46.3295400000000015" lon="7.5812000000000008"><ele></ele><time>2017-7-27T10:21:9Z</time></trkpt>
<trkpt lat="46.3295100000000062" lon="7.5814400000000006"><ele></ele><time>2017-7-27T10:21:12Z</time></trkpt>
<trkpt lat="46.3295000000000030" lon="7.5815800000000007"><ele></ele><time>2017-7-27T10:21:15Z</time></trkpt>
<trkpt lat="46.3295500000000047" lon="7.5823500000000008"><ele></ele><time>2017-7-27T10:21:18Z</time></trkpt>
<trkpt lat="46.3296300000000016" lon="7.5828700000000007"><ele></ele><time>2017-7-27T10:21:21Z</time></trkpt>
<trkpt lat="46.3296500000000009" lon="7.5834100000000007"><ele></ele><time>2017-7-27T10:21:24Z</time></trkpt>
<trkpt lat="46.3297400000000010" lon="7.5844300000000002"><ele></ele><time>2017-7-27T10:21:27Z</time></trkpt>
<trkpt lat="46.3296800000000033" lon="7.5847600000000011"><ele></ele><time>2017-7-27T10:21:30Z</time></trkpt>
<trkpt lat="46.3296500000000009" lon="7.5851400000000009"><ele></ele><time>2017-7-27T10:21:33Z</time></trkpt>
<trkpt lat="46.3296700000000072" lon="7.5855600000000010"><ele></ele><time>2017-7-27T10:21:36Z</time></trkpt>
<trkpt lat="46.3296300000000016" lon="7.5860900000000004"><ele></ele><time>2017-7-27T10:21:39Z</time></trkpt>
<trkpt lat="46.3295900000000032" lon="7.5865100000000005"><ele></ele><time>2017-7-27T10:21:42Z</time></trkpt>
<trkpt lat="46.3294900000000069" lon="7.5862800000000004"><ele></ele><time>2017-7-27T10:21:45Z</time></trkpt>
<trkpt lat="46.3293900000000036" lon="7.5857800000000006"><ele></ele><time>2017-7-27T10:21:48Z</time></trkpt>
<trkpt lat="46.3292800000000042" lon="7.5851900000000008"><ele></ele><time>2017-7-27T10:21:51Z</time></trkpt>
<trkpt lat="46.3288900000000012" lon="7.5838300000000007"><ele></ele><time>2017-7-27T10:21:54Z</time></trkpt>
<trkpt lat="46.3287300000000073" lon="7.5833600000000008"><ele></ele><time>2017-7-27T10:21:57Z</time></trkpt>
<trkpt lat="46.3283300000000011" lon="7.5823600000000004"><ele></ele><time>2017-7-27T10:22:0Z</time></trkpt>
<trkpt lat="46.3281900000000064" lon="7.5820400000000010"><ele></ele><time>2017-7-27T10:22:3Z</time></trkpt>
<trkpt lat="46.3281000000000063" lon="7.5816000000000008"><ele></ele><time>2017-7-27T10:22:6Z</time></trkpt>
<trkpt lat="46.3280900000000031" lon="7.5815600000000005"><ele></ele><time>2017-7-27T10:22:9Z</time></trkpt>
<trkpt lat="46.3280700000000039" lon="7.5814200000000005"><ele></ele><time>2017-7-27T10:22:12Z</time></trkpt>
<trkpt lat="46.3279600000000045" lon="7.5813400000000009"><ele></ele><time>2017-7-27T10:22:15Z</time></trkpt>
<trkpt lat="46.3279400000000052" lon="7.5814600000000008"><ele></ele><time>2017-7-27T10:22:18Z</time></trkpt>
<trkpt lat="46.3279700000000005" lon="7.5816300000000005"><ele></ele><time>2017-7-27T10:22:21Z</time></trkpt>
<trkpt lat="46.3279600000000045" lon="7.5816500000000007"><ele></ele><time>2017-7-27T10:22:24Z</time></trkpt>
<trkpt lat="46.3279300000000021" lon="7.5822000000000003"><ele></ele><time>2017-7-27T10:22:27Z</time></trkpt>
<trkpt lat="46.3279000000000067" lon="7.5828200000000008"><ele></ele><time>2017-7-27T10:22:30Z</time></trkpt>
<trkpt lat="46.3278700000000043" lon="7.5833600000000008"><ele></ele><time>2017-7-27T10:22:33Z</time></trkpt>
<trkpt lat="46.3278900000000036" lon="7.5837200000000005"><ele></ele><time>2017-7-27T10:22:36Z</time></trkpt>
<trkpt lat="46.3279200000000060" lon="7.5838900000000002"><ele></ele><time>2017-7-27T10:22:39Z</time></trkpt>
<trkpt lat="46.3278400000000019" lon="7.5843200000000008"><ele></ele><time>2017-7-27T10:22:42Z</time></trkpt>
<trkpt lat="46.3276700000000048" lon="7.5846900000000010"><ele></ele><time>2017-7-27T10:22:45Z</time></trkpt>
<trkpt lat="46.3275700000000015" lon="7.5851000000000006"><ele></ele><time>2017-7-27T10:22:48Z</time></trkpt>
<trkpt lat="46.3275300000000030" lon="7.5857000000000010"><ele></ele><time>2017-7-27T10:22:51Z</time></trkpt>
<trkpt lat="46.3274900000000045" lon="7.5860900000000004"><ele></ele><time>2017-7-27T10:22:54Z</time></trkpt>
<trkpt lat="46.3273700000000019" lon="7.5863100000000010"><ele></ele><time>2017-7-27T10:22:57Z</time></trkpt>
<trkpt lat="46.3271500000000032" lon="7.5866400000000009"><ele></ele><time>2017-7-27T10:23:0Z</time></trkpt>
<trkpt lat="46.3270400000000038" lon="7.5868300000000009"><ele></ele><time>2017-7-27T10:23:3Z</time></trkpt>
<trkpt lat="46.3271400000000071" lon="7.5872800000000007"><ele></ele><time>2017-7-27T10:23:6Z</time></trkpt>
<trkpt lat="46.3272100000000009" lon="7.5875200000000005"><ele></ele><time>2017-7-27T10:23:9Z</time></trkpt>
<trkpt lat="46.3273000000000010" lon="7.5877200000000009"><ele></ele><time>2017-7-27T10:23:12Z</time></trkpt>
<trkpt lat="46.3272900000000050" lon="7.5879200000000004"><ele></ele><time>2017-7-27T10:23:15Z</time></trkpt>
<trkpt lat="46.3273200000000003" lon="7.5888900000000010"><ele></ele><time>2017-7-27T10:23:18Z</time></trkpt>
<trkpt lat="46.3272600000000025" lon="7.5893000000000006"><ele></ele><time>2017-7-27T10:23:21Z</time></trkpt>
<trkpt lat="46.3271300000000039" lon="7.5895000000000010"><ele></ele><time>2017-7-27T10:23:24Z</time></trkpt>
<trkpt lat="46.3270400000000038" lon="7.5895300000000008"><ele></ele><time>2017-7-27T10:23:27Z</time></trkpt>
<trkpt lat="46.3262200000000064" lon="7.5893700000000006"><ele></ele><time>2017-7-27T10:23:30Z</time></trkpt>
<trkpt lat="46.3259400000000028" lon="7.5894200000000005"><ele></ele><time>2017-7-27T10:23:33Z</time></trkpt>
<trkpt lat="46.3255700000000061" lon="7.5895600000000005"><ele></ele><time>2017-7-27T10:23:36Z</time></trkpt>
<trkpt lat="46.3253500000000003" lon="7.5898200000000005"><ele></ele><time>2017-7-27T10:23:39Z</time></trkpt>
<trkpt lat="46.3250800000000069" lon="7.5902700000000003"><ele></ele><time>2017-7-27T10:23:42Z</time></trkpt>
<trkpt lat="46.3249400000000051" lon="7.5905600000000009"><ele></ele><time>2017-7-27T10:23:45Z</time></trkpt>
<trkpt lat="46.3248600000000010" lon="7.5908600000000011"><ele></ele><time>2017-7-27T10:23:48Z</time></trkpt>
<trkpt lat="46.3247100000000032" lon="7.5908900000000008"><ele></ele><time>2017-7-27T10:23:51Z</time></trkpt>
<trkpt lat="46.3246200000000030" lon="7.5910000000000002"><ele></ele><time>2017-7-27T10:23:54Z</time></trkpt>
<trkpt lat="46.3245300000000029" lon="7.5911800000000005"><ele></ele><time>2017-7-27T10:23:57Z</time></trkpt>
<trkpt lat="46.3244400000000027" lon="7.5915200000000009"><ele></ele><time>2017-7-27T10:24:0Z</time></trkpt>
<trkpt lat="46.3244300000000067" lon="7.5917700000000004"><ele></ele><time>2017-7-27T10:24:3Z</time></trkpt>
<trkpt lat="46.3243400000000065" lon="7.5919600000000003"><ele></ele><time>2017-7-27T10:24:6Z</time></trkpt>
<trkpt lat="46.3241600000000062" lon="7.5922100000000006"><ele></ele><time>2017-7-27T10:24:9Z</time></trkpt>
<trkpt lat="46.3239000000000019" lon="7.5926100000000005"><ele></ele><time>2017-7-27T10:24:12Z</time></trkpt>
<trkpt lat="46.3236700000000070" lon="7.5929500000000010"><ele></ele><time>2017-7-27T10:24:15Z</time></trkpt>
<trkpt lat="46.3235300000000052" lon="7.5932200000000005"><ele></ele><time>2017-7-27T10:24:18Z</time></trkpt>
<trkpt lat="46.3233800000000073" lon="7.5935100000000002"><ele></ele><time>2017-7-27T10:24:21Z</time></trkpt>
<trkpt lat="46.3233500000000049" lon="7.5936900000000005"><ele></ele><time>2017-7-27T10:24:24Z</time></trkpt>
<trkpt lat="46.3233400000000017" lon="7.5940200000000004"><ele></ele><time>2017-7-27T10:24:27Z</time></trkpt>
<trkpt lat="46.3233200000000025" lon="7.5944700000000003"><ele></ele><time>2017-7-27T10:24:30Z</time></trkpt>
<trkpt lat="46.3232600000000048" lon="7.5946500000000006"><ele></ele><time>2017-7-27T10:24:33Z</time></trkpt>
<trkpt lat="46.3232000000000070" lon="7.5947500000000003"><ele></ele><time>2017-7-27T10:24:36Z</time></trkpt>
<trkpt lat="46.3231300000000061" lon="7.5949700000000009"><ele></ele><time>2017-7-27T10:24:39Z</time></trkpt>
<trkpt lat="46.3231100000000069" lon="7.5951900000000006"><ele></ele><time>2017-7-27T10:24:42Z</time></trkpt>
<trkpt lat="46.3230300000000028" lon="7.5953700000000008"><ele></ele><time>2017-7-27T10:24:45Z</time></trkpt>
<trkpt lat="46.3229400000000027" lon="7.5954500000000005"><ele></ele><time>2017-7-27T10:24:48Z</time></trkpt>
<trkpt lat="46.3228100000000040" lon="7.5956200000000003"><ele></ele><time>2017-7-27T10:24:51Z</time></trkpt>
<trkpt lat="46.3226700000000022" lon="7.5958000000000006"><ele></ele><time>2017-7-27T10:24:54Z</time></trkpt>
<trkpt lat="46.3225800000000021" lon="7.5959000000000003"><ele></ele><time>2017-7-27T10:24:57Z</time></trkpt>
<trkpt lat="46.3223600000000033" lon="7.5960000000000010"><ele></ele><time>2017-7-27T10:25:0Z</time></trkpt>
<trkpt lat="46.3221500000000006" lon="7.5961400000000010"><ele></ele><time>2017-7-27T10:25:3Z</time></trkpt>
<trkpt lat="46.3220600000000005" lon="7.5962800000000010"><ele></ele><time>2017-7-27T10:25:6Z</time></trkpt>
<trkpt lat="46.3219600000000042" lon="7.5964700000000009"><ele></ele><time>2017-7-27T10:25:9Z</time></trkpt>
<trkpt lat="46.3219200000000058" lon="7.5966300000000002"><ele></ele><time>2017-7-27T10:25:12Z</time></trkpt>
<trkpt lat="46.3218600000000009" lon="7.5967500000000010"><ele></ele><time>2017-7-27T10:25:15Z</time></trkpt>
<trkpt lat="46.3217000000000070" lon="7.5968600000000004"><ele></ele><time>2017-7-27T10:25:18Z</time></trkpt>
<trkpt lat="46.3215100000000035" lon="7.5969200000000008"><ele></ele><time>2017-7-27T10:25:21Z</time></trkpt>
<trkpt lat="46.3214300000000065" lon="7.5969600000000010"><ele></ele><time>2017-7-27T10:25:24Z</time></trkpt>
<trkpt lat="46.3213300000000032" lon="7.5970500000000003"><ele></ele><time>2017-7-27T10:25:27Z</time></trkpt>
<trkpt lat="46.3212900000000047" lon="7.5971900000000003"><ele></ele><time>2017-7-27T10:25:30Z</time></trkpt>
<trkpt lat="46.3212500000000063" lon="7.5973600000000010"><ele></ele><time>2017-7-27T10:25:33Z</time></trkpt>
<trkpt lat="46.3212300000000070" lon="7.5976100000000004"><ele></ele><time>2017-7-27T10:25:36Z</time></trkpt>
<trkpt lat="46.3212500000000063" lon="7.5980400000000010"><ele></ele><time>2017-7-27T10:25:39Z</time></trkpt>
<trkpt lat="46.3212900000000047" lon="7.5982800000000008"><ele></ele><time>2017-7-27T10:25:42Z</time></trkpt>
<trkpt lat="46.3213300000000032" lon="7.5985100000000010"><ele></ele><time>2017-7-27T10:25:45Z</time></trkpt>
<trkpt lat="46.3214900000000043" lon="7.5989000000000004"><ele></ele><time>2017-7-27T10:25:48Z</time></trkpt>
<trkpt lat="46.3216200000000029" lon="7.5992700000000006"><ele></ele><time>2017-7-27T10:25:51Z</time></trkpt>
<trkpt lat="46.3217600000000047" lon="7.5996300000000003"><ele></ele><time>2017-7-27T10:25:54Z</time></trkpt>
<trkpt lat="46.3218500000000049" lon="7.5998300000000008"><ele></ele><time>2017-7-27T10:25:57Z</time></trkpt>
<trkpt lat="46.3219700000000003" lon="7.6001800000000008"><ele></ele><time>2017-7-27T10:26:0Z</time></trkpt>
<trkpt lat="46.3221000000000060" lon="7.6005400000000005"><ele></ele><time>2017-7-27T10:26:3Z</time></trkpt>
<trkpt lat="46.3221900000000062" lon="7.6009300000000009"><ele></ele><time>2017-7-27T10:26:6Z</time></trkpt>
<trkpt lat="46.3223600000000033" lon="7.6018200000000009"><ele></ele><time>2017-7-27T10:26:9Z</time></trkpt>
<trkpt lat="46.3223800000000026" lon="7.6019600000000009"><ele></ele><time>2017-7-27T10:26:12Z</time></trkpt>
<trkpt lat="46.3223500000000072" lon="7.6025800000000006"><ele></ele><time>2017-7-27T10:26:15Z</time></trkpt>
<trkpt lat="46.3221400000000045" lon="7.6028700000000002"><ele></ele><time>2017-7-27T10:26:18Z</time></trkpt>
<trkpt lat="46.3219500000000011" lon="7.6031500000000003"><ele></ele><time>2017-7-27T10:26:21Z</time></trkpt>
<trkpt lat="46.3218600000000009" lon="7.6033600000000003"><ele></ele><time>2017-7-27T10:26:24Z</time></trkpt>
<trkpt lat="46.3218900000000033" lon="7.6036400000000004"><ele></ele><time>2017-7-27T10:26:27Z</time></trkpt>
<trkpt lat="46.3219000000000065" lon="7.6037400000000011"><ele></ele><time>2017-7-27T10:26:30Z</time></trkpt>
<trkpt lat="46.3219100000000026" lon="7.6038300000000003"><ele></ele><time>2017-7-27T10:26:33Z</time></trkpt>
<trkpt lat="46.3218800000000073" lon="7.6039500000000002"><ele></ele><time>2017-7-27T10:26:36Z</time></trkpt>
<trkpt lat="46.3218400000000017" lon="7.6040200000000002"><ele></ele><time>2017-7-27T10:26:39Z</time></trkpt>
<trkpt lat="46.3217700000000008" lon="7.6040900000000002"><ele></ele><time>2017-7-27T10:26:42Z</time></trkpt>
<trkpt lat="46.3216800000000006" lon="7.6043400000000005"><ele></ele><time>2017-7-27T10:26:45Z</time></trkpt>
<trkpt lat="46.3216100000000068" lon="7.6046300000000002"><ele></ele><time>2017-7-27T10:26:48Z</time></trkpt>
<trkpt lat="46.3215400000000059" lon="7.6048600000000004"><ele></ele><time>2017-7-27T10:26:51Z</time></trkpt>
<trkpt lat="46.3215300000000028" lon="7.6050900000000006"><ele></ele><time>2017-7-27T10:26:54Z</time></trkpt>
<trkpt lat="46.3215400000000059" lon="7.6053000000000006"><ele></ele><time>2017-7-27T10:26:57Z</time></trkpt>
<trkpt lat="46.3216400000000021" lon="7.6055800000000007"><ele></ele><time>2017-7-27T10:27:0Z</time></trkpt>
<trkpt lat="46.3217500000000015" lon="7.6058600000000007"><ele></ele><time>2017-7-27T10:27:3Z</time></trkpt>
<trkpt lat="46.3218200000000024" lon="7.6060400000000010"><ele></ele><time>2017-7-27T10:27:6Z</time></trkpt>
<trkpt lat="46.3218400000000017" lon="7.6064600000000002"><ele></ele><time>2017-7-27T10:27:9Z</time></trkpt>
<trkpt lat="46.3218700000000041" lon="7.6072700000000006"><ele></ele><time>2017-7-27T10:27:12Z</time></trkpt>
<trkpt lat="46.3219200000000058" lon="7.6075900000000010"><ele></ele><time>2017-7-27T10:27:15Z</time></trkpt>
<trkpt lat="46.3219800000000035" lon="7.6079800000000004"><ele></ele><time>2017-7-27T10:27:18Z</time></trkpt>
<trkpt lat="46.3220500000000044" lon="7.6083200000000009"><ele></ele><time>2017-7-27T10:27:21Z</time></trkpt>
<trkpt lat="46.3221100000000021" lon="7.6085500000000010"><ele></ele><time>2017-7-27T10:27:24Z</time></trkpt>
<trkpt lat="46.3221600000000038" lon="7.6087500000000006"><ele></ele><time>2017-7-27T10:27:27Z</time></trkpt>
<trkpt lat="46.3222100000000054" lon="7.6089800000000007"><ele></ele><time>2017-7-27T10:27:30Z</time></trkpt>
<trkpt lat="46.3222200000000015" lon="7.6091300000000004"><ele></ele><time>2017-7-27T10:27:33Z</time></trkpt>
<trkpt lat="46.3222000000000023" lon="7.6092200000000005"><ele></ele><time>2017-7-27T10:27:36Z</time></trkpt>
<trkpt lat="46.3221000000000060" lon="7.6094300000000006"><ele></ele><time>2017-7-27T10:27:39Z</time></trkpt>
<trkpt lat="46.3221100000000021" lon="7.6095700000000006"><ele></ele><time>2017-7-27T10:27:42Z</time></trkpt>
<trkpt lat="46.3221700000000070" lon="7.6097600000000005"><ele></ele><time>2017-7-27T10:27:45Z</time></trkpt>
<trkpt lat="46.3222200000000015" lon="7.6098600000000003"><ele></ele><time>2017-7-27T10:27:48Z</time></trkpt>
<trkpt lat="46.3222600000000071" lon="7.6101400000000003"><ele></ele><time>2017-7-27T10:27:51Z</time></trkpt>
<trkpt lat="46.3222500000000039" lon="7.6104400000000005"><ele></ele><time>2017-7-27T10:27:54Z</time></trkpt>
<trkpt lat="46.3222400000000007" lon="7.6106100000000003"><ele></ele><time>2017-7-27T10:27:57Z</time></trkpt>
<trkpt lat="46.3221600000000038" lon="7.6108600000000006"><ele></ele><time>2017-7-27T10:28:0Z</time></trkpt>
<trkpt lat="46.3221000000000060" lon="7.6110500000000005"><ele></ele><time>2017-7-27T10:28:3Z</time></trkpt>
<trkpt lat="46.3221600000000038" lon="7.6116500000000009"><ele></ele><time>2017-7-27T10:28:6Z</time></trkpt>
<trkpt lat="46.3222300000000047" lon="7.6119100000000008"><ele></ele><time>2017-7-27T10:28:9Z</time></trkpt>
<trkpt lat="46.3222600000000071" lon="7.6120200000000002"><ele></ele><time>2017-7-27T10:28:12Z</time></trkpt>
<trkpt lat="46.3223200000000048" lon="7.6122500000000004"><ele></ele><time>2017-7-27T10:28:15Z</time></trkpt>
<trkpt lat="46.3223900000000057" lon="7.6125500000000006"><ele></ele><time>2017-7-27T10:28:18Z</time></trkpt>
<trkpt lat="46.3224200000000010" lon="7.6127800000000008"><ele></ele><time>2017-7-27T10:28:21Z</time></trkpt>
<trkpt lat="46.3223800000000026" lon="7.6130500000000003"><ele></ele><time>2017-7-27T10:28:24Z</time></trkpt>
<trkpt lat="46.3223300000000009" lon="7.6132800000000005"><ele></ele><time>2017-7-27T10:28:27Z</time></trkpt>
<trkpt lat="46.3223500000000072" lon="7.6135100000000007"><ele></ele><time>2017-7-27T10:28:30Z</time></trkpt>
<trkpt lat="46.3223900000000057" lon="7.6136400000000002"><ele></ele><time>2017-7-27T10:28:33Z</time></trkpt>
<trkpt lat="46.3224100000000050" lon="7.6138200000000005"><ele></ele><time>2017-7-27T10:28:36Z</time></trkpt>
<trkpt lat="46.3224000000000018" lon="7.6141200000000007"><ele></ele><time>2017-7-27T10:28:39Z</time></trkpt>
<trkpt lat="46.3223700000000065" lon="7.6146400000000005"><ele></ele><time>2017-7-27T10:28:42Z</time></trkpt>
<trkpt lat="46.3223300000000009" lon="7.6154200000000003"><ele></ele><time>2017-7-27T10:28:45Z</time></trkpt>
<trkpt lat="46.3222000000000023" lon="7.6161300000000010"><ele></ele><time>2017-7-27T10:28:48Z</time></trkpt>
<trkpt lat="46.3221300000000014" lon="7.6167100000000003"><ele></ele><time>2017-7-27T10:28:51Z</time></trkpt>
<trkpt lat="46.3220700000000036" lon="7.6169500000000010"><ele></ele><time>2017-7-27T10:28:54Z</time></trkpt>
<trkpt lat="46.3220900000000029" lon="7.6169900000000004"><ele></ele><time>2017-7-27T10:28:57Z</time></trkpt>
<trkpt lat="46.3220700000000036" lon="7.6169500000000010"><ele></ele><time>2017-7-27T10:29:0Z</time></trkpt>
<trkpt lat="46.3220200000000020" lon="7.6166700000000009"><ele></ele><time>2017-7-27T10:29:3Z</time></trkpt>
<trkpt lat="46.3220000000000027" lon="7.6165800000000008"><ele></ele><time>2017-7-27T10:29:6Z</time></trkpt>
<trkpt lat="46.3219700000000003" lon="7.6165300000000009"><ele></ele><time>2017-7-27T10:29:9Z</time></trkpt>
<trkpt lat="46.3219100000000026" lon="7.6165000000000003"><ele></ele><time>2017-7-27T10:29:12Z</time></trkpt>
<trkpt lat="46.3218700000000041" lon="7.6165700000000003"><ele></ele><time>2017-7-27T10:29:15Z</time></trkpt>
<trkpt lat="46.3218900000000033" lon="7.6170800000000005"><ele></ele><time>2017-7-27T10:29:18Z</time></trkpt>
<trkpt lat="46.3219500000000011" lon="7.6172800000000009"><ele></ele><time>2017-7-27T10:29:21Z</time></trkpt>
<trkpt lat="46.3219900000000067" lon="7.6174200000000010"><ele></ele><time>2017-7-27T10:29:24Z</time></trkpt>
<trkpt lat="46.3219800000000035" lon="7.6174700000000009"><ele></ele><time>2017-7-27T10:29:27Z</time></trkpt>
<trkpt lat="46.3219400000000050" lon="7.6175000000000006"><ele></ele><time>2017-7-27T10:29:30Z</time></trkpt>
<trkpt lat="46.3218900000000033" lon="7.6174900000000010"><ele></ele><time>2017-7-27T10:29:33Z</time></trkpt>
<trkpt lat="46.3217600000000047" lon="7.6172600000000008"><ele></ele><time>2017-7-27T10:29:36Z</time></trkpt>
<trkpt lat="46.3217200000000062" lon="7.6169200000000004"><ele></ele><time>2017-7-27T10:29:39Z</time></trkpt>
<trkpt lat="46.3215900000000005" lon="7.6164100000000010"><ele></ele><time>2017-7-27T10:29:42Z</time></trkpt>
<trkpt lat="46.3215600000000052" lon="7.6162500000000009"><ele></ele><time>2017-7-27T10:29:45Z</time></trkpt>
<trkpt lat="46.3214800000000011" lon="7.6157600000000008"><ele></ele><time>2017-7-27T10:29:48Z</time></trkpt>
<trkpt lat="46.3214100000000073" lon="7.6153400000000007"><ele></ele><time>2017-7-27T10:29:51Z</time></trkpt>
<trkpt lat="46.3212800000000016" lon="7.6149200000000006"><ele></ele><time>2017-7-27T10:29:54Z</time></trkpt>
<trkpt lat="46.3211300000000037" lon="7.6146400000000005"><ele></ele><time>2017-7-27T10:29:57Z</time></trkpt>
<trkpt lat="46.3210200000000043" lon="7.6144000000000007"><ele></ele><time>2017-7-27T10:30:0Z</time></trkpt>
<trkpt lat="46.3209100000000049" lon="7.6140300000000005"><ele></ele><time>2017-7-27T10:30:3Z</time></trkpt>
<trkpt lat="46.3207800000000063" lon="7.6136500000000007"><ele></ele><time>2017-7-27T10:30:6Z</time></trkpt>
<trkpt lat="46.3207400000000007" lon="7.6133800000000003"><ele></ele><time>2017-7-27T10:30:9Z</time></trkpt>
<trkpt lat="46.3207700000000031" lon="7.6131800000000007"><ele></ele><time>2017-7-27T10:30:12Z</time></trkpt>
<trkpt lat="46.3207500000000039" lon="7.6128700000000009"><ele></ele><time>2017-7-27T10:30:15Z</time></trkpt>
<trkpt lat="46.3206600000000037" lon="7.6125000000000007"><ele></ele><time>2017-7-27T10:30:18Z</time></trkpt>
<trkpt lat="46.3203400000000016" lon="7.6115100000000009"><ele></ele><time>2017-7-27T10:30:21Z</time></trkpt>
<trkpt lat="46.3202300000000022" lon="7.6113500000000007"><ele></ele><time>2017-7-27T10:30:24Z</time></trkpt>
<trkpt lat="46.3202000000000069" lon="7.6115100000000009"><ele></ele><time>2017-7-27T10:30:27Z</time></trkpt>
<trkpt lat="46.3201900000000037" lon="7.6117800000000004"><ele></ele><time>2017-7-27T10:30:30Z</time></trkpt>
<trkpt lat="46.3202200000000062" lon="7.6120700000000010"><ele></ele><time>2017-7-27T10:30:33Z</time></trkpt>
<trkpt lat="46.3202800000000039" lon="7.6124200000000002"><ele></ele><time>2017-7-27T10:30:36Z</time></trkpt>
<trkpt lat="46.3203400000000016" lon="7.6127500000000010"><ele></ele><time>2017-7-27T10:30:39Z</time></trkpt>
<trkpt lat="46.3203600000000009" lon="7.6129900000000008"><ele></ele><time>2017-7-27T10:30:42Z</time></trkpt>
<trkpt lat="46.3203300000000056" lon="7.6131400000000005"><ele></ele><time>2017-7-27T10:30:45Z</time></trkpt>
<trkpt lat="46.3202600000000047" lon="7.6132500000000007"><ele></ele><time>2017-7-27T10:30:48Z</time></trkpt>
<trkpt lat="46.3203800000000072" lon="7.6137500000000005"><ele></ele><time>2017-7-27T10:30:51Z</time></trkpt>
<trkpt lat="46.3205000000000027" lon="7.6143200000000002"><ele></ele><time>2017-7-27T10:30:54Z</time></trkpt>
<trkpt lat="46.3206600000000037" lon="7.6150600000000006"><ele></ele><time>2017-7-27T10:30:57Z</time></trkpt>
<trkpt lat="46.3207600000000070" lon="7.6157200000000005"><ele></ele><time>2017-7-27T10:31:0Z</time></trkpt>
<trkpt lat="46.3208000000000055" lon="7.6164200000000006"><ele></ele><time>2017-7-27T10:31:3Z</time></trkpt>
<trkpt lat="46.3207800000000063" lon="7.6170600000000004"><ele></ele><time>2017-7-27T10:31:6Z</time></trkpt>
<trkpt lat="46.3207100000000054" lon="7.6175800000000002"><ele></ele><time>2017-7-27T10:31:9Z</time></trkpt>
<trkpt lat="46.3206400000000045" lon="7.6179600000000010"><ele></ele><time>2017-7-27T10:31:12Z</time></trkpt>
<trkpt lat="46.3205900000000028" lon="7.6181500000000009"><ele></ele><time>2017-7-27T10:31:15Z</time></trkpt>
<trkpt lat="46.3205500000000043" lon="7.6182700000000008"><ele></ele><time>2017-7-27T10:31:18Z</time></trkpt>
<trkpt lat="46.3205300000000051" lon="7.6183600000000009"><ele></ele><time>2017-7-27T10:31:21Z</time></trkpt>
<trkpt lat="46.3203100000000063" lon="7.6189800000000005"><ele></ele><time>2017-7-27T10:31:24Z</time></trkpt>
<trkpt lat="46.3201600000000013" lon="7.6194200000000007"><ele></ele><time>2017-7-27T10:31:27Z</time></trkpt>
<trkpt lat="46.3201400000000021" lon="7.6194700000000006"><ele></ele><time>2017-7-27T10:31:30Z</time></trkpt>
<trkpt lat="46.3201200000000028" lon="7.6195200000000005"><ele></ele><time>2017-7-27T10:31:33Z</time></trkpt>
<trkpt lat="46.3200100000000035" lon="7.6198300000000003"><ele></ele><time>2017-7-27T10:31:36Z</time></trkpt>
<trkpt lat="46.3197500000000062" lon="7.6204800000000006"><ele></ele><time>2017-7-27T10:31:39Z</time></trkpt>
<trkpt lat="46.3195900000000051" lon="7.6209100000000003"><ele></ele><time>2017-7-27T10:31:42Z</time></trkpt>
<trkpt lat="46.3194800000000058" lon="7.6213300000000004"><ele></ele><time>2017-7-27T10:31:45Z</time></trkpt>
<trkpt lat="46.3194300000000041" lon="7.6216800000000005"><ele></ele><time>2017-7-27T10:31:48Z</time></trkpt>
<trkpt lat="46.3193400000000040" lon="7.6224300000000005"><ele></ele><time>2017-7-27T10:31:51Z</time></trkpt>
<trkpt lat="46.3192000000000021" lon="7.6238000000000010"><ele></ele><time>2017-7-27T10:31:54Z</time></trkpt>
<trkpt lat="46.3190000000000026" lon="7.6258200000000009"><ele></ele><time>2017-7-27T10:31:57Z</time></trkpt>
<trkpt lat="46.3189700000000073" lon="7.6261800000000006"><ele></ele><time>2017-7-27T10:32:0Z</time></trkpt>
<trkpt lat="46.3189300000000017" lon="7.6266300000000005"><ele></ele><time>2017-7-27T10:32:3Z</time></trkpt>
<trkpt lat="46.3189200000000056" lon="7.6266700000000007"><ele></ele><time>2017-7-27T10:32:6Z</time></trkpt>
<trkpt lat="46.3189100000000025" lon="7.6268500000000010"><ele></ele><time>2017-7-27T10:32:9Z</time></trkpt>
<trkpt lat="46.3189000000000064" lon="7.6269900000000010"><ele></ele><time>2017-7-27T10:32:12Z</time></trkpt>
<trkpt lat="46.3188500000000047" lon="7.6277100000000004"><ele></ele><time>2017-7-27T10:32:15Z</time></trkpt>
<trkpt lat="46.3189400000000049" lon="7.6287600000000007"><ele></ele><time>2017-7-27T10:32:18Z</time></trkpt>
<trkpt lat="46.3189800000000034" lon="7.6288600000000004"><ele></ele><time>2017-7-27T10:32:21Z</time></trkpt>
<trkpt lat="46.3190100000000058" lon="7.6289500000000006"><ele></ele><time>2017-7-27T10:32:24Z</time></trkpt>
<trkpt lat="46.3190400000000011" lon="7.6290900000000006"><ele></ele><time>2017-7-27T10:32:27Z</time></trkpt>
<trkpt lat="46.3190800000000067" lon="7.6294300000000010"><ele></ele><time>2017-7-27T10:32:30Z</time></trkpt>
<trkpt lat="46.3191500000000005" lon="7.6300500000000007"><ele></ele><time>2017-7-27T10:32:33Z</time></trkpt>
<trkpt lat="46.3192800000000062" lon="7.6307800000000006"><ele></ele><time>2017-7-27T10:32:36Z</time></trkpt>
<trkpt lat="46.3193100000000015" lon="7.6310500000000010"><ele></ele><time>2017-7-27T10:32:39Z</time></trkpt>
<trkpt lat="46.3193200000000047" lon="7.6313000000000004"><ele></ele><time>2017-7-27T10:32:42Z</time></trkpt>
<trkpt lat="46.3193100000000015" lon="7.6315200000000010"><ele></ele><time>2017-7-27T10:32:45Z</time></trkpt>
<trkpt lat="46.3193000000000055" lon="7.6317500000000003"><ele></ele><time>2017-7-27T10:32:48Z</time></trkpt>
<trkpt lat="46.3193500000000071" lon="7.6319600000000003"><ele></ele><time>2017-7-27T10:32:51Z</time></trkpt>
<trkpt lat="46.3193600000000032" lon="7.6320400000000008"><ele></ele><time>2017-7-27T10:32:54Z</time></trkpt>
<trkpt lat="46.3194500000000033" lon="7.6325400000000005"><ele></ele><time>2017-7-27T10:32:57Z</time></trkpt>
<trkpt lat="46.3194900000000018" lon="7.6328300000000002"><ele></ele><time>2017-7-27T10:33:0Z</time></trkpt>
<trkpt lat="46.3195100000000011" lon="7.6331000000000007"><ele></ele><time>2017-7-27T10:33:3Z</time></trkpt>
<trkpt lat="46.3194900000000018" lon="7.6332000000000004"><ele></ele><time>2017-7-27T10:33:6Z</time></trkpt>
<trkpt lat="46.3194800000000058" lon="7.6332900000000006"><ele></ele><time>2017-7-27T10:33:9Z</time></trkpt>
<trkpt lat="46.3194700000000026" lon="7.6335000000000006"><ele></ele><time>2017-7-27T10:33:12Z</time></trkpt>
<trkpt lat="46.3194400000000073" lon="7.6336600000000008"><ele></ele><time>2017-7-27T10:33:15Z</time></trkpt>
<trkpt lat="46.3194200000000009" lon="7.6337100000000007"><ele></ele><time>2017-7-27T10:33:18Z</time></trkpt>
<trkpt lat="46.3194400000000073" lon="7.6336600000000008"><ele></ele><time>2017-7-27T10:33:21Z</time></trkpt>
<trkpt lat="46.3194700000000026" lon="7.6335000000000006"><ele></ele><time>2017-7-27T10:33:24Z</time></trkpt>
<trkpt lat="46.3194800000000058" lon="7.6332900000000006"><ele></ele><time>2017-7-27T10:33:27Z</time></trkpt>
<trkpt lat="46.3194100000000049" lon="7.6333000000000002"><ele></ele><time>2017-7-27T10:33:30Z</time></trkpt>
<trkpt lat="46.3193900000000056" lon="7.6333100000000007"><ele></ele><time>2017-7-27T10:33:33Z</time></trkpt>
<trkpt lat="46.3193700000000064" lon="7.6333400000000005"><ele></ele><time>2017-7-27T10:33:36Z</time></trkpt>
<trkpt lat="46.3193400000000040" lon="7.6333800000000007"><ele></ele><time>2017-7-27T10:33:39Z</time></trkpt>
<trkpt lat="46.3193200000000047" lon="7.6334400000000002"><ele></ele><time>2017-7-27T10:33:42Z</time></trkpt>
<trkpt lat="46.3193100000000015" lon="7.6335100000000002"><ele></ele><time>2017-7-27T10:33:45Z</time></trkpt>
<trkpt lat="46.3193000000000055" lon="7.6335900000000008"><ele></ele><time>2017-7-27T10:33:48Z</time></trkpt>
<trkpt lat="46.3192900000000023" lon="7.6336700000000004"><ele></ele><time>2017-7-27T10:33:51Z</time></trkpt>
<trkpt lat="46.3192800000000062" lon="7.6337800000000007"><ele></ele><time>2017-7-27T10:33:54Z</time></trkpt>
<trkpt lat="46.3192600000000070" lon="7.6338400000000002"><ele></ele><time>2017-7-27T10:33:57Z</time></trkpt>
<trkpt lat="46.3192400000000006" lon="7.6338900000000010"><ele></ele><time>2017-7-27T10:34:0Z</time></trkpt>
<trkpt lat="46.3192300000000046" lon="7.6339200000000007"><ele></ele><time>2017-7-27T10:34:3Z</time></trkpt>
<trkpt lat="46.3192100000000053" lon="7.6339600000000010"><ele></ele><time>2017-7-27T10:34:6Z</time></trkpt>
<trkpt lat="46.3191900000000061" lon="7.6339800000000002"><ele></ele><time>2017-7-27T10:34:9Z</time></trkpt>
<trkpt lat="46.3191600000000037" lon="7.6340000000000003"><ele></ele><time>2017-7-27T10:34:12Z</time></trkpt>
<trkpt lat="46.3190800000000067" lon="7.6340400000000006"><ele></ele><time>2017-7-27T10:34:15Z</time></trkpt>
<trkpt lat="46.3189200000000056" lon="7.6340900000000005"><ele></ele><time>2017-7-27T10:34:18Z</time></trkpt>
<trkpt lat="46.3188500000000047" lon="7.6341100000000006"><ele></ele><time>2017-7-27T10:34:21Z</time></trkpt>
<trkpt lat="46.3187700000000007" lon="7.6341300000000007"><ele></ele><time>2017-7-27T10:34:24Z</time></trkpt>
<trkpt lat="46.3187100000000029" lon="7.6341200000000002"><ele></ele><time>2017-7-27T10:34:27Z</time></trkpt>
<trkpt lat="46.3186500000000052" lon="7.6340900000000005"><ele></ele><time>2017-7-27T10:34:30Z</time></trkpt>
<trkpt lat="46.3185300000000026" lon="7.6340200000000005"><ele></ele><time>2017-7-27T10:34:33Z</time></trkpt>
<trkpt lat="46.3184400000000025" lon="7.6339500000000005"><ele></ele><time>2017-7-27T10:34:36Z</time></trkpt>
<trkpt lat="46.3183900000000008" lon="7.6338900000000010"><ele></ele><time>2017-7-27T10:34:39Z</time></trkpt>
<trkpt lat="46.3183500000000024" lon="7.6338400000000002"><ele></ele><time>2017-7-27T10:34:42Z</time></trkpt>
<trkpt lat="46.3182900000000046" lon="7.6338800000000004"><ele></ele><time>2017-7-27T10:34:45Z</time></trkpt>
<trkpt lat="46.3182300000000069" lon="7.6338700000000008"><ele></ele><time>2017-7-27T10:34:48Z</time></trkpt>
<trkpt lat="46.3180100000000010" lon="7.6337200000000003"><ele></ele><time>2017-7-27T10:34:51Z</time></trkpt>
<trkpt lat="46.3179700000000025" lon="7.6337000000000010"><ele></ele><time>2017-7-27T10:34:54Z</time></trkpt>
<trkpt lat="46.3179100000000048" lon="7.6337300000000008"><ele></ele><time>2017-7-27T10:34:57Z</time></trkpt>
<trkpt lat="46.3176700000000068" lon="7.6340600000000007"><ele></ele><time>2017-7-27T10:35:0Z</time></trkpt>
<trkpt lat="46.3176200000000051" lon="7.6341200000000002"><ele></ele><time>2017-7-27T10:35:3Z</time></trkpt>
<trkpt lat="46.3175700000000035" lon="7.6342000000000008"><ele></ele><time>2017-7-27T10:35:6Z</time></trkpt>
<trkpt lat="46.3175300000000050" lon="7.6342600000000003"><ele></ele><time>2017-7-27T10:35:9Z</time></trkpt>
<trkpt lat="46.3174900000000065" lon="7.6344000000000003"><ele></ele><time>2017-7-27T10:35:12Z</time></trkpt>
<trkpt lat="46.3174400000000048" lon="7.6346100000000003"><ele></ele><time>2017-7-27T10:35:15Z</time></trkpt>
<trkpt lat="46.3172400000000053" lon="7.6346700000000007"><ele></ele><time>2017-7-27T10:35:18Z</time></trkpt>
<trkpt lat="46.3169200000000032" lon="7.6345800000000006"><ele></ele><time>2017-7-27T10:35:21Z</time></trkpt>
<trkpt lat="46.3167800000000014" lon="7.6345200000000002"><ele></ele><time>2017-7-27T10:35:24Z</time></trkpt>
<trkpt lat="46.3166500000000028" lon="7.6344700000000003"><ele></ele><time>2017-7-27T10:35:27Z</time></trkpt>
<trkpt lat="46.3164800000000056" lon="7.6344000000000003"><ele></ele><time>2017-7-27T10:35:30Z</time></trkpt>
<trkpt lat="46.3163800000000023" lon="7.6344100000000008"><ele></ele><time>2017-7-27T10:35:33Z</time></trkpt>
<trkpt lat="46.3163700000000063" lon="7.6344300000000009"><ele></ele><time>2017-7-27T10:35:36Z</time></trkpt>
<trkpt lat="46.3163600000000031" lon="7.6344700000000003"><ele></ele><time>2017-7-27T10:35:39Z</time></trkpt>
<trkpt lat="46.3163500000000070" lon="7.6345600000000005"><ele></ele><time>2017-7-27T10:35:42Z</time></trkpt>
<trkpt lat="46.3163400000000038" lon="7.6346800000000004"><ele></ele><time>2017-7-27T10:35:45Z</time></trkpt>
<trkpt lat="46.3163300000000007" lon="7.6347700000000005"><ele></ele><time>2017-7-27T10:35:48Z</time></trkpt>
<trkpt lat="46.3163200000000046" lon="7.6348500000000010"><ele></ele><time>2017-7-27T10:35:51Z</time></trkpt>
<trkpt lat="46.3163000000000054" lon="7.6350100000000003"><ele></ele><time>2017-7-27T10:35:54Z</time></trkpt>
<trkpt lat="46.3162200000000013" lon="7.6354100000000003"><ele></ele><time>2017-7-27T10:35:57Z</time></trkpt>
<trkpt lat="46.3161200000000051" lon="7.6359500000000002"><ele></ele><time>2017-7-27T10:36:0Z</time></trkpt>
<trkpt lat="46.3160400000000010" lon="7.6363000000000003"><ele></ele><time>2017-7-27T10:36:3Z</time></trkpt>
<trkpt lat="46.3160200000000017" lon="7.6363500000000002"><ele></ele><time>2017-7-27T10:36:6Z</time></trkpt>
<trkpt lat="46.3159900000000064" lon="7.6363800000000008"><ele></ele><time>2017-7-27T10:36:9Z</time></trkpt>
<trkpt lat="46.3159600000000040" lon="7.6363900000000005"><ele></ele><time>2017-7-27T10:36:12Z</time></trkpt>
<trkpt lat="46.3159100000000024" lon="7.6363800000000008"><ele></ele><time>2017-7-27T10:36:15Z</time></trkpt>
<trkpt lat="46.3158700000000039" lon="7.6363400000000006"><ele></ele><time>2017-7-27T10:36:18Z</time></trkpt>
<trkpt lat="46.3158600000000007" lon="7.6362400000000008"><ele></ele><time>2017-7-27T10:36:21Z</time></trkpt>
<trkpt lat="46.3158800000000070" lon="7.6358700000000006"><ele></ele><time>2017-7-27T10:36:24Z</time></trkpt>
<trkpt lat="46.3158900000000031" lon="7.6350600000000011"><ele></ele><time>2017-7-27T10:36:27Z</time></trkpt>
<trkpt lat="46.3159000000000063" lon="7.6338700000000008"><ele></ele><time>2017-7-27T10:36:30Z</time></trkpt>
<trkpt lat="46.3158700000000039" lon="7.6336400000000006"><ele></ele><time>2017-7-27T10:36:33Z</time></trkpt>
<trkpt lat="46.3159300000000016" lon="7.6334100000000005"><ele></ele><time>2017-7-27T10:36:36Z</time></trkpt>
<trkpt lat="46.3160400000000010" lon="7.6332500000000003"><ele></ele><time>2017-7-27T10:36:39Z</time></trkpt>
<trkpt lat="46.3161500000000004" lon="7.6331100000000003"><ele></ele><time>2017-7-27T10:36:42Z</time></trkpt>
<trkpt lat="46.3162100000000052" lon="7.6330700000000009"><ele></ele><time>2017-7-27T10:36:45Z</time></trkpt>
<trkpt lat="46.3161800000000028" lon="7.6329900000000004"><ele></ele><time>2017-7-27T10:36:48Z</time></trkpt>
<trkpt lat="46.3161200000000051" lon="7.6330200000000010"><ele></ele><time>2017-7-27T10:36:51Z</time></trkpt>
<trkpt lat="46.3160000000000025" lon="7.6331500000000005"><ele></ele><time>2017-7-27T10:36:54Z</time></trkpt>
<trkpt lat="46.3158500000000046" lon="7.6333100000000007"><ele></ele><time>2017-7-27T10:36:57Z</time></trkpt>
<trkpt lat="46.3156900000000036" lon="7.6334800000000005"><ele></ele><time>2017-7-27T10:37:0Z</time></trkpt>
<trkpt lat="46.3155300000000025" lon="7.6337200000000003"><ele></ele><time>2017-7-27T10:37:3Z</time></trkpt>
<trkpt lat="46.3154600000000016" lon="7.6338900000000010"><ele></ele><time>2017-7-27T10:37:6Z</time></trkpt>
<trkpt lat="46.3154200000000031" lon="7.6340600000000007"><ele></ele><time>2017-7-27T10:37:9Z</time></trkpt>
<trkpt lat="46.3154000000000039" lon="7.6341100000000006"><ele></ele><time>2017-7-27T10:37:12Z</time></trkpt>
<trkpt lat="46.3153800000000047" lon="7.6344700000000003"><ele></ele><time>2017-7-27T10:37:15Z</time></trkpt>
<trkpt lat="46.3153300000000030" lon="7.6349300000000007"><ele></ele><time>2017-7-27T10:37:18Z</time></trkpt>
<trkpt lat="46.3152700000000053" lon="7.6353800000000005"><ele></ele><time>2017-7-27T10:37:21Z</time></trkpt>
<trkpt lat="46.3152559019283743" lon="7.6356388628482819"><ele></ele><time>2017-7-27T10:37:24Z</time></trkpt>
<trkpt lat="46.3151382633125124" lon="7.6357609033584595"><ele></ele><time>2017-7-27T10:37:27Z</time></trkpt>
<trkpt lat="46.3151400000000066" lon="7.6357500000000007"><ele></ele><time>2017-7-27T10:37:30Z</time></trkpt>
<trkpt lat="46.3150800000000018" lon="7.6359300000000010"><ele></ele><time>2017-7-27T10:37:33Z</time></trkpt>
<trkpt lat="46.3149900000000017" lon="7.6360900000000003"><ele></ele><time>2017-7-27T10:37:36Z</time></trkpt>
<trkpt lat="46.3149100000000047" lon="7.6361900000000009"><ele></ele><time>2017-7-27T10:37:39Z</time></trkpt>
<trkpt lat="46.3148000000000053" lon="7.6362600000000009"><ele></ele><time>2017-7-27T10:37:42Z</time></trkpt>
<trkpt lat="46.3143600000000006" lon="7.6364500000000008"><ele></ele><time>2017-7-27T10:37:45Z</time></trkpt>
<trkpt lat="46.3142000000000067" lon="7.6365800000000004"><ele></ele><time>2017-7-27T10:37:48Z</time></trkpt>
<trkpt lat="46.3140800000000041" lon="7.6367500000000010"><ele></ele><time>2017-7-27T10:37:51Z</time></trkpt>
<trkpt lat="46.3139400000000023" lon="7.6369400000000009"><ele></ele><time>2017-7-27T10:37:54Z</time></trkpt>
<trkpt lat="46.3138900000000007" lon="7.6370500000000003"><ele></ele><time>2017-7-27T10:37:57Z</time></trkpt>
<trkpt lat="46.3138600000000054" lon="7.6371600000000006"><ele></ele><time>2017-7-27T10:38:0Z</time></trkpt>
<trkpt lat="46.3138500000000022" lon="7.6372700000000009"><ele></ele><time>2017-7-27T10:38:3Z</time></trkpt>
<trkpt lat="46.3138300000000029" lon="7.6379900000000003"><ele></ele><time>2017-7-27T10:38:6Z</time></trkpt>
<trkpt lat="46.3137900000000045" lon="7.6381300000000003"><ele></ele><time>2017-7-27T10:38:9Z</time></trkpt>
<trkpt lat="46.3136900000000011" lon="7.6384500000000006"><ele></ele><time>2017-7-27T10:38:12Z</time></trkpt>
<trkpt lat="46.3136000000000010" lon="7.6386500000000011"><ele></ele><time>2017-7-27T10:38:15Z</time></trkpt>
<trkpt lat="46.3135700000000057" lon="7.6387100000000006"><ele></ele><time>2017-7-27T10:38:18Z</time></trkpt>
<trkpt lat="46.3134800000000055" lon="7.6389600000000009"><ele></ele><time>2017-7-27T10:38:21Z</time></trkpt>
<trkpt lat="46.3134400000000070" lon="7.6392000000000007"><ele></ele><time>2017-7-27T10:38:24Z</time></trkpt>
<trkpt lat="46.3134300000000039" lon="7.6392900000000008"><ele></ele><time>2017-7-27T10:38:27Z</time></trkpt>
<trkpt lat="46.3134200000000007" lon="7.6394700000000002"><ele></ele><time>2017-7-27T10:38:30Z</time></trkpt>
<trkpt lat="46.3134100000000046" lon="7.6394900000000003"><ele></ele><time>2017-7-27T10:38:33Z</time></trkpt>
<trkpt lat="46.3133900000000054" lon="7.6395100000000005"><ele></ele><time>2017-7-27T10:38:36Z</time></trkpt>
<trkpt lat="46.3133600000000030" lon="7.6395200000000010"><ele></ele><time>2017-7-27T10:38:39Z</time></trkpt>
<trkpt lat="46.3133100000000013" lon="7.6395400000000002"><ele></ele><time>2017-7-27T10:38:42Z</time></trkpt>
<trkpt lat="46.3131700000000066" lon="7.6392400000000009"><ele></ele><time>2017-7-27T10:38:45Z</time></trkpt>
<trkpt lat="46.3131400000000042" lon="7.6391800000000005"><ele></ele><time>2017-7-27T10:38:48Z</time></trkpt>
<trkpt lat="46.3130700000000033" lon="7.6389100000000010"><ele></ele><time>2017-7-27T10:38:51Z</time></trkpt>
<trkpt lat="46.3130100000000056" lon="7.6386900000000004"><ele></ele><time>2017-7-27T10:38:54Z</time></trkpt>
<trkpt lat="46.3129700000000071" lon="7.6385600000000009"><ele></ele><time>2017-7-27T10:38:57Z</time></trkpt>
<trkpt lat="46.3129400000000047" lon="7.6384900000000009"><ele></ele><time>2017-7-27T10:39:0Z</time></trkpt>
<trkpt lat="46.3129100000000022" lon="7.6384000000000007"><ele></ele><time>2017-7-27T10:39:3Z</time></trkpt>
<trkpt lat="46.3128600000000006" lon="7.6383200000000002"><ele></ele><time>2017-7-27T10:39:6Z</time></trkpt>
<trkpt lat="46.3128200000000021" lon="7.6382600000000007"><ele></ele><time>2017-7-27T10:39:9Z</time></trkpt>
<trkpt lat="46.3127800000000036" lon="7.6382100000000008"><ele></ele><time>2017-7-27T10:39:12Z</time></trkpt>
<trkpt lat="46.3126900000000035" lon="7.6381400000000008"><ele></ele><time>2017-7-27T10:39:15Z</time></trkpt>
<trkpt lat="46.3126500000000050" lon="7.6380100000000004"><ele></ele><time>2017-7-27T10:39:18Z</time></trkpt>
<trkpt lat="46.3126400000000018" lon="7.6379200000000003"><ele></ele><time>2017-7-27T10:39:21Z</time></trkpt>
<trkpt lat="46.3126300000000057" lon="7.6378600000000008"><ele></ele><time>2017-7-27T10:39:24Z</time></trkpt>
<trkpt lat="46.3126400000000018" lon="7.6377600000000010"><ele></ele><time>2017-7-27T10:39:27Z</time></trkpt>
<trkpt lat="46.3126700000000042" lon="7.6376300000000006"><ele></ele><time>2017-7-27T10:39:30Z</time></trkpt>
<trkpt lat="46.3127000000000066" lon="7.6375300000000008"><ele></ele><time>2017-7-27T10:39:33Z</time></trkpt>
<trkpt lat="46.3127200000000059" lon="7.6373800000000003"><ele></ele><time>2017-7-27T10:39:36Z</time></trkpt>
<trkpt lat="46.3127300000000020" lon="7.6373200000000008"><ele></ele><time>2017-7-27T10:39:39Z</time></trkpt>
<trkpt lat="46.3127500000000012" lon="7.6372400000000003"><ele></ele><time>2017-7-27T10:39:42Z</time></trkpt>
<trkpt lat="46.3127800000000036" lon="7.6371600000000006"><ele></ele><time>2017-7-27T10:39:45Z</time></trkpt>
<trkpt lat="46.3127900000000068" lon="7.6371100000000007"><ele></ele><time>2017-7-27T10:39:48Z</time></trkpt>
<trkpt lat="46.3128000000000029" lon="7.6370400000000007"><ele></ele><time>2017-7-27T10:39:51Z</time></trkpt>
<trkpt lat="46.3127900000000068" lon="7.6367900000000004"><ele></ele><time>2017-7-27T10:39:54Z</time></trkpt>
<trkpt lat="46.3127400000000051" lon="7.6369100000000003"><ele></ele><time>2017-7-27T10:39:57Z</time></trkpt>
<trkpt lat="46.3126800000000003" lon="7.6370300000000002"><ele></ele><time>2017-7-27T10:40:0Z</time></trkpt>
<trkpt lat="46.3126300000000057" lon="7.6371300000000009"><ele></ele><time>2017-7-27T10:40:3Z</time></trkpt>
<trkpt lat="46.3126000000000033" lon="7.6371700000000002"><ele></ele><time>2017-7-27T10:40:6Z</time></trkpt>
<trkpt lat="46.3125800000000041" lon="7.6372200000000010"><ele></ele><time>2017-7-27T10:40:9Z</time></trkpt>
<trkpt lat="46.3123000000000005" lon="7.6377800000000002"><ele></ele><time>2017-7-27T10:40:12Z</time></trkpt>
<trkpt lat="46.3120500000000064" lon="7.6382800000000008"><ele></ele><time>2017-7-27T10:40:15Z</time></trkpt>
<trkpt lat="46.3119600000000062" lon="7.6384600000000002"><ele></ele><time>2017-7-27T10:40:18Z</time></trkpt>
<trkpt lat="46.3119200000000006" lon="7.6385700000000005"><ele></ele><time>2017-7-27T10:40:21Z</time></trkpt>
<trkpt lat="46.3118900000000053" lon="7.6386500000000011"><ele></ele><time>2017-7-27T10:40:24Z</time></trkpt>
<trkpt lat="46.3118800000000022" lon="7.6386400000000005"><ele></ele><time>2017-7-27T10:40:27Z</time></trkpt>
<trkpt lat="46.3117600000000067" lon="7.6385300000000003"><ele></ele><time>2017-7-27T10:40:30Z</time></trkpt>
<trkpt lat="46.3117100000000050" lon="7.6384700000000008"><ele></ele><time>2017-7-27T10:40:33Z</time></trkpt>
<trkpt lat="46.3116300000000010" lon="7.6381300000000003"><ele></ele><time>2017-7-27T10:40:36Z</time></trkpt>
<trkpt lat="46.3115900000000025" lon="7.6379700000000010"><ele></ele><time>2017-7-27T10:40:39Z</time></trkpt>
<trkpt lat="46.3113500000000045" lon="7.6369600000000002"><ele></ele><time>2017-7-27T10:40:42Z</time></trkpt>
<trkpt lat="46.3112700000000004" lon="7.6366200000000006"><ele></ele><time>2017-7-27T10:40:45Z</time></trkpt>
<trkpt lat="46.3111500000000049" lon="7.6361400000000010"><ele></ele><time>2017-7-27T10:40:48Z</time></trkpt>
<trkpt lat="46.3111000000000033" lon="7.6359100000000009"><ele></ele><time>2017-7-27T10:40:51Z</time></trkpt>
<trkpt lat="46.3110600000000048" lon="7.6357200000000010"><ele></ele><time>2017-7-27T10:40:54Z</time></trkpt>
<trkpt lat="46.3110300000000024" lon="7.6355200000000005"><ele></ele><time>2017-7-27T10:40:57Z</time></trkpt>
<trkpt lat="46.3110000000000070" lon="7.6352800000000007"><ele></ele><time>2017-7-27T10:41:0Z</time></trkpt>
<trkpt lat="46.3109700000000046" lon="7.6349400000000003"><ele></ele><time>2017-7-27T10:41:3Z</time></trkpt>
<trkpt lat="46.3109400000000022" lon="7.6345300000000007"><ele></ele><time>2017-7-27T10:41:6Z</time></trkpt>
<trkpt lat="46.3109300000000061" lon="7.6341100000000006"><ele></ele><time>2017-7-27T10:41:9Z</time></trkpt>
<trkpt lat="46.3109100000000069" lon="7.6337500000000009"><ele></ele><time>2017-7-27T10:41:12Z</time></trkpt>
<trkpt lat="46.3108700000000013" lon="7.6334100000000005"><ele></ele><time>2017-7-27T10:41:15Z</time></trkpt>
<trkpt lat="46.3108400000000060" lon="7.6331800000000003"><ele></ele><time>2017-7-27T10:41:18Z</time></trkpt>
<trkpt lat="46.3108100000000036" lon="7.6329500000000010"><ele></ele><time>2017-7-27T10:41:21Z</time></trkpt>
<trkpt lat="46.3108000000000004" lon="7.6329000000000002"><ele></ele><time>2017-7-27T10:41:24Z</time></trkpt>
<trkpt lat="46.3107800000000012" lon="7.6327700000000007"><ele></ele><time>2017-7-27T10:41:27Z</time></trkpt>
<trkpt lat="46.3107400000000027" lon="7.6325900000000004"><ele></ele><time>2017-7-27T10:41:30Z</time></trkpt>
<trkpt lat="46.3107000000000042" lon="7.6323900000000009"><ele></ele><time>2017-7-27T10:41:33Z</time></trkpt>
<trkpt lat="46.3106500000000025" lon="7.6321900000000005"><ele></ele><time>2017-7-27T10:41:36Z</time></trkpt>
<trkpt lat="46.3105700000000056" lon="7.6318600000000005"><ele></ele><time>2017-7-27T10:41:39Z</time></trkpt>
<trkpt lat="46.3104600000000062" lon="7.6315100000000005"><ele></ele><time>2017-7-27T10:41:42Z</time></trkpt>
<trkpt lat="46.3102500000000035" lon="7.6308700000000007"><ele></ele><time>2017-7-27T10:41:45Z</time></trkpt>
<trkpt lat="46.3101000000000056" lon="7.6303600000000005"><ele></ele><time>2017-7-27T10:41:48Z</time></trkpt>
<trkpt lat="46.3100000000000023" lon="7.6299400000000004"><ele></ele><time>2017-7-27T10:41:51Z</time></trkpt>
<trkpt lat="46.3099400000000045" lon="7.6296500000000007"><ele></ele><time>2017-7-27T10:41:54Z</time></trkpt>
<trkpt lat="46.3099300000000014" lon="7.6296000000000008"><ele></ele><time>2017-7-27T10:41:57Z</time></trkpt>
<trkpt lat="46.3098700000000036" lon="7.6292500000000008"><ele></ele><time>2017-7-27T10:42:0Z</time></trkpt>
<trkpt lat="46.3098300000000052" lon="7.6289300000000004"><ele></ele><time>2017-7-27T10:42:3Z</time></trkpt>
<trkpt lat="46.3097800000000035" lon="7.6284700000000010"><ele></ele><time>2017-7-27T10:42:6Z</time></trkpt>
<trkpt lat="46.3097500000000011" lon="7.6279500000000002"><ele></ele><time>2017-7-27T10:42:9Z</time></trkpt>
<trkpt lat="46.3097600000000043" lon="7.6274800000000003"><ele></ele><time>2017-7-27T10:42:12Z</time></trkpt>
<trkpt lat="46.3097900000000067" lon="7.6266900000000009"><ele></ele><time>2017-7-27T10:42:15Z</time></trkpt>
<trkpt lat="46.3098400000000012" lon="7.6259600000000010"><ele></ele><time>2017-7-27T10:42:18Z</time></trkpt>
<trkpt lat="46.3098500000000044" lon="7.6258400000000011"><ele></ele><time>2017-7-27T10:42:21Z</time></trkpt>
<trkpt lat="46.3098700000000036" lon="7.6253100000000007"><ele></ele><time>2017-7-27T10:42:24Z</time></trkpt>
<trkpt lat="46.3099000000000061" lon="7.6248100000000010"><ele></ele><time>2017-7-27T10:42:27Z</time></trkpt>
<trkpt lat="46.3099300000000014" lon="7.6238800000000007"><ele></ele><time>2017-7-27T10:42:30Z</time></trkpt>
<trkpt lat="46.3099200000000053" lon="7.6218500000000002"><ele></ele><time>2017-7-27T10:42:33Z</time></trkpt>
<trkpt lat="46.3098800000000068" lon="7.6205500000000006"><ele></ele><time>2017-7-27T10:42:36Z</time></trkpt>
<trkpt lat="46.3098500000000044" lon="7.6201300000000005"><ele></ele><time>2017-7-27T10:42:39Z</time></trkpt>
<trkpt lat="46.3098100000000059" lon="7.6197500000000007"><ele></ele><time>2017-7-27T10:42:42Z</time></trkpt>
<trkpt lat="46.3097600000000043" lon="7.6194500000000005"><ele></ele><time>2017-7-27T10:42:45Z</time></trkpt>
<trkpt lat="46.3096900000000034" lon="7.6190600000000011"><ele></ele><time>2017-7-27T10:42:48Z</time></trkpt>
<trkpt lat="46.3096300000000056" lon="7.6187800000000010"><ele></ele><time>2017-7-27T10:42:51Z</time></trkpt>
<trkpt lat="46.3094900000000038" lon="7.6182200000000009"><ele></ele><time>2017-7-27T10:42:54Z</time></trkpt>
<trkpt lat="46.3093600000000052" lon="7.6178000000000008"><ele></ele><time>2017-7-27T10:42:57Z</time></trkpt>
<trkpt lat="46.3092000000000041" lon="7.6173900000000003"><ele></ele><time>2017-7-27T10:43:0Z</time></trkpt>
<trkpt lat="46.3088400000000036" lon="7.6164700000000005"><ele></ele><time>2017-7-27T10:43:3Z</time></trkpt>
<trkpt lat="46.3087200000000010" lon="7.6161800000000008"><ele></ele><time>2017-7-27T10:43:6Z</time></trkpt>
<trkpt lat="46.3082900000000066" lon="7.6151300000000006"><ele></ele><time>2017-7-27T10:43:9Z</time></trkpt>
<trkpt lat="46.3081700000000041" lon="7.6148400000000009"><ele></ele><time>2017-7-27T10:43:12Z</time></trkpt>
<trkpt lat="46.3078800000000044" lon="7.6141200000000007"><ele></ele><time>2017-7-27T10:43:15Z</time></trkpt>
<trkpt lat="46.3075000000000045" lon="7.6131800000000007"><ele></ele><time>2017-7-27T10:43:18Z</time></trkpt>
<trkpt lat="46.3069700000000068" lon="7.6119000000000003"><ele></ele><time>2017-7-27T10:43:21Z</time></trkpt>
<trkpt lat="46.3067400000000049" lon="7.6113300000000006"><ele></ele><time>2017-7-27T10:43:24Z</time></trkpt>
<trkpt lat="46.3065700000000007" lon="7.6109500000000008"><ele></ele><time>2017-7-27T10:43:27Z</time></trkpt>
<trkpt lat="46.3065400000000054" lon="7.6108900000000004"><ele></ele><time>2017-7-27T10:43:30Z</time></trkpt>
<trkpt lat="46.3063500000000019" lon="7.6105100000000006"><ele></ele><time>2017-7-27T10:43:33Z</time></trkpt>
<trkpt lat="46.3061700000000016" lon="7.6102100000000004"><ele></ele><time>2017-7-27T10:43:36Z</time></trkpt>
<trkpt lat="46.3060700000000054" lon="7.6100500000000002"><ele></ele><time>2017-7-27T10:43:39Z</time></trkpt>
<trkpt lat="46.3058000000000050" lon="7.6096700000000004"><ele></ele><time>2017-7-27T10:43:42Z</time></trkpt>
<trkpt lat="46.3055200000000013" lon="7.6092800000000009"><ele></ele><time>2017-7-27T10:43:45Z</time></trkpt>
<trkpt lat="46.3053100000000057" lon="7.6090100000000005"><ele></ele><time>2017-7-27T10:43:48Z</time></trkpt>
<trkpt lat="46.3049300000000059" lon="7.6085200000000004"><ele></ele><time>2017-7-27T10:43:51Z</time></trkpt>
<trkpt lat="46.3045600000000022" lon="7.6080400000000008"><ele></ele><time>2017-7-27T10:43:54Z</time></trkpt>
<trkpt lat="46.3043100000000010" lon="7.6077100000000009"><ele></ele><time>2017-7-27T10:43:57Z</time></trkpt>
<trkpt lat="46.3040400000000005" lon="7.6073300000000010"><ele></ele><time>2017-7-27T10:44:0Z</time></trkpt>
<trkpt lat="46.3037400000000048" lon="7.6068300000000004"><ele></ele><time>2017-7-27T10:44:3Z</time></trkpt>
<trkpt lat="46.3035300000000021" lon="7.6064200000000008"><ele></ele><time>2017-7-27T10:44:6Z</time></trkpt>
<trkpt lat="46.3032800000000009" lon="7.6058700000000004"><ele></ele><time>2017-7-27T10:44:9Z</time></trkpt>
<trkpt lat="46.3030400000000029" lon="7.6053900000000008"><ele></ele><time>2017-7-27T10:44:12Z</time></trkpt>
<trkpt lat="46.3029400000000066" lon="7.6051800000000007"><ele></ele><time>2017-7-27T10:44:15Z</time></trkpt>
<trkpt lat="46.3028000000000048" lon="7.6049300000000004"><ele></ele><time>2017-7-27T10:44:18Z</time></trkpt>
<trkpt lat="46.3026900000000055" lon="7.6047500000000010"><ele></ele><time>2017-7-27T10:44:21Z</time></trkpt>
<trkpt lat="46.3025100000000052" lon="7.6044600000000004"><ele></ele><time>2017-7-27T10:44:24Z</time></trkpt>
<trkpt lat="46.3023700000000034" lon="7.6042500000000004"><ele></ele><time>2017-7-27T10:44:27Z</time></trkpt>
<trkpt lat="46.3020700000000005" lon="7.6038700000000006"><ele></ele><time>2017-7-27T10:44:30Z</time></trkpt>
<trkpt lat="46.3020600000000044" lon="7.6038500000000004"><ele></ele><time>2017-7-27T10:44:33Z</time></trkpt>
<trkpt lat="46.3017200000000031" lon="7.6034800000000002"><ele></ele><time>2017-7-27T10:44:36Z</time></trkpt>
<trkpt lat="46.3009200000000050" lon="7.6026800000000003"><ele></ele><time>2017-7-27T10:44:39Z</time></trkpt>
<trkpt lat="46.3008500000000041" lon="7.6026100000000003"><ele></ele><time>2017-7-27T10:44:42Z</time></trkpt>
<trkpt lat="46.3004500000000050" lon="7.6021900000000002"><ele></ele><time>2017-7-27T10:44:45Z</time></trkpt>
<trkpt lat="46.3003500000000017" lon="7.6020900000000005"><ele></ele><time>2017-7-27T10:44:48Z</time></trkpt>
<trkpt lat="46.3002700000000047" lon="7.6019900000000007"><ele></ele><time>2017-7-27T10:44:51Z</time></trkpt>
<trkpt lat="46.3001100000000037" lon="7.6017900000000003"><ele></ele><time>2017-7-27T10:44:54Z</time></trkpt>
<trkpt lat="46.2998800000000017" lon="7.6014700000000008"><ele></ele><time>2017-7-27T10:44:57Z</time></trkpt>
<trkpt lat="46.2996200000000044" lon="7.6011000000000006"><ele></ele><time>2017-7-27T10:45:0Z</time></trkpt>
<trkpt lat="46.2990200000000058" lon="7.6002600000000005"><ele></ele><time>2017-7-27T10:45:3Z</time></trkpt>
<trkpt lat="46.2988500000000016" lon="7.6000100000000010"><ele></ele><time>2017-7-27T10:45:6Z</time></trkpt>
<trkpt lat="46.2986600000000053" lon="7.5997300000000010"><ele></ele><time>2017-7-27T10:45:9Z</time></trkpt>
<trkpt lat="46.2985500000000059" lon="7.5995500000000007"><ele></ele><time>2017-7-27T10:45:12Z</time></trkpt>
<trkpt lat="46.2983200000000039" lon="7.5991000000000009"><ele></ele><time>2017-7-27T10:45:15Z</time></trkpt>
<trkpt lat="46.2982000000000014" lon="7.5988500000000005"><ele></ele><time>2017-7-27T10:45:18Z</time></trkpt>
<trkpt lat="46.2981000000000051" lon="7.5986000000000002"><ele></ele><time>2017-7-27T10:45:21Z</time></trkpt>
<trkpt lat="46.2979400000000041" lon="7.5981700000000005"><ele></ele><time>2017-7-27T10:45:24Z</time></trkpt>
<trkpt lat="46.2978200000000015" lon="7.5977600000000010"><ele></ele><time>2017-7-27T10:45:27Z</time></trkpt>
<trkpt lat="46.2977100000000021" lon="7.5973100000000002"><ele></ele><time>2017-7-27T10:45:30Z</time></trkpt>
<trkpt lat="46.2976100000000059" lon="7.5967800000000008"><ele></ele><time>2017-7-27T10:45:33Z</time></trkpt>
<trkpt lat="46.2973700000000008" lon="7.5950600000000010"><ele></ele><time>2017-7-27T10:45:36Z</time></trkpt>
<trkpt lat="46.2972500000000053" lon="7.5941700000000010"><ele></ele><time>2017-7-27T10:45:39Z</time></trkpt>
<trkpt lat="46.2971000000000004" lon="7.5932200000000005"><ele></ele><time>2017-7-27T10:45:42Z</time></trkpt>
<trkpt lat="46.2970200000000034" lon="7.5924900000000006"><ele></ele><time>2017-7-27T10:45:45Z</time></trkpt>
<trkpt lat="46.2970000000000041" lon="7.5921700000000003"><ele></ele><time>2017-7-27T10:45:48Z</time></trkpt>
<trkpt lat="46.2969900000000010" lon="7.5918300000000007"><ele></ele><time>2017-7-27T10:45:51Z</time></trkpt>
<trkpt lat="46.2970000000000041" lon="7.5914100000000007"><ele></ele><time>2017-7-27T10:45:54Z</time></trkpt>
<trkpt lat="46.2970200000000034" lon="7.5909900000000006"><ele></ele><time>2017-7-27T10:45:57Z</time></trkpt>
<trkpt lat="46.2970300000000066" lon="7.5905000000000005"><ele></ele><time>2017-7-27T10:46:0Z</time></trkpt>
<trkpt lat="46.2970100000000073" lon="7.5896700000000008"><ele></ele><time>2017-7-27T10:46:3Z</time></trkpt>
<trkpt lat="46.2969700000000017" lon="7.5893100000000002"><ele></ele><time>2017-7-27T10:46:6Z</time></trkpt>
<trkpt lat="46.2968900000000048" lon="7.5888700000000009"><ele></ele><time>2017-7-27T10:46:9Z</time></trkpt>
<trkpt lat="46.2968100000000007" lon="7.5885000000000007"><ele></ele><time>2017-7-27T10:46:12Z</time></trkpt>
<trkpt lat="46.2967300000000037" lon="7.5882100000000010"><ele></ele><time>2017-7-27T10:46:15Z</time></trkpt>
<trkpt lat="46.2966300000000004" lon="7.5879400000000006"><ele></ele><time>2017-7-27T10:46:18Z</time></trkpt>
<trkpt lat="46.2965400000000002" lon="7.5876700000000010"><ele></ele><time>2017-7-27T10:46:21Z</time></trkpt>
<trkpt lat="46.2964400000000040" lon="7.5874400000000009"><ele></ele><time>2017-7-27T10:46:24Z</time></trkpt>
<trkpt lat="46.2962600000000037" lon="7.5870800000000003"><ele></ele><time>2017-7-27T10:46:27Z</time></trkpt>
<trkpt lat="46.2961400000000012" lon="7.5868800000000007"><ele></ele><time>2017-7-27T10:46:30Z</time></trkpt>
<trkpt lat="46.2960100000000025" lon="7.5867000000000004"><ele></ele><time>2017-7-27T10:46:33Z</time></trkpt>
<trkpt lat="46.2958400000000054" lon="7.5864600000000006"><ele></ele><time>2017-7-27T10:46:36Z</time></trkpt>
<trkpt lat="46.2950600000000065" lon="7.5855000000000006"><ele></ele><time>2017-7-27T10:46:39Z</time></trkpt>
<trkpt lat="46.2949300000000008" lon="7.5853200000000003"><ele></ele><time>2017-7-27T10:46:42Z</time></trkpt>
<trkpt lat="46.2948300000000046" lon="7.5851500000000005"><ele></ele><time>2017-7-27T10:46:45Z</time></trkpt>
<trkpt lat="46.2946200000000019" lon="7.5847700000000007"><ele></ele><time>2017-7-27T10:46:48Z</time></trkpt>
<trkpt lat="46.2943800000000039" lon="7.5842200000000002"><ele></ele><time>2017-7-27T10:46:51Z</time></trkpt>
<trkpt lat="46.2942700000000045" lon="7.5839200000000009"><ele></ele><time>2017-7-27T10:46:54Z</time></trkpt>
<trkpt lat="46.2941900000000004" lon="7.5836700000000006"><ele></ele><time>2017-7-27T10:46:57Z</time></trkpt>
<trkpt lat="46.2941200000000066" lon="7.5833500000000003"><ele></ele><time>2017-7-27T10:47:0Z</time></trkpt>
<trkpt lat="46.2940600000000018" lon="7.5830300000000008"><ele></ele><time>2017-7-27T10:47:3Z</time></trkpt>
<trkpt lat="46.2940100000000072" lon="7.5827400000000003"><ele></ele><time>2017-7-27T10:47:6Z</time></trkpt>
<trkpt lat="46.2940000000000040" lon="7.5827000000000009"><ele></ele><time>2017-7-27T10:47:9Z</time></trkpt>
<trkpt lat="46.2939800000000048" lon="7.5825100000000010"><ele></ele><time>2017-7-27T10:47:12Z</time></trkpt>
<trkpt lat="46.2939200000000071" lon="7.5818000000000003"><ele></ele><time>2017-7-27T10:47:15Z</time></trkpt>
<trkpt lat="46.2938700000000054" lon="7.5811800000000007"><ele></ele><time>2017-7-27T10:47:18Z</time></trkpt>
<trkpt lat="46.2938100000000006" lon="7.5806600000000008"><ele></ele><time>2017-7-27T10:47:21Z</time></trkpt>
<trkpt lat="46.2937400000000068" lon="7.5802200000000006"><ele></ele><time>2017-7-27T10:47:24Z</time></trkpt>
<trkpt lat="46.2936600000000027" lon="7.5798400000000008"><ele></ele><time>2017-7-27T10:47:27Z</time></trkpt>
<trkpt lat="46.2935000000000016" lon="7.5791300000000010"><ele></ele><time>2017-7-27T10:47:30Z</time></trkpt>
<trkpt lat="46.2933700000000030" lon="7.5785500000000008"><ele></ele><time>2017-7-27T10:47:33Z</time></trkpt>
<trkpt lat="46.2932500000000005" lon="7.5780300000000009"><ele></ele><time>2017-7-27T10:47:36Z</time></trkpt>
<trkpt lat="46.2930000000000064" lon="7.5770000000000008"><ele></ele><time>2017-7-27T10:47:39Z</time></trkpt>
<trkpt lat="46.2928000000000068" lon="7.5762700000000009"><ele></ele><time>2017-7-27T10:47:42Z</time></trkpt>
<trkpt lat="46.2926500000000019" lon="7.5757800000000008"><ele></ele><time>2017-7-27T10:47:45Z</time></trkpt>
<trkpt lat="46.2925100000000072" lon="7.5753500000000003"><ele></ele><time>2017-7-27T10:47:48Z</time></trkpt>
<trkpt lat="46.2923000000000044" lon="7.5747000000000009"><ele></ele><time>2017-7-27T10:47:51Z</time></trkpt>
<trkpt lat="46.2926500000000019" lon="7.5747300000000006"><ele></ele><time>2017-7-27T10:47:54Z</time></trkpt>
<trkpt lat="46.2939100000000039" lon="7.5757100000000008"><ele></ele><time>2017-7-27T10:47:57Z</time></trkpt>
<trkpt lat="46.2942200000000028" lon="7.5759700000000008"><ele></ele><time>2017-7-27T10:48:0Z</time></trkpt>
<trkpt lat="46.2945600000000042" lon="7.5759300000000005"><ele></ele><time>2017-7-27T10:48:3Z</time></trkpt>
<trkpt lat="46.2948000000000022" lon="7.5757600000000007"><ele></ele><time>2017-7-27T10:48:6Z</time></trkpt>
<trkpt lat="46.2949000000000055" lon="7.5756500000000004"><ele></ele><time>2017-7-27T10:48:9Z</time></trkpt>
<trkpt lat="46.2949600000000032" lon="7.5755500000000007"><ele></ele><time>2017-7-27T10:48:12Z</time></trkpt>
<trkpt lat="46.2949900000000056" lon="7.5754700000000010"><ele></ele><time>2017-7-27T10:48:15Z</time></trkpt>
<trkpt lat="46.2949800000000025" lon="7.5753300000000010"><ele></ele><time>2017-7-27T10:48:18Z</time></trkpt>
<trkpt lat="46.2949400000000040" lon="7.5751600000000003"><ele></ele><time>2017-7-27T10:48:21Z</time></trkpt>
<trkpt lat="46.2948900000000023" lon="7.5748100000000003"><ele></ele><time>2017-7-27T10:48:24Z</time></trkpt>
<trkpt lat="46.2949100000000016" lon="7.5743000000000009"><ele></ele><time>2017-7-27T10:48:27Z</time></trkpt>
<trkpt lat="46.2950000000000017" lon="7.5740000000000007"><ele></ele><time>2017-7-27T10:48:30Z</time></trkpt>
<trkpt lat="46.2950500000000034" lon="7.5738200000000004"><ele></ele><time>2017-7-27T10:48:33Z</time></trkpt>
<trkpt lat="46.2950400000000073" lon="7.5737600000000009"><ele></ele><time>2017-7-27T10:48:36Z</time></trkpt>
<trkpt lat="46.2949800000000025" lon="7.5734700000000004"><ele></ele><time>2017-7-27T10:48:39Z</time></trkpt>
<trkpt lat="46.2950800000000058" lon="7.5732800000000005"><ele></ele><time>2017-7-27T10:48:42Z</time></trkpt>
<trkpt lat="46.2952800000000053" lon="7.5732300000000006"><ele></ele><time>2017-7-27T10:48:45Z</time></trkpt>
<trkpt lat="46.2954500000000024" lon="7.5731100000000007"><ele></ele><time>2017-7-27T10:48:48Z</time></trkpt>
<trkpt lat="46.2954600000000056" lon="7.5731000000000011"><ele></ele><time>2017-7-27T10:48:51Z</time></trkpt>
<trkpt lat="46.2954700000000017" lon="7.5729500000000005"><ele></ele><time>2017-7-27T10:48:54Z</time></trkpt>
<trkpt lat="46.2954900000000009" lon="7.5728400000000002"><ele></ele><time>2017-7-27T10:48:57Z</time></trkpt>
<trkpt lat="46.2955600000000018" lon="7.5723400000000005"><ele></ele><time>2017-7-27T10:49:0Z</time></trkpt>
<trkpt lat="46.2956400000000059" lon="7.5718800000000011"><ele></ele><time>2017-7-27T10:49:3Z</time></trkpt>
<trkpt lat="46.2956800000000044" lon="7.5715900000000005"><ele></ele><time>2017-7-27T10:49:6Z</time></trkpt>
<trkpt lat="46.2956700000000012" lon="7.5708800000000007"><ele></ele><time>2017-7-27T10:49:9Z</time></trkpt>
<trkpt lat="46.2956800000000044" lon="7.5705800000000005"><ele></ele><time>2017-7-27T10:49:12Z</time></trkpt>
<trkpt lat="46.2958300000000023" lon="7.5701400000000003"><ele></ele><time>2017-7-27T10:49:15Z</time></trkpt>
<trkpt lat="46.2959200000000024" lon="7.5699000000000005"><ele></ele><time>2017-7-27T10:49:18Z</time></trkpt>
<trkpt lat="46.2959700000000041" lon="7.5697400000000004"><ele></ele><time>2017-7-27T10:49:21Z</time></trkpt>
<trkpt lat="46.2960100000000025" lon="7.5695900000000007"><ele></ele><time>2017-7-27T10:49:24Z</time></trkpt>
<trkpt lat="46.2960200000000057" lon="7.5695000000000006"><ele></ele><time>2017-7-27T10:49:27Z</time></trkpt>
<trkpt lat="46.2960000000000065" lon="7.5685200000000004"><ele></ele><time>2017-7-27T10:49:30Z</time></trkpt>
<trkpt lat="46.2958800000000039" lon="7.5681900000000004"><ele></ele><time>2017-7-27T10:49:33Z</time></trkpt>
<trkpt lat="46.2957200000000029" lon="7.5679800000000004"><ele></ele><time>2017-7-27T10:49:36Z</time></trkpt>
<trkpt lat="46.2956300000000027" lon="7.5678900000000002"><ele></ele><time>2017-7-27T10:49:39Z</time></trkpt>
<trkpt lat="46.2953500000000062" lon="7.5677000000000003"><ele></ele><time>2017-7-27T10:49:42Z</time></trkpt>
<trkpt lat="46.2951900000000052" lon="7.5675400000000010"><ele></ele><time>2017-7-27T10:49:45Z</time></trkpt>
<trkpt lat="46.2950800000000058" lon="7.5673900000000005"><ele></ele><time>2017-7-27T10:49:48Z</time></trkpt>
<trkpt lat="46.2949900000000056" lon="7.5672700000000006"><ele></ele><time>2017-7-27T10:49:51Z</time></trkpt>
<trkpt lat="46.2948200000000014" lon="7.5670100000000007"><ele></ele><time>2017-7-27T10:49:54Z</time></trkpt>
<trkpt lat="46.2948000000000022" lon="7.5669400000000007"><ele></ele><time>2017-7-27T10:49:57Z</time></trkpt>
<trkpt lat="46.2947400000000044" lon="7.5666400000000005"><ele></ele><time>2017-7-27T10:50:0Z</time></trkpt>
<trkpt lat="46.2947200000000052" lon="7.5666600000000006"><ele></ele><time>2017-7-27T10:50:3Z</time></trkpt>
<trkpt lat="46.2946800000000067" lon="7.5666500000000010"><ele></ele><time>2017-7-27T10:50:6Z</time></trkpt>
<trkpt lat="46.2946700000000035" lon="7.5666200000000003"><ele></ele><time>2017-7-27T10:50:9Z</time></trkpt>
<trkpt lat="46.2946800000000067" lon="7.5664500000000006"><ele></ele><time>2017-7-27T10:50:12Z</time></trkpt>
<trkpt lat="46.2946700000000035" lon="7.5663200000000010"><ele></ele><time>2017-7-27T10:50:15Z</time></trkpt>
<trkpt lat="46.2946500000000043" lon="7.5661400000000008"><ele></ele><time>2017-7-27T10:50:18Z</time></trkpt>
<trkpt lat="46.2946100000000058" lon="7.5658900000000004"><ele></ele><time>2017-7-27T10:50:21Z</time></trkpt>
<trkpt lat="46.2945700000000073" lon="7.5657700000000006"><ele></ele><time>2017-7-27T10:50:24Z</time></trkpt>
<trkpt lat="46.2945000000000064" lon="7.5656100000000004"><ele></ele><time>2017-7-27T10:50:27Z</time></trkpt>
<trkpt lat="46.2944200000000023" lon="7.5654300000000010"><ele></ele><time>2017-7-27T10:50:30Z</time></trkpt>
<trkpt lat="46.2942900000000037" lon="7.5650800000000009"><ele></ele><time>2017-7-27T10:50:33Z</time></trkpt>
<trkpt lat="46.2941900000000004" lon="7.5648000000000009"><ele></ele><time>2017-7-27T10:50:36Z</time></trkpt>
<trkpt lat="46.2941200000000066" lon="7.5646200000000006"><ele></ele><time>2017-7-27T10:50:39Z</time></trkpt>
<trkpt lat="46.2940500000000057" lon="7.5642700000000005"><ele></ele><time>2017-7-27T10:50:42Z</time></trkpt>
<trkpt lat="46.2940200000000033" lon="7.5640000000000009"><ele></ele><time>2017-7-27T10:50:45Z</time></trkpt>
<trkpt lat="46.2940000000000040" lon="7.5637100000000004"><ele></ele><time>2017-7-27T10:50:48Z</time></trkpt>
<trkpt lat="46.2939800000000048" lon="7.5635100000000008"><ele></ele><time>2017-7-27T10:50:51Z</time></trkpt>
<trkpt lat="46.2939200000000071" lon="7.5631500000000003"><ele></ele><time>2017-7-27T10:50:54Z</time></trkpt>
<trkpt lat="46.2939000000000007" lon="7.5627900000000006"><ele></ele><time>2017-7-27T10:50:57Z</time></trkpt>
<trkpt lat="46.2939100000000039" lon="7.5626200000000008"><ele></ele><time>2017-7-27T10:51:0Z</time></trkpt>
<trkpt lat="46.2939200000000071" lon="7.5624300000000009"><ele></ele><time>2017-7-27T10:51:3Z</time></trkpt>
<trkpt lat="46.2939300000000031" lon="7.5623200000000006"><ele></ele><time>2017-7-27T10:51:6Z</time></trkpt>
<trkpt lat="46.2939400000000063" lon="7.5622000000000007"><ele></ele><time>2017-7-27T10:51:9Z</time></trkpt>
<trkpt lat="46.2939500000000024" lon="7.5621700000000009"><ele></ele><time>2017-7-27T10:51:12Z</time></trkpt>
<trkpt lat="46.2939600000000056" lon="7.5621300000000007"><ele></ele><time>2017-7-27T10:51:15Z</time></trkpt>
<trkpt lat="46.2939700000000016" lon="7.5620900000000004"><ele></ele><time>2017-7-27T10:51:18Z</time></trkpt>
<trkpt lat="46.2940100000000072" lon="7.5618900000000009"><ele></ele><time>2017-7-27T10:51:21Z</time></trkpt>
<trkpt lat="46.2940200000000033" lon="7.5618400000000010"><ele></ele><time>2017-7-27T10:51:24Z</time></trkpt>
<trkpt lat="46.2940400000000025" lon="7.5617500000000009"><ele></ele><time>2017-7-27T10:51:27Z</time></trkpt>
<trkpt lat="46.2940200000000033" lon="7.5617000000000010"><ele></ele><time>2017-7-27T10:51:30Z</time></trkpt>
<trkpt lat="46.2940100000000072" lon="7.5615800000000002"><ele></ele><time>2017-7-27T10:51:33Z</time></trkpt>
<trkpt lat="46.2939900000000009" lon="7.5614700000000008"><ele></ele><time>2017-7-27T10:51:36Z</time></trkpt>
<trkpt lat="46.2939700000000016" lon="7.5613700000000010"><ele></ele><time>2017-7-27T10:51:39Z</time></trkpt>
<trkpt lat="46.2939200000000071" lon="7.5611700000000006"><ele></ele><time>2017-7-27T10:51:42Z</time></trkpt>
<trkpt lat="46.2939000000000007" lon="7.5611100000000002"><ele></ele><time>2017-7-27T10:51:45Z</time></trkpt>
<trkpt lat="46.2938900000000046" lon="7.5610900000000010"><ele></ele><time>2017-7-27T10:51:48Z</time></trkpt>
<trkpt lat="46.2938800000000015" lon="7.5610500000000007"><ele></ele><time>2017-7-27T10:51:51Z</time></trkpt>
<trkpt lat="46.2939000000000007" lon="7.5606900000000010"><ele></ele><time>2017-7-27T10:51:54Z</time></trkpt>
<trkpt lat="46.2938800000000015" lon="7.5605700000000002"><ele></ele><time>2017-7-27T10:51:57Z</time></trkpt>
<trkpt lat="46.2938500000000062" lon="7.5605500000000010"><ele></ele><time>2017-7-27T10:52:0Z</time></trkpt>
<trkpt lat="46.2938100000000006" lon="7.5605200000000004"><ele></ele><time>2017-7-27T10:52:3Z</time></trkpt>
<trkpt lat="46.2937700000000021" lon="7.5604700000000005"><ele></ele><time>2017-7-27T10:52:6Z</time></trkpt>
<trkpt lat="46.2937600000000060" lon="7.5604600000000008"><ele></ele><time>2017-7-27T10:52:9Z</time></trkpt>
<trkpt lat="46.2937500000000028" lon="7.5604500000000003"><ele></ele><time>2017-7-27T10:52:12Z</time></trkpt>
<trkpt lat="46.2937400000000068" lon="7.5604300000000002"><ele></ele><time>2017-7-27T10:52:15Z</time></trkpt>
<trkpt lat="46.2937300000000036" lon="7.5604200000000006"><ele></ele><time>2017-7-27T10:52:18Z</time></trkpt>
<trkpt lat="46.2937200000000004" lon="7.5603800000000003"><ele></ele><time>2017-7-27T10:52:21Z</time></trkpt>
<trkpt lat="46.2937100000000044" lon="7.5603400000000009"><ele></ele><time>2017-7-27T10:52:24Z</time></trkpt>
<trkpt lat="46.2937000000000012" lon="7.5602300000000007"><ele></ele><time>2017-7-27T10:52:27Z</time></trkpt>
<trkpt lat="46.2936900000000051" lon="7.5602100000000005"><ele></ele><time>2017-7-27T10:52:30Z</time></trkpt>
<trkpt lat="46.2936800000000019" lon="7.5601800000000008"><ele></ele><time>2017-7-27T10:52:33Z</time></trkpt>
<trkpt lat="46.2936700000000059" lon="7.5601300000000009"><ele></ele><time>2017-7-27T10:52:36Z</time></trkpt>
<trkpt lat="46.2936600000000027" lon="7.5601200000000004"><ele></ele><time>2017-7-27T10:52:39Z</time></trkpt>
<trkpt lat="46.2936400000000035" lon="7.5601400000000005"><ele></ele><time>2017-7-27T10:52:42Z</time></trkpt>
<trkpt lat="46.2935700000000026" lon="7.5603700000000007"><ele></ele><time>2017-7-27T10:52:45Z</time></trkpt>
<trkpt lat="46.2935400000000072" lon="7.5604200000000006"><ele></ele><time>2017-7-27T10:52:48Z</time></trkpt>
<trkpt lat="46.2935300000000041" lon="7.5604500000000003"><ele></ele><time>2017-7-27T10:52:51Z</time></trkpt>
<trkpt lat="46.2935100000000048" lon="7.5604700000000005"><ele></ele><time>2017-7-27T10:52:54Z</time></trkpt>
<trkpt lat="46.2934900000000056" lon="7.5604800000000010"><ele></ele><time>2017-7-27T10:52:57Z</time></trkpt>
<trkpt lat="46.2934800000000024" lon="7.5604900000000006"><ele></ele><time>2017-7-27T10:53:0Z</time></trkpt>
<trkpt lat="46.2934600000000032" lon="7.5605000000000002"><ele></ele><time>2017-7-27T10:53:3Z</time></trkpt>
<trkpt lat="46.2934500000000071" lon="7.5605200000000004"><ele></ele><time>2017-7-27T10:53:6Z</time></trkpt>
<trkpt lat="46.2934300000000007" lon="7.5605300000000009"><ele></ele><time>2017-7-27T10:53:9Z</time></trkpt>
<trkpt lat="46.2933900000000023" lon="7.5605200000000004"><ele></ele><time>2017-7-27T10:53:12Z</time></trkpt>
<trkpt lat="46.2934000000000054" lon="7.5604800000000010"><ele></ele><time>2017-7-27T10:53:15Z</time></trkpt>
<trkpt lat="46.2934100000000015" lon="7.5604600000000008"><ele></ele><time>2017-7-27T10:53:18Z</time></trkpt>
<trkpt lat="46.2934300000000007" lon="7.5604300000000002"><ele></ele><time>2017-7-27T10:53:21Z</time></trkpt>
<trkpt lat="46.2934400000000039" lon="7.5604200000000006"><ele></ele><time>2017-7-27T10:53:24Z</time></trkpt>
<trkpt lat="46.2934600000000032" lon="7.5603700000000007"><ele></ele><time>2017-7-27T10:53:27Z</time></trkpt>
<trkpt lat="46.2935000000000016" lon="7.5602900000000002"><ele></ele><time>2017-7-27T10:53:30Z</time></trkpt>
<trkpt lat="46.2935100000000048" lon="7.5602400000000003"><ele></ele><time>2017-7-27T10:53:33Z</time></trkpt>
<trkpt lat="46.2935200000000009" lon="7.5601800000000008"><ele></ele><time>2017-7-27T10:53:36Z</time></trkpt>
<trkpt lat="46.2935300000000041" lon="7.5600800000000010"><ele></ele><time>2017-7-27T10:53:39Z</time></trkpt>
<trkpt lat="46.2935200000000009" lon="7.5599600000000002"><ele></ele><time>2017-7-27T10:53:42Z</time></trkpt>
<trkpt lat="46.2935100000000048" lon="7.5599000000000007"><ele></ele><time>2017-7-27T10:53:45Z</time></trkpt>
<trkpt lat="46.2935000000000016" lon="7.5598800000000006"><ele></ele><time>2017-7-27T10:53:48Z</time></trkpt>
<trkpt lat="46.2934900000000056" lon="7.5598700000000010"><ele></ele><time>2017-7-27T10:53:51Z</time></trkpt>
<trkpt lat="46.2934700000000063" lon="7.5598600000000005"><ele></ele><time>2017-7-27T10:53:54Z</time></trkpt>
<trkpt lat="46.2934300000000007" lon="7.5598700000000010"><ele></ele><time>2017-7-27T10:53:57Z</time></trkpt>
<trkpt lat="46.2934200000000047" lon="7.5598900000000002"><ele></ele><time>2017-7-27T10:54:0Z</time></trkpt>
<trkpt lat="46.2933900000000023" lon="7.5599600000000002"><ele></ele><time>2017-7-27T10:54:3Z</time></trkpt>
<trkpt lat="46.2933400000000006" lon="7.5601200000000004"><ele></ele><time>2017-7-27T10:54:6Z</time></trkpt>
<trkpt lat="46.2933200000000014" lon="7.5601700000000003"><ele></ele><time>2017-7-27T10:54:9Z</time></trkpt>
<trkpt lat="46.2933100000000053" lon="7.5601900000000004"><ele></ele><time>2017-7-27T10:54:12Z</time></trkpt>
<trkpt lat="46.2933000000000021" lon="7.5602000000000009"><ele></ele><time>2017-7-27T10:54:15Z</time></trkpt>
<trkpt lat="46.2932900000000060" lon="7.5602100000000005"><ele></ele><time>2017-7-27T10:54:18Z</time></trkpt>
<trkpt lat="46.2932500000000005" lon="7.5602000000000009"><ele></ele><time>2017-7-27T10:54:21Z</time></trkpt>
<trkpt lat="46.2932600000000036" lon="7.5601300000000009"><ele></ele><time>2017-7-27T10:54:24Z</time></trkpt>
<trkpt lat="46.2932800000000029" lon="7.5600200000000006"><ele></ele><time>2017-7-27T10:54:27Z</time></trkpt>
<trkpt lat="46.2932700000000068" lon="7.5599700000000007"><ele></ele><time>2017-7-27T10:54:30Z</time></trkpt>
<trkpt lat="46.2932500000000005" lon="7.5599400000000010"><ele></ele><time>2017-7-27T10:54:33Z</time></trkpt>
<trkpt lat="46.2932200000000051" lon="7.5598900000000002"><ele></ele><time>2017-7-27T10:54:36Z</time></trkpt>
<trkpt lat="46.2930900000000065" lon="7.5597300000000009"><ele></ele><time>2017-7-27T10:54:39Z</time></trkpt>
<trkpt lat="46.2930800000000033" lon="7.5597100000000008"><ele></ele><time>2017-7-27T10:54:42Z</time></trkpt>
<trkpt lat="46.2930400000000049" lon="7.5595600000000003"><ele></ele><time>2017-7-27T10:54:45Z</time></trkpt>
<trkpt lat="46.2930000000000064" lon="7.5594600000000005"><ele></ele><time>2017-7-27T10:54:48Z</time></trkpt>
<trkpt lat="46.2929500000000047" lon="7.5593100000000009"><ele></ele><time>2017-7-27T10:54:51Z</time></trkpt>
<trkpt lat="46.2929200000000023" lon="7.5591100000000004"><ele></ele><time>2017-7-27T10:54:54Z</time></trkpt>
<trkpt lat="46.2928400000000053" lon="7.5586900000000004"><ele></ele><time>2017-7-27T10:54:57Z</time></trkpt>
<trkpt lat="46.2928100000000029" lon="7.5585000000000004"><ele></ele><time>2017-7-27T10:55:0Z</time></trkpt>
<trkpt lat="46.2929500000000047" lon="7.5582900000000004"><ele></ele><time>2017-7-27T10:55:3Z</time></trkpt>
<trkpt lat="46.2931600000000003" lon="7.5579800000000006"><ele></ele><time>2017-7-27T10:55:6Z</time></trkpt>
<trkpt lat="46.2932000000000059" lon="7.5579400000000003"><ele></ele><time>2017-7-27T10:55:9Z</time></trkpt>
<trkpt lat="46.2932300000000012" lon="7.5579200000000002"><ele></ele><time>2017-7-27T10:55:12Z</time></trkpt>
<trkpt lat="46.2932500000000005" lon="7.5579100000000006"><ele></ele><time>2017-7-27T10:55:15Z</time></trkpt>
<trkpt lat="46.2933100000000053" lon="7.5579200000000002"><ele></ele><time>2017-7-27T10:55:18Z</time></trkpt>
<trkpt lat="46.2933200000000014" lon="7.5579100000000006"><ele></ele><time>2017-7-27T10:55:21Z</time></trkpt>
<trkpt lat="46.2933500000000038" lon="7.5578900000000004"><ele></ele><time>2017-7-27T10:55:24Z</time></trkpt>
<trkpt lat="46.2932800000000029" lon="7.5577500000000004"><ele></ele><time>2017-7-27T10:55:27Z</time></trkpt>
<trkpt lat="46.2932900000000060" lon="7.5577400000000008"><ele></ele><time>2017-7-27T10:55:30Z</time></trkpt>
<trkpt lat="46.2932800000000029" lon="7.5576200000000009"><ele></ele><time>2017-7-27T10:55:33Z</time></trkpt>
<trkpt lat="46.2932700000000068" lon="7.5576000000000008"><ele></ele><time>2017-7-27T10:55:36Z</time></trkpt>
<trkpt lat="46.2932600000000036" lon="7.5575800000000006"><ele></ele><time>2017-7-27T10:55:39Z</time></trkpt>
<trkpt lat="46.2932500000000005" lon="7.5575700000000010"><ele></ele><time>2017-7-27T10:55:42Z</time></trkpt>
<trkpt lat="46.2932400000000044" lon="7.5575600000000005"><ele></ele><time>2017-7-27T10:55:45Z</time></trkpt>
<trkpt lat="46.2932300000000012" lon="7.5575500000000009"><ele></ele><time>2017-7-27T10:55:48Z</time></trkpt>
<trkpt lat="46.2932200000000051" lon="7.5575400000000004"><ele></ele><time>2017-7-27T10:55:51Z</time></trkpt>
<trkpt lat="46.2930600000000041" lon="7.5574400000000006"><ele></ele><time>2017-7-27T10:55:54Z</time></trkpt>
<trkpt lat="46.2929900000000032" lon="7.5574100000000008"><ele></ele><time>2017-7-27T10:55:57Z</time></trkpt>
<trkpt lat="46.2929400000000015" lon="7.5573200000000007"><ele></ele><time>2017-7-27T10:56:0Z</time></trkpt>
<trkpt lat="46.2929000000000030" lon="7.5572200000000009"><ele></ele><time>2017-7-27T10:56:3Z</time></trkpt>
<trkpt lat="46.2928800000000038" lon="7.5570900000000005"><ele></ele><time>2017-7-27T10:56:6Z</time></trkpt>
<trkpt lat="46.2928900000000070" lon="7.5569900000000008"><ele></ele><time>2017-7-27T10:56:9Z</time></trkpt>
<trkpt lat="46.2929100000000062" lon="7.5569300000000004"><ele></ele><time>2017-7-27T10:56:12Z</time></trkpt>
<trkpt lat="46.2929500000000047" lon="7.5568500000000007"><ele></ele><time>2017-7-27T10:56:15Z</time></trkpt>
<trkpt lat="46.2930000000000064" lon="7.5568000000000008"><ele></ele><time>2017-7-27T10:56:18Z</time></trkpt>
<trkpt lat="46.2931200000000018" lon="7.5567400000000005"><ele></ele><time>2017-7-27T10:56:21Z</time></trkpt>
<trkpt lat="46.2934700000000063" lon="7.5566400000000007"><ele></ele><time>2017-7-27T10:56:24Z</time></trkpt>
<trkpt lat="46.2936300000000003" lon="7.5565200000000008"><ele></ele><time>2017-7-27T10:56:27Z</time></trkpt>
<trkpt lat="46.2937100000000044" lon="7.5564400000000003"><ele></ele><time>2017-7-27T10:56:30Z</time></trkpt>
<trkpt lat="46.2938000000000045" lon="7.5563500000000010"><ele></ele><time>2017-7-27T10:56:33Z</time></trkpt>
<trkpt lat="46.2938800000000015" lon="7.5562300000000002"><ele></ele><time>2017-7-27T10:56:36Z</time></trkpt>
<trkpt lat="46.2942400000000021" lon="7.5556500000000009"><ele></ele><time>2017-7-27T10:56:39Z</time></trkpt>
<trkpt lat="46.2944700000000040" lon="7.5553000000000008"><ele></ele><time>2017-7-27T10:56:42Z</time></trkpt>
<trkpt lat="46.2946100000000058" lon="7.5550600000000010"><ele></ele><time>2017-7-27T10:56:45Z</time></trkpt>
<trkpt lat="46.2946600000000004" lon="7.5549800000000005"><ele></ele><time>2017-7-27T10:56:48Z</time></trkpt>
<trkpt lat="46.2947000000000060" lon="7.5548800000000007"><ele></ele><time>2017-7-27T10:56:51Z</time></trkpt>
<trkpt lat="46.2947300000000013" lon="7.5547600000000008"><ele></ele><time>2017-7-27T10:56:54Z</time></trkpt>
<trkpt lat="46.2947500000000005" lon="7.5545700000000009"><ele></ele><time>2017-7-27T10:56:57Z</time></trkpt>
<trkpt lat="46.2947600000000037" lon="7.5544300000000009"><ele></ele><time>2017-7-27T10:57:0Z</time></trkpt>
<trkpt lat="46.2947700000000069" lon="7.5535600000000009"><ele></ele><time>2017-7-27T10:57:3Z</time></trkpt>
<trkpt lat="46.2947800000000029" lon="7.5533600000000005"><ele></ele><time>2017-7-27T10:57:6Z</time></trkpt>
<trkpt lat="46.2948800000000062" lon="7.5524400000000007"><ele></ele><time>2017-7-27T10:57:9Z</time></trkpt>
<trkpt lat="46.2950300000000041" lon="7.5517400000000006"><ele></ele><time>2017-7-27T10:57:12Z</time></trkpt>
<trkpt lat="46.2953700000000055" lon="7.5505200000000006"><ele></ele><time>2017-7-27T10:57:15Z</time></trkpt>
<trkpt lat="46.2957300000000060" lon="7.5493400000000008"><ele></ele><time>2017-7-27T10:57:18Z</time></trkpt>
<trkpt lat="46.2957600000000014" lon="7.5490700000000004"><ele></ele><time>2017-7-27T10:57:21Z</time></trkpt>
<trkpt lat="46.2956500000000020" lon="7.5488800000000005"><ele></ele><time>2017-7-27T10:57:24Z</time></trkpt>
<trkpt lat="46.2956000000000003" lon="7.5488000000000008"><ele></ele><time>2017-7-27T10:57:27Z</time></trkpt>
<trkpt lat="46.2952600000000061" lon="7.5485300000000004"><ele></ele><time>2017-7-27T10:57:30Z</time></trkpt>
<trkpt lat="46.2939500000000024" lon="7.5475900000000005"><ele></ele><time>2017-7-27T10:57:33Z</time></trkpt>
<trkpt lat="46.2937300000000036" lon="7.5474300000000003"><ele></ele><time>2017-7-27T10:57:36Z</time></trkpt>
<trkpt lat="46.2935200000000009" lon="7.5472400000000004"><ele></ele><time>2017-7-27T10:57:39Z</time></trkpt>
<trkpt lat="46.2933700000000030" lon="7.5470500000000005"><ele></ele><time>2017-7-27T10:57:42Z</time></trkpt>
<trkpt lat="46.2932700000000068" lon="7.5468800000000007"><ele></ele><time>2017-7-27T10:57:45Z</time></trkpt>
<trkpt lat="46.2931400000000011" lon="7.5466100000000003"><ele></ele><time>2017-7-27T10:57:48Z</time></trkpt>
<trkpt lat="46.2930200000000056" lon="7.5462800000000003"><ele></ele><time>2017-7-27T10:57:51Z</time></trkpt>
<trkpt lat="46.2929500000000047" lon="7.5461000000000009"><ele></ele><time>2017-7-27T10:57:54Z</time></trkpt>
<trkpt lat="46.2928600000000046" lon="7.5459200000000006"><ele></ele><time>2017-7-27T10:57:57Z</time></trkpt>
<trkpt lat="46.2928300000000021" lon="7.5458800000000004"><ele></ele><time>2017-7-27T10:58:0Z</time></trkpt>
<trkpt lat="46.2927800000000005" lon="7.5458100000000004"><ele></ele><time>2017-7-27T10:58:3Z</time></trkpt>
<trkpt lat="46.2926500000000019" lon="7.5456900000000005"><ele></ele><time>2017-7-27T10:58:6Z</time></trkpt>
<trkpt lat="46.2924100000000038" lon="7.5454800000000004"><ele></ele><time>2017-7-27T10:58:9Z</time></trkpt>
<trkpt lat="46.2921800000000019" lon="7.5453100000000006"><ele></ele><time>2017-7-27T10:58:12Z</time></trkpt>
<trkpt lat="46.2921200000000042" lon="7.5452700000000004"><ele></ele><time>2017-7-27T10:58:15Z</time></trkpt>
<trkpt lat="46.2919900000000055" lon="7.5451800000000002"><ele></ele><time>2017-7-27T10:58:18Z</time></trkpt>
<trkpt lat="46.2918300000000045" lon="7.5451000000000006"><ele></ele><time>2017-7-27T10:58:21Z</time></trkpt>
<trkpt lat="46.2916800000000066" lon="7.5450300000000006"><ele></ele><time>2017-7-27T10:58:24Z</time></trkpt>
<trkpt lat="46.2912700000000044" lon="7.5449200000000003"><ele></ele><time>2017-7-27T10:58:27Z</time></trkpt>
<trkpt lat="46.2910900000000041" lon="7.5448700000000004"><ele></ele><time>2017-7-27T10:58:30Z</time></trkpt>
<trkpt lat="46.2901400000000010" lon="7.5446500000000007"><ele></ele><time>2017-7-27T10:58:33Z</time></trkpt>
<trkpt lat="46.2895100000000070" lon="7.5445500000000010"><ele></ele><time>2017-7-27T10:58:36Z</time></trkpt>
<trkpt lat="46.2892600000000058" lon="7.5444800000000010"><ele></ele><time>2017-7-27T10:58:39Z</time></trkpt>
<trkpt lat="46.2890500000000031" lon="7.5443500000000006"><ele></ele><time>2017-7-27T10:58:42Z</time></trkpt>
<trkpt lat="46.2888300000000044" lon="7.5442400000000003"><ele></ele><time>2017-7-27T10:58:45Z</time></trkpt>
<trkpt lat="46.2884600000000006" lon="7.5441400000000005"><ele></ele><time>2017-7-27T10:58:48Z</time></trkpt>
<trkpt lat="46.2883000000000067" lon="7.5440700000000005"><ele></ele><time>2017-7-27T10:58:51Z</time></trkpt>
<trkpt lat="46.2877100000000041" lon="7.5436400000000008"><ele></ele><time>2017-7-27T10:58:54Z</time></trkpt>
<trkpt lat="46.2872600000000034" lon="7.5433100000000008"><ele></ele><time>2017-7-27T10:58:57Z</time></trkpt>
<trkpt lat="46.2871300000000048" lon="7.5431600000000003"><ele></ele><time>2017-7-27T10:59:0Z</time></trkpt>
<trkpt lat="46.2870500000000007" lon="7.5430300000000008"><ele></ele><time>2017-7-27T10:59:3Z</time></trkpt>
<trkpt lat="46.2869300000000052" lon="7.5428400000000009"><ele></ele><time>2017-7-27T10:59:6Z</time></trkpt>
<trkpt lat="46.2867500000000049" lon="7.5426000000000002"><ele></ele><time>2017-7-27T10:59:9Z</time></trkpt>
<trkpt lat="46.2866200000000063" lon="7.5425000000000004"><ele></ele><time>2017-7-27T10:59:12Z</time></trkpt>
<trkpt lat="46.2864800000000045" lon="7.5424200000000008"><ele></ele><time>2017-7-27T10:59:15Z</time></trkpt>
<trkpt lat="46.2861700000000056" lon="7.5423700000000009"><ele></ele><time>2017-7-27T10:59:18Z</time></trkpt>
<trkpt lat="46.2860000000000014" lon="7.5423300000000006"><ele></ele><time>2017-7-27T10:59:21Z</time></trkpt>
<trkpt lat="46.2859500000000068" lon="7.5423100000000005"><ele></ele><time>2017-7-27T10:59:24Z</time></trkpt>
<trkpt lat="46.2857800000000026" lon="7.5422500000000010"><ele></ele><time>2017-7-27T10:59:27Z</time></trkpt>
<trkpt lat="46.2856600000000071" lon="7.5421700000000005"><ele></ele><time>2017-7-27T10:59:30Z</time></trkpt>
<trkpt lat="46.2854800000000068" lon="7.5420200000000008"><ele></ele><time>2017-7-27T10:59:33Z</time></trkpt>
<trkpt lat="46.2853700000000003" lon="7.5419100000000006"><ele></ele><time>2017-7-27T10:59:36Z</time></trkpt>
<trkpt lat="46.2852700000000041" lon="7.5417500000000004"><ele></ele><time>2017-7-27T10:59:39Z</time></trkpt>
<trkpt lat="46.2851400000000055" lon="7.5415200000000002"><ele></ele><time>2017-7-27T10:59:42Z</time></trkpt>
<trkpt lat="46.2850500000000054" lon="7.5413200000000007"><ele></ele><time>2017-7-27T10:59:45Z</time></trkpt>
<trkpt lat="46.2849900000000005" lon="7.5411200000000003"><ele></ele><time>2017-7-27T10:59:48Z</time></trkpt>
<trkpt lat="46.2849700000000013" lon="7.5410400000000006"><ele></ele><time>2017-7-27T10:59:51Z</time></trkpt>
<trkpt lat="46.2849100000000035" lon="7.5407300000000008"><ele></ele><time>2017-7-27T10:59:54Z</time></trkpt>
<trkpt lat="46.2848100000000073" lon="7.5401600000000002"><ele></ele><time>2017-7-27T10:59:57Z</time></trkpt>
<trkpt lat="46.2847800000000049" lon="7.5399600000000007"><ele></ele><time>2017-7-27T11:0:0Z</time></trkpt>
<trkpt lat="46.2847500000000025" lon="7.5397400000000010"><ele></ele><time>2017-7-27T11:0:3Z</time></trkpt>
<trkpt lat="46.2847000000000008" lon="7.5396500000000009"><ele></ele><time>2017-7-27T11:0:6Z</time></trkpt>
<trkpt lat="46.2846400000000031" lon="7.5394700000000006"><ele></ele><time>2017-7-27T11:0:9Z</time></trkpt>
<trkpt lat="46.2846300000000070" lon="7.5394800000000002"><ele></ele><time>2017-7-27T11:0:12Z</time></trkpt>
<trkpt lat="46.2845800000000054" lon="7.5394500000000004"><ele></ele><time>2017-7-27T11:0:15Z</time></trkpt>
<trkpt lat="46.2844400000000036" lon="7.5394800000000002"><ele></ele><time>2017-7-27T11:0:18Z</time></trkpt>
<trkpt lat="46.2843800000000059" lon="7.5394700000000006"><ele></ele><time>2017-7-27T11:0:21Z</time></trkpt>
<trkpt lat="46.2837800000000072" lon="7.5397700000000007"><ele></ele><time>2017-7-27T11:0:24Z</time></trkpt>
<trkpt lat="46.2837800000000072" lon="7.5397700000000007"><ele></ele><time>2017-7-27T11:0:27Z</time></trkpt>
<trkpt lat="46.2837800000000072" lon="7.5397700000000007"><ele></ele><time>2017-7-27T11:0:30Z</time></trkpt>
<trkpt lat="46.2833100000000073" lon="7.5400300000000007"><ele></ele><time>2017-7-27T11:0:33Z</time></trkpt>
<trkpt lat="46.2829200000000043" lon="7.5402400000000007"><ele></ele><time>2017-7-27T11:0:36Z</time></trkpt>
<trkpt lat="46.2828700000000026" lon="7.5402800000000010"><ele></ele><time>2017-7-27T11:0:39Z</time></trkpt>
<trkpt lat="46.2820600000000013" lon="7.5407500000000010"><ele></ele><time>2017-7-27T11:0:42Z</time></trkpt>
<trkpt lat="46.2820500000000052" lon="7.5407100000000007"><ele></ele><time>2017-7-27T11:0:45Z</time></trkpt>
<trkpt lat="46.2820100000000068" lon="7.5405400000000009"><ele></ele><time>2017-7-27T11:0:48Z</time></trkpt>
<trkpt lat="46.2818400000000025" lon="7.5397900000000009"><ele></ele><time>2017-7-27T11:0:51Z</time></trkpt>
<trkpt lat="46.2818000000000040" lon="7.5395400000000006"><ele></ele><time>2017-7-27T11:0:54Z</time></trkpt>
<trkpt lat="46.2816700000000054" lon="7.5387500000000003"><ele></ele><time>2017-7-27T11:0:57Z</time></trkpt>
<trkpt lat="46.2814300000000003" lon="7.5374800000000004"><ele></ele><time>2017-7-27T11:1:0Z</time></trkpt>
<trkpt lat="46.2813200000000009" lon="7.5368500000000003"><ele></ele><time>2017-7-27T11:1:3Z</time></trkpt>
<trkpt lat="46.2811900000000023" lon="7.5361800000000008"><ele></ele><time>2017-7-27T11:1:6Z</time></trkpt>
<trkpt lat="46.2810800000000029" lon="7.5355300000000005"><ele></ele><time>2017-7-27T11:1:9Z</time></trkpt>
<trkpt lat="46.2809000000000026" lon="7.5344400000000009"><ele></ele><time>2017-7-27T11:1:12Z</time></trkpt>
<trkpt lat="46.2807800000000071" lon="7.5338100000000008"><ele></ele><time>2017-7-27T11:1:15Z</time></trkpt>
<trkpt lat="46.2806100000000029" lon="7.5328000000000008"><ele></ele><time>2017-7-27T11:1:18Z</time></trkpt>
<trkpt lat="46.2803200000000032" lon="7.5309700000000008"><ele></ele><time>2017-7-27T11:1:21Z</time></trkpt>
<trkpt lat="46.2801200000000037" lon="7.5297300000000007"><ele></ele><time>2017-7-27T11:1:24Z</time></trkpt>
<trkpt lat="46.2797200000000046" lon="7.5273800000000008"><ele></ele><time>2017-7-27T11:1:27Z</time></trkpt>
<trkpt lat="46.2796600000000069" lon="7.5270200000000003"><ele></ele><time>2017-7-27T11:1:30Z</time></trkpt>
<trkpt lat="46.2793200000000056" lon="7.5251100000000006"><ele></ele><time>2017-7-27T11:1:33Z</time></trkpt>
<trkpt lat="46.2791100000000029" lon="7.5238700000000005"><ele></ele><time>2017-7-27T11:1:36Z</time></trkpt>
<trkpt lat="46.2787500000000023" lon="7.5219000000000005"><ele></ele><time>2017-7-27T11:1:39Z</time></trkpt>
<trkpt lat="46.2784000000000049" lon="7.5199300000000004"><ele></ele><time>2017-7-27T11:1:42Z</time></trkpt>
<trkpt lat="46.2782300000000006" lon="7.5190100000000006"><ele></ele><time>2017-7-27T11:1:45Z</time></trkpt>
<trkpt lat="46.2780800000000028" lon="7.5181100000000010"><ele></ele><time>2017-7-27T11:1:48Z</time></trkpt>
<trkpt lat="46.2779700000000034" lon="7.5174800000000008"><ele></ele><time>2017-7-27T11:1:51Z</time></trkpt>
<trkpt lat="46.2779300000000049" lon="7.5171300000000008"><ele></ele><time>2017-7-27T11:1:54Z</time></trkpt>
<trkpt lat="46.2778900000000064" lon="7.5169600000000010"><ele></ele><time>2017-7-27T11:1:57Z</time></trkpt>
<trkpt lat="46.2776600000000045" lon="7.5163000000000002"><ele></ele><time>2017-7-27T11:2:0Z</time></trkpt>
<trkpt lat="46.2776500000000013" lon="7.5162100000000009"><ele></ele><time>2017-7-27T11:2:3Z</time></trkpt>
<trkpt lat="46.2776200000000060" lon="7.5160700000000009"><ele></ele><time>2017-7-27T11:2:6Z</time></trkpt>
<trkpt lat="46.2776100000000028" lon="7.5159800000000008"><ele></ele><time>2017-7-27T11:2:9Z</time></trkpt>
<trkpt lat="46.2775900000000036" lon="7.5158600000000009"><ele></ele><time>2017-7-27T11:2:12Z</time></trkpt>
<trkpt lat="46.2775700000000043" lon="7.5156400000000003"><ele></ele><time>2017-7-27T11:2:15Z</time></trkpt>
<trkpt lat="46.2775400000000019" lon="7.5151900000000005"><ele></ele><time>2017-7-27T11:2:18Z</time></trkpt>
<trkpt lat="46.2775100000000066" lon="7.5148400000000004"><ele></ele><time>2017-7-27T11:2:21Z</time></trkpt>
<trkpt lat="46.2774500000000018" lon="7.5144900000000003"><ele></ele><time>2017-7-27T11:2:24Z</time></trkpt>
<trkpt lat="46.2772400000000061" lon="7.5132900000000005"><ele></ele><time>2017-7-27T11:2:27Z</time></trkpt>
<trkpt lat="46.2770000000000010" lon="7.5119000000000007"><ele></ele><time>2017-7-27T11:2:30Z</time></trkpt>
<trkpt lat="46.2768200000000007" lon="7.5108200000000007"><ele></ele><time>2017-7-27T11:2:33Z</time></trkpt>
<trkpt lat="46.2767400000000038" lon="7.5104100000000003"><ele></ele><time>2017-7-27T11:2:36Z</time></trkpt>
<trkpt lat="46.2766000000000020" lon="7.5097100000000010"><ele></ele><time>2017-7-27T11:2:39Z</time></trkpt>
<trkpt lat="46.2765500000000003" lon="7.5093900000000007"><ele></ele><time>2017-7-27T11:2:42Z</time></trkpt>
<trkpt lat="46.2764700000000033" lon="7.5091600000000005"><ele></ele><time>2017-7-27T11:2:45Z</time></trkpt>
<trkpt lat="46.2764100000000056" lon="7.5090000000000003"><ele></ele><time>2017-7-27T11:2:48Z</time></trkpt>
<trkpt lat="46.2763700000000071" lon="7.5088400000000002"><ele></ele><time>2017-7-27T11:2:51Z</time></trkpt>
<trkpt lat="46.2763500000000008" lon="7.5087900000000003"><ele></ele><time>2017-7-27T11:2:54Z</time></trkpt>
<trkpt lat="46.2760700000000043" lon="7.5088600000000003"><ele></ele><time>2017-7-27T11:2:57Z</time></trkpt>
<trkpt lat="46.2755800000000050" lon="7.5088900000000010"><ele></ele><time>2017-7-27T11:3:0Z</time></trkpt>
<trkpt lat="46.2752800000000022" lon="7.5089200000000007"><ele></ele><time>2017-7-27T11:3:3Z</time></trkpt>
<trkpt lat="46.2750400000000042" lon="7.5089500000000005"><ele></ele><time>2017-7-27T11:3:6Z</time></trkpt>
<trkpt lat="46.2745200000000025" lon="7.5089800000000002"><ele></ele><time>2017-7-27T11:3:9Z</time></trkpt>
<trkpt lat="46.2735100000000017" lon="7.5090100000000009"><ele></ele><time>2017-7-27T11:3:12Z</time></trkpt>
<trkpt lat="46.2733500000000006" lon="7.5090000000000003"><ele></ele><time>2017-7-27T11:3:15Z</time></trkpt>
<trkpt lat="46.2732700000000037" lon="7.5089900000000007"><ele></ele><time>2017-7-27T11:3:18Z</time></trkpt>
<trkpt lat="46.2731200000000058" lon="7.5089600000000010"><ele></ele><time>2017-7-27T11:3:21Z</time></trkpt>
<trkpt lat="46.2723600000000062" lon="7.5087700000000011"><ele></ele><time>2017-7-27T11:3:24Z</time></trkpt>
<trkpt lat="46.2712600000000052" lon="7.5084900000000010"><ele></ele><time>2017-7-27T11:3:27Z</time></trkpt>
<trkpt lat="46.2711100000000073" lon="7.5084800000000005"><ele></ele><time>2017-7-27T11:3:30Z</time></trkpt>
<trkpt lat="46.2708600000000061" lon="7.5085100000000002"><ele></ele><time>2017-7-27T11:3:33Z</time></trkpt>
<trkpt lat="46.2707300000000004" lon="7.5085600000000010"><ele></ele><time>2017-7-27T11:3:36Z</time></trkpt>
<trkpt lat="46.2700000000000031" lon="7.5089600000000010"><ele></ele><time>2017-7-27T11:3:39Z</time></trkpt>
<trkpt lat="46.2696800000000010" lon="7.5091200000000002"><ele></ele><time>2017-7-27T11:3:42Z</time></trkpt>
<trkpt lat="46.2696500000000057" lon="7.5091300000000007"><ele></ele><time>2017-7-27T11:3:45Z</time></trkpt>
<trkpt lat="46.2694500000000062" lon="7.5092000000000008"><ele></ele><time>2017-7-27T11:3:48Z</time></trkpt>
<trkpt lat="46.2693400000000068" lon="7.5092100000000004"><ele></ele><time>2017-7-27T11:3:51Z</time></trkpt>
<trkpt lat="46.2689400000000006" lon="7.5091800000000006"><ele></ele><time>2017-7-27T11:3:54Z</time></trkpt>
<trkpt lat="46.2687300000000050" lon="7.5091400000000004"><ele></ele><time>2017-7-27T11:3:57Z</time></trkpt>
<trkpt lat="46.2684200000000061" lon="7.5090700000000004"><ele></ele><time>2017-7-27T11:4:0Z</time></trkpt>
<trkpt lat="46.2683900000000037" lon="7.5090400000000006"><ele></ele><time>2017-7-27T11:4:3Z</time></trkpt>
<trkpt lat="46.2683200000000028" lon="7.5089900000000007"><ele></ele><time>2017-7-27T11:4:6Z</time></trkpt>
<trkpt lat="46.2682200000000066" lon="7.5089600000000010"><ele></ele><time>2017-7-27T11:4:9Z</time></trkpt>
<trkpt lat="46.2680100000000039" lon="7.5088900000000010"><ele></ele><time>2017-7-27T11:4:12Z</time></trkpt>
<trkpt lat="46.2680000000000007" lon="7.5088800000000004"><ele></ele><time>2017-7-27T11:4:15Z</time></trkpt>
<trkpt lat="46.2679900000000046" lon="7.5088400000000002"><ele></ele><time>2017-7-27T11:4:18Z</time></trkpt>
<trkpt lat="46.2679800000000014" lon="7.5088200000000009"><ele></ele><time>2017-7-27T11:4:21Z</time></trkpt>
<trkpt lat="46.2679700000000054" lon="7.5088100000000004"><ele></ele><time>2017-7-27T11:4:24Z</time></trkpt>
<trkpt lat="46.2679600000000022" lon="7.5087900000000003"><ele></ele><time>2017-7-27T11:4:27Z</time></trkpt>
<trkpt lat="46.2679500000000061" lon="7.5087800000000007"><ele></ele><time>2017-7-27T11:4:30Z</time></trkpt>
<trkpt lat="46.2679400000000030" lon="7.5087700000000011"><ele></ele><time>2017-7-27T11:4:33Z</time></trkpt>
<trkpt lat="46.2679200000000037" lon="7.5087600000000005"><ele></ele><time>2017-7-27T11:4:36Z</time></trkpt>
<trkpt lat="46.2678500000000028" lon="7.5087700000000011"><ele></ele><time>2017-7-27T11:4:39Z</time></trkpt>
<trkpt lat="46.2678300000000036" lon="7.5087800000000007"><ele></ele><time>2017-7-27T11:4:42Z</time></trkpt>
<trkpt lat="46.2678200000000004" lon="7.5087900000000003"><ele></ele><time>2017-7-27T11:4:45Z</time></trkpt>
<trkpt lat="46.2678100000000043" lon="7.5088000000000008"><ele></ele><time>2017-7-27T11:4:48Z</time></trkpt>
<trkpt lat="46.2678000000000011" lon="7.5088100000000004"><ele></ele><time>2017-7-27T11:4:51Z</time></trkpt>
<trkpt lat="46.2676200000000009" lon="7.5088200000000009"><ele></ele><time>2017-7-27T11:4:54Z</time></trkpt>
<trkpt lat="46.2675600000000031" lon="7.5088400000000002"><ele></ele><time>2017-7-27T11:4:57Z</time></trkpt>
<trkpt lat="46.2673400000000044" lon="7.5087900000000003"><ele></ele><time>2017-7-27T11:5:0Z</time></trkpt>
<trkpt lat="46.2671100000000024" lon="7.5087600000000005"><ele></ele><time>2017-7-27T11:5:3Z</time></trkpt>
<trkpt lat="46.2670200000000023" lon="7.5087500000000009"><ele></ele><time>2017-7-27T11:5:6Z</time></trkpt>
</trkseg></trk></gpx>